Date StartTime U_cm/s V_cm/s W_cm/s Ustd_cm/s Vstd_cm/s Wstd_cm/s Uvar_(cm/s)^2 Vvar_(cm/s)^2 Wvar_(cm/s)^2 KE_(m/s)^2 TurbulentKE_(m/s)^2 HorizWindSpeed_cm/s FrictionSpeec_cm/s DragCoef SpeedOfSound_m/s SonicTemperature_C Pressure_mb 
03/24/2014  00:00:00     -141.246      -98.872        3.677       45.754       33.913       26.808     2093.470     1150.098      718.644        1.685        0.198      172.413       26.371        0.023      336.221        7.376      865.840
03/24/2014  00:01:00      -87.666      -58.776        7.781       63.045       38.495       27.909     3974.692     1481.846      778.891        0.872        0.312      105.546       30.249        0.082      336.313        7.531      865.851
03/24/2014  00:02:00     -100.694      -37.277       10.362       57.377       36.709       21.453     3292.113     1347.529      460.214        0.837        0.255      107.373       24.632        0.053      336.264        7.448      865.847
03/24/2014  00:03:00     -118.883      -54.229        0.038       35.145       39.949       21.343     1235.199     1595.926      455.523        1.018        0.164      130.667       20.153        0.024      336.334        7.566      865.842
03/24/2014  00:04:00     -152.277      -52.072       -5.913       32.395       34.471       20.899     1049.447     1188.263      436.789        1.430        0.134      160.934       14.083        0.008      336.328        7.555      865.829
03/24/2014  00:05:00     -156.525      -60.967        0.941       54.335       30.253       25.822     2952.254      915.271      666.790        1.638        0.227      167.980       28.125        0.028      336.315        7.534      865.810
03/24/2014  00:06:00     -205.851      -76.776       -1.745       47.934       33.626       26.021     2297.686     1130.734      677.108        2.619        0.205      219.702       23.850        0.012      336.331        7.556      865.803
03/24/2014  00:07:00     -205.205      -70.277       -9.419       38.185       30.851       20.107     1458.105      951.804      404.278        2.497        0.141      216.905       21.289        0.010      336.180        7.306      865.789
03/24/2014  00:08:00     -203.219      -72.856       -1.801       43.420       36.613       26.357     1885.268     1340.523      694.679        2.526        0.196      215.884       22.979        0.011      336.028        7.051      865.774
03/24/2014  00:09:00     -213.713      -86.133       -6.398       43.707       44.878       32.799     1910.269     2014.020     1075.791        2.907        0.250      230.417       27.801        0.015      335.939        6.903      865.763
03/24/2014  00:10:00     -197.444     -115.308      -11.483       43.115       31.870       27.276     1858.931     1015.666      743.997        2.801        0.181      228.649       18.330        0.006      335.873        6.793      865.764
03/24/2014  00:11:00     -165.602      -51.977      -10.771       57.131       62.087       30.492     3263.934     3854.748      929.739        1.914        0.402      173.567       32.112        0.034      335.869        6.788      865.760
03/24/2014  00:12:00     -169.370      -35.800       -8.960       47.189       34.541       27.216     2226.817     1193.079      740.695        1.710        0.208      173.112       24.234        0.020      335.995        6.998      865.746
03/24/2014  00:13:00     -179.630      -22.384       -8.491       45.058       47.977       29.643     2030.239     2301.759      878.697        1.902        0.261      181.019       24.634        0.019      335.954        6.931      865.735
03/24/2014  00:14:00     -222.159        6.229      -18.481       49.448       34.431       29.100     2445.082     1185.498      846.821        2.711        0.224      222.247       25.802        0.013      336.263        7.443      865.737
03/24/2014  00:15:00     -230.648       -6.009      -22.400       47.426       36.436       30.894     2249.212     1327.579      954.447        2.913        0.227      230.727       27.846        0.015      336.127        7.215      865.733
03/24/2014  00:16:00     -167.509      -11.910      -11.870       62.374       42.177       33.796     3890.565     1778.873     1142.186        1.758        0.341      167.932       35.761        0.045      335.972        6.961      865.732
03/24/2014  00:17:00     -174.982      -16.517      -12.551       70.037       42.600       34.518     4905.246     1814.760     1191.490        1.948        0.396      175.760       36.580        0.043      335.860        6.774      865.739
03/24/2014  00:18:00     -160.485      -21.012      -23.049       55.268       43.437       30.810     3054.515     1886.735      949.254        1.631        0.295      161.855       30.713        0.036      335.749        6.589      865.737
03/24/2014  00:19:00     -146.760      -23.996       -8.889       49.472       43.082       32.953     2447.437     1856.095     1085.916        1.379        0.269      148.709       32.875        0.049      335.736        6.568      865.736
03/24/2014  00:20:00      -59.397      -21.403        5.716       46.580       34.608       25.624     2169.732     1197.728      656.599        0.402        0.201       63.135       27.913        0.195      335.679        6.474      865.729
03/24/2014  00:21:00      -59.263      -54.429        3.593       47.089       30.988       17.968     2217.386      960.228      322.847        0.499        0.175       80.465       22.247        0.076      335.883        6.813      865.737
03/24/2014  00:22:00      -47.851     -116.549        1.409       37.971       20.285       18.294     1441.819      411.486      334.654        0.903        0.109      125.989       20.544        0.027      336.184        7.313      865.752
03/24/2014  00:23:00      -31.734     -105.973        4.401       23.904       37.846       20.412      571.410     1432.352      416.662        0.734        0.121      110.622       19.353        0.031      336.403        7.681      865.753
03/24/2014  00:24:00      -25.910      -75.525       -0.218       31.173       25.114       24.615      971.757      630.712      605.902        0.429        0.110       79.846       16.895        0.045      336.528        7.891      865.766
03/24/2014  00:25:00      -58.405       -9.969        2.007       38.540       27.423       13.907     1485.310      752.003      193.418        0.297        0.122       59.250       13.933        0.055      336.374        7.634      865.768
03/24/2014  00:26:00      -64.779      -74.715       -4.052       37.729       26.235       17.505     1423.492      688.274      306.436        0.611        0.121       98.887       13.565        0.019      336.272        7.462      865.764
03/24/2014  00:27:00      -72.026      -66.315        3.524       39.304       32.614       23.946     1544.799     1063.646      573.403        0.639        0.159       97.905       17.058        0.030      336.217        7.371      865.766
03/24/2014  00:28:00      -73.769      -70.777       -0.355       41.505       41.308       23.545     1722.667     1706.325      554.375        0.722        0.199      102.231       23.253        0.052      336.201        7.342      865.757
03/24/2014  00:29:00      -59.976      -46.705        7.776       49.534       36.561       26.577     2453.574     1336.708      706.338        0.517        0.225       76.016       27.424        0.130      336.067        7.120      865.758
03/24/2014  00:30:00     -119.110      -76.269        0.039       41.606       27.982       23.652     1731.074      783.020      559.409        1.154        0.154      141.436       20.459        0.021      336.022        7.043      865.756
03/24/2014  00:31:00     -149.986      -64.565      -12.535       29.582       28.326       19.136      875.116      802.383      366.169        1.443        0.102      163.292       13.615        0.007      336.036        7.067      865.745
03/24/2014  00:32:00     -152.472      -43.639       -0.567       53.417       30.544       26.292     2853.397      932.908      691.259        1.481        0.224      158.595       29.260        0.034      335.975        6.966      865.729
03/24/2014  00:33:00     -160.883      -78.472       -4.320       35.108       30.033       23.843     1232.563      902.008      568.498        1.738        0.135      179.000       13.739        0.006      335.881        6.809      865.721
03/24/2014  00:34:00      -89.036      -64.960        2.635       55.413       38.736       28.923     3070.600     1500.464      836.560        0.878        0.270      110.214       23.778        0.047      335.872        6.795      865.742
03/24/2014  00:35:00      -76.187      -61.944       -2.030       49.045       35.687       21.536     2405.412     1273.532      463.813        0.689        0.207       98.191       21.252        0.047      335.843        6.748      865.757
03/24/2014  00:36:00     -109.686      -62.352       -9.467       25.114       20.843       20.322      630.707      434.427      412.995        0.874        0.074      126.169       14.692        0.014      335.811        6.693      865.769
03/24/2014  00:37:00      -88.905      -43.682       -4.759       32.704       26.871       14.278     1069.523      722.050      203.871        0.591        0.100       99.056       13.782        0.019      335.806        6.685      865.783
03/24/2014  00:38:00      -99.265      -44.129      -13.501       13.868       25.481       12.853      192.310      649.295      165.209        0.649        0.050      108.633        8.102        0.006      335.847        6.753      865.812
03/24/2014  00:39:00      -52.525      -48.051        0.377       46.783       21.690       26.253     2188.614      470.461      689.230        0.421        0.167       71.188       25.164        0.125      335.893        6.830      865.816
03/24/2014  00:40:00      -57.446      -51.966        8.504       39.466       31.219       20.857     1557.529      974.600      435.032        0.452        0.148       77.463       18.184        0.055      335.954        6.931      865.824
03/24/2014  00:41:00      -45.422      -35.569       10.296       37.567       21.713       18.402     1411.264      471.446      338.637        0.283        0.111       57.691       17.575        0.093      335.951        6.925      865.835
03/24/2014  00:42:00      -79.848      -45.444       -4.740       28.556       19.275       12.358      815.436      371.535      152.710        0.490        0.067       91.874        8.888        0.009      335.885        6.816      865.836
03/24/2014  00:43:00     -108.501      -44.681       -7.293       18.643       19.931       13.258      347.561      397.237      175.768        0.737        0.046      117.341        8.087        0.005      335.911        6.859      865.832
03/24/2014  00:44:00      -90.255      -47.123      -10.359       35.017       25.605       18.041     1226.179      655.609      325.481        0.634        0.110      101.816       17.827        0.031      335.875        6.798      865.824
03/24/2014  00:45:00     -117.454      -41.818       -8.572       17.177       16.454       13.008      295.048      270.748      169.215        0.818        0.037      124.677       11.464        0.008      335.797        6.671      865.833
03/24/2014  00:46:00     -110.987      -37.156       -3.795       19.573       18.488       15.634      383.107      341.810      244.407        0.734        0.048      117.041       13.068        0.012      335.820        6.709      865.834
03/24/2014  00:47:00     -125.056      -63.568       -3.913       29.617       21.162       20.041      877.145      447.841      401.638        1.071        0.086      140.285       18.078        0.017      335.782        6.644      865.826
03/24/2014  00:48:00     -138.497      -57.523       -3.622       33.407       25.273       20.132     1116.031      638.707      405.282        1.233        0.108      149.967       18.877        0.016      335.688        6.489      865.818
03/24/2014  00:49:00     -136.318      -50.265       -3.200       22.713       25.006       17.948      515.886      625.290      322.128        1.129        0.073      145.290       11.276        0.006      335.676        6.469      865.814
03/24/2014  00:50:00      -94.042      -39.800       -2.064       27.847       28.980       19.466      775.428      839.860      378.923        0.621        0.100      102.118       15.583        0.023      335.668        6.455      865.831
03/24/2014  00:51:00      -69.185      -25.020       -6.650       16.806       13.713       12.834      282.432      188.043      164.703        0.305        0.032       73.570        7.792        0.011      335.614        6.367      865.841
03/24/2014  00:52:00      -76.900      -40.631       -5.623       18.214       13.178       11.760      331.750      173.671      138.305        0.412        0.032       86.974        9.475        0.012      335.682        6.480      865.828
03/24/2014  00:53:00      -28.676      -31.025       11.293       32.260       26.485       18.569     1040.715      701.481      344.804        0.200        0.104       42.248       17.680        0.175      335.702        6.512      865.824
03/24/2014  00:54:00      -59.834      -29.166       -1.549       41.163       16.841       15.849     1694.433      283.608      251.181        0.333        0.111       66.564       19.951        0.090      335.615        6.368      865.818
03/24/2014  00:55:00      -86.580      -21.444      -11.354       14.824       21.139       12.562      219.760      446.861      157.812        0.445        0.041       89.196        7.761        0.008      335.672        6.462      865.829
03/24/2014  00:56:00      -92.313      -44.956       -1.102       21.959       26.290       14.358      482.219      691.188      206.161        0.596        0.069      102.678       11.395        0.012      335.636        6.402      865.813
03/24/2014  00:57:00     -115.471      -50.951       -7.278       23.267       22.361       14.586      541.356      500.000      212.752        0.862        0.063      126.212       12.063        0.009      335.562        6.279      865.802
03/24/2014  00:58:00     -110.649      -34.900      -12.440       20.014       28.879       13.445      400.576      833.973      180.755        0.752        0.071      116.022        8.768        0.006      335.585        6.317      865.795
03/24/2014  00:59:00      -79.169      -48.908      -11.343       31.816       21.989       18.142     1012.238      483.532      329.134        0.531        0.091       93.058       14.371        0.024      335.496        6.166      865.792
03/24/2014  01:00:00      -87.092      -62.562       -8.728       28.679       19.614       12.994      822.511      384.691      168.835        0.648        0.069      107.233       11.338        0.011      335.406        6.017      865.800
03/24/2014  01:01:00      -71.955      -24.234       -4.798       26.654       20.880       13.160      710.417      435.955      173.181        0.355        0.066       75.926        9.063        0.014      335.368        5.953      865.815
03/24/2014  01:02:00      -61.178      -23.312      -11.694       20.694       17.448       16.477      428.236      304.422      271.499        0.271        0.050       65.469       11.910        0.033      335.352        5.928      865.817
03/24/2014  01:03:00      -83.483      -30.883      -12.523       23.902       15.198       10.059      571.297      230.972      101.177        0.449        0.045       89.013        6.224        0.005      335.322        5.879      865.817
03/24/2014  01:04:00     -122.008      -40.679      -12.105       13.318       11.940        8.459      177.371      142.571       71.554        0.854        0.020      128.611        5.383        0.002      335.314        5.864      865.825
03/24/2014  01:05:00     -112.835      -50.008       -8.294       17.244       13.672       11.431      297.363      186.930      130.664        0.796        0.031      123.420       11.244        0.008      335.388        5.988      865.814
03/24/2014  01:06:00      -58.709      -40.329        0.130       32.239       19.416       15.130     1039.365      376.968      228.904        0.336        0.082       71.227       13.525        0.036      335.434        6.064      865.805
03/24/2014  01:07:00      -91.065      -51.585       -5.085       25.604       20.304       17.296      655.547      412.258      299.161        0.617        0.068      104.660       15.842        0.023      335.454        6.097      865.799
03/24/2014  01:08:00     -103.878      -49.952        2.251       26.374       17.424       13.553      695.570      303.611      183.687        0.724        0.059      115.264       13.333        0.013      335.443        6.081      865.788
03/24/2014  01:09:00      -91.215      -41.497        3.164       30.130       20.608       18.949      907.802      424.670      359.064        0.587        0.085      100.211       19.106        0.036      335.456        6.102      865.781
03/24/2014  01:10:00     -100.509      -38.595      -11.513       24.570       13.056       11.583      603.698      170.466      134.158        0.632        0.045      107.664       13.890        0.017      335.458        6.104      865.786
03/24/2014  01:11:00     -126.200      -44.513      -12.924       14.245       13.286        8.696      202.922      176.525       75.623        0.926        0.023      133.820        3.761        0.001      335.484        6.149      865.779
03/24/2014  01:12:00     -110.789      -36.452       -7.113       21.480       16.240       14.181      461.399      263.730      201.096        0.729        0.046      116.632       10.123        0.008      335.464        6.114      865.771
03/24/2014  01:13:00     -126.374      -46.157      -15.681        8.038       13.450        7.256       64.612      180.911       52.651        0.932        0.015      134.540        3.414        0.001      335.399        6.007      865.780
03/24/2014  01:14:00     -129.498      -62.508      -13.162       21.507       14.701       11.715      462.567      216.126      137.251        1.083        0.041      143.795        7.174        0.002      335.362        5.945      865.782
03/24/2014  01:15:00      -81.686      -44.980        3.399       51.859       26.028       22.421     2689.388      677.481      502.697        0.629        0.193       93.252       21.067        0.051      335.392        5.996      865.801
03/24/2014  01:16:00      -58.896      -36.617       12.902       48.719       24.435       24.926     2373.522      597.071      621.324        0.428        0.180       69.351       26.686        0.148      335.498        6.172      865.815
03/24/2014  01:17:00      -29.409      -42.675        9.522       41.472       50.325       23.830     1719.924     2532.581      567.847        0.380        0.241       51.827       24.477        0.223      335.436        6.067      865.828
03/24/2014  01:18:00     -127.051     -103.446       -5.434       53.866       52.851       26.010     2901.528     2793.214      676.510        1.662        0.319      163.838       19.946        0.015      335.361        5.942      865.843
03/24/2014  01:19:00     -131.585      -89.113       -1.766       52.062       55.090       30.745     2710.444     3034.932      945.264        1.597        0.335      158.921       26.474        0.028      335.288        5.822      865.835
03/24/2014  01:20:00     -145.750      -95.173      -10.708       34.106       32.850       26.100     1163.248     1079.101      681.217        1.667        0.146      174.072       20.980        0.015      335.304        5.847      865.830
03/24/2014  01:21:00     -117.676      -91.947       -4.338       42.427       33.379       23.809     1800.047     1114.160      566.889        1.290        0.174      149.338       21.287        0.020      335.329        5.888      865.816
03/24/2014  01:22:00      -95.306      -72.671       -3.417       25.448       32.360       19.656      647.588     1047.142      386.370        0.823        0.104      119.851       10.144        0.007      335.370        5.957      865.802
03/24/2014  01:23:00      -68.518      -61.742       12.216       56.262       34.399       27.324     3165.429     1183.293      746.614        0.687        0.255       92.233       34.615        0.141      335.418        6.038      865.801
03/24/2014  01:24:00      -87.688      -51.852       -2.512       30.665       24.084       22.211      940.354      580.051      493.331        0.620        0.101      101.871       19.548        0.037      335.361        5.941      865.790
03/24/2014  01:25:00     -110.128      -23.456      -11.251       22.744       19.015       12.102      517.303      361.588      146.450        0.691        0.051      112.598        8.218        0.005      335.369        5.957      865.782
03/24/2014  01:26:00      -89.684      -10.563       -3.929       29.862       20.990       18.676      891.737      440.592      348.783        0.493        0.084       90.304       18.782        0.043      335.304        5.847      865.771
03/24/2014  01:27:00     -113.498      -10.927       -6.234       45.185       25.601       20.778     2041.662      655.420      431.743        0.808        0.156      114.023       25.129        0.049      335.167        5.620      865.758
03/24/2014  01:28:00      -95.126      -16.582       -2.127       35.861       25.580       23.425     1285.985      654.331      548.713        0.591        0.124       96.561       22.840        0.056      335.055        5.434      865.750
03/24/2014  01:29:00      -76.651      -20.353        0.974       33.375       19.572       14.766     1113.884      383.047      218.045        0.400        0.086       79.307       14.193        0.032      335.042        5.414      865.750
03/24/2014  01:30:00     -100.388      -31.340       -2.404       22.069       24.361       16.005      487.019      593.476      256.176        0.620        0.067      105.166       13.546        0.017      335.050        5.428      865.763
03/24/2014  01:31:00      -92.114      -57.690       -9.693       22.962       21.364       14.379      527.244      456.412      206.746        0.655        0.060      108.689       10.950        0.010      335.074        5.466      865.770
03/24/2014  01:32:00      -79.918      -44.889       -6.671       17.328       19.530       15.139      300.245      381.431      229.177        0.468        0.046       91.662       10.875        0.014      335.082        5.480      865.794
03/24/2014  01:33:00      -78.770      -26.533       -4.450       13.357       15.410        9.996      178.421      237.458       99.918        0.372        0.026       83.119        6.783        0.007      335.121        5.543      865.803
03/24/2014  01:34:00      -62.445      -26.434        0.509       16.006       14.429       12.057      256.181      208.197      145.373        0.260        0.030       67.809        8.002        0.014      335.128        5.556      865.809
03/24/2014  01:35:00      -43.543      -26.754       -1.752       22.639       23.832       14.386      512.530      567.955      206.949        0.195        0.064       51.106       12.612        0.061      335.196        5.669      865.826
03/24/2014  01:36:00      -67.860      -10.248       -6.738       14.440       14.256       11.481      208.502      203.223      131.813        0.265        0.027       68.629        8.591        0.016      335.215        5.698      865.819
03/24/2014  01:37:00      -98.626       -0.338      -14.285       11.211        9.272        8.935      125.681       85.962       79.831        0.511        0.015       98.627        5.906        0.004      335.159        5.606      865.814
03/24/2014  01:38:00      -82.322      -16.374       -9.503       20.209       14.092        6.967      408.405      198.572       48.536        0.390        0.033       83.934        6.767        0.007      335.156        5.603      865.804
03/24/2014  01:39:00      -42.069      -24.737      -11.165       24.027       17.019        9.508      577.285      289.663       90.407        0.173        0.048       48.803        8.868        0.033      335.161        5.612      865.803
03/24/2014  01:40:00      -26.359      -20.935       -1.975       18.997        9.211        9.487      360.883       84.846       90.009        0.084        0.027       33.661        6.989        0.043      335.160        5.610      865.809
03/24/2014  01:41:00      -38.040      -26.053        3.980       31.198       14.390       17.996      973.299      207.061      323.846        0.182        0.075       46.106       17.942        0.151      335.102        5.515      865.811
03/24/2014  01:42:00      -61.243      -29.517      -11.708       22.028       15.098       15.690      485.247      227.964      246.177        0.286        0.048       67.985       11.525        0.029      335.013        5.365      865.791
03/24/2014  01:43:00      -21.063      -21.316       -2.722       24.868       13.743       11.651      618.416      188.877      135.750        0.092        0.047       29.967        7.014        0.055      334.931        5.229      865.789
03/24/2014  01:44:00      -54.231      -22.907       -9.510       27.337       13.950       12.253      747.319      194.593      150.131        0.232        0.055       58.870       12.746        0.047      334.867        5.122      865.782
03/24/2014  01:45:00        0.604      -20.524        2.018       17.016       14.438       13.666      289.535      208.448      186.755        0.056        0.034       20.533        9.243        0.203      334.855        5.102      865.792
03/24/2014  01:46:00        8.503      -25.982        4.479       25.447       13.396       17.454      647.532      179.446      304.647        0.095        0.057       27.338        7.150        0.068      334.821        5.047      865.804
03/24/2014  01:47:00      -73.296       -9.904      -12.232       16.386        9.735       10.015      268.506       94.773      100.296        0.304        0.023       73.962        9.513        0.017      334.672        4.799      865.798
03/24/2014  01:48:00      -95.873        0.328       -7.888       16.304       13.964        9.111      265.811      194.990       83.011        0.490        0.027       95.873        5.189        0.003      334.721        4.881      865.777
03/24/2014  01:49:00      -89.494      -19.432       -6.718       21.844       15.784       14.443      477.162      249.139      208.608        0.468        0.047       91.579       11.670        0.016      334.755        4.938      865.782
03/24/2014  01:50:00      -80.640      -29.589       -3.368       12.319       12.656        9.269      151.749      160.180       85.918        0.389        0.020       85.897        4.963        0.003      334.699        4.845      865.797
03/24/2014  01:51:00      -76.491      -27.828       -7.656       13.755       12.840        7.000      189.203      164.855       49.005        0.354        0.020       81.396        3.665        0.002      334.763        4.951      865.811
03/24/2014  01:52:00      -80.200      -24.372       -4.034       32.502       16.628       14.730     1056.383      276.480      216.985        0.430        0.077       83.821       14.652        0.031      334.900        5.179      865.819
03/24/2014  01:53:00      -84.535      -31.860       -9.532       15.777       16.426       10.270      248.929      269.798      105.476        0.444        0.031       90.340        6.602        0.005      334.854        5.102      865.820
03/24/2014  01:54:00      -40.730      -20.982        9.988       31.496       17.393       17.867      992.015      302.532      319.231        0.191        0.081       45.816       18.679        0.166      334.768        4.959      865.816
03/24/2014  01:55:00      -64.750      -32.758        1.460       23.274       13.572       12.524      541.694      184.207      156.859        0.308        0.044       72.565       11.904        0.027      334.824        5.051      865.807
03/24/2014  01:56:00      -82.166      -20.677       -3.751       16.159       17.281       11.659      261.124      298.640      135.924        0.394        0.035       84.728        8.092        0.009      334.838        5.076      865.799
03/24/2014  01:57:00      -73.879      -18.945       -1.334       21.394       17.397       13.978      457.715      302.668      195.394        0.339        0.048       76.270       11.242        0.022      334.803        5.016      865.787
03/24/2014  01:58:00     -103.388      -14.675      -11.917       20.051       16.124       17.240      402.036      259.979      297.209        0.600        0.048      104.425       13.962        0.018      334.755        4.937      865.779
03/24/2014  01:59:00     -113.570      -17.622      -13.160       17.825       12.123       12.821      317.737      146.956      164.386        0.701        0.031      114.929       11.033        0.009      334.669        4.794      865.784
03/24/2014  02:00:00      -92.140      -18.685       -7.646       19.433       24.010       15.348      377.655      576.465      235.566        0.504        0.059       94.015       11.402        0.015      334.613        4.701      865.790
03/24/2014  02:01:00      -95.284      -17.988      -10.120       21.457       16.006       12.385      460.396      256.181      153.393        0.519        0.043       96.967       13.013        0.018      334.456        4.442      865.794
03/24/2014  02:02:00      -97.047       -9.484      -15.331       17.275       17.873       14.184      298.417      319.437      201.176        0.528        0.041       97.510       10.339        0.011      334.488        4.494      865.800
03/24/2014  02:03:00      -92.766      -10.042      -13.167       32.088       13.709       14.963     1029.637      187.938      223.888        0.516        0.072       93.308       13.013        0.019      334.439        4.414      865.809
03/24/2014  02:04:00     -110.931      -16.515      -13.769       17.145       13.583       15.321      293.953      184.491      234.729        0.674        0.036      112.153       13.209        0.014      334.479        4.477      865.815
03/24/2014  02:05:00      -79.951      -17.623       -7.954       26.102       26.313       18.011      681.311      692.358      324.411        0.423        0.085       81.870       15.326        0.035      334.462        4.451      865.807
03/24/2014  02:06:00      -70.597        9.218       -8.260       30.145       18.971       15.873      908.731      359.884      251.940        0.333        0.076       71.197       12.283        0.030      334.520        4.546      865.794
03/24/2014  02:07:00      -66.162        9.419      -14.496       17.304       15.554       12.353      299.432      241.917      152.605        0.269        0.035       66.829        9.837        0.022      334.646        4.757      865.795
03/24/2014  02:08:00      -58.262       -7.816      -12.176       19.448       19.069       16.924      378.218      363.636      286.426        0.232        0.051       58.784       10.612        0.033      334.596        4.673      865.794
03/24/2014  02:09:00      -66.964      -29.989       -5.332       18.779       19.004       15.843      352.634      361.167      251.012        0.319        0.048       73.372       12.045        0.027      334.521        4.547      865.791
03/24/2014  02:10:00      -76.109      -28.899       -9.331       31.298       22.889       12.968      979.560      523.900      168.161        0.419        0.084       81.411       11.978        0.022      334.488        4.492      865.805
03/24/2014  02:11:00      -72.157      -22.725       -8.880       20.693       25.297       16.596      428.203      639.946      275.438        0.357        0.067       75.651        7.831        0.011      334.518        4.545      865.814
03/24/2014  02:12:00      -97.882      -30.885      -12.386       37.245       23.650       15.852     1387.207      559.315      251.288        0.644        0.110      102.639       15.842        0.024      334.446        4.425      865.817
03/24/2014  02:13:00     -111.383      -15.268      -12.809       32.720       28.292       20.493     1070.575      800.416      419.969        0.755        0.115      112.425       17.524        0.024      334.357        4.277      865.815
03/24/2014  02:14:00      -77.077      -25.375       -6.447       19.742       16.811       15.755      389.741      282.604      248.207        0.377        0.046       81.147       11.092        0.019      334.305        4.190      865.813
03/24/2014  02:15:00      -68.977      -20.952       -7.424       32.578       30.658       20.960     1061.329      939.907      439.330        0.385        0.122       72.089       14.851        0.042      334.333        4.236      865.812
03/24/2014  02:16:00      -61.796      -13.812       -9.731       32.761       28.687       17.093     1073.266      822.970      292.159        0.315        0.109       63.321       16.057        0.064      334.304        4.189      865.814
03/24/2014  02:17:00      -82.701      -32.379       -5.937       29.479       17.078       21.852      868.989      291.674      477.489        0.478        0.082       88.814       16.573        0.035      334.400        4.348      865.817
03/24/2014  02:18:00      -25.089      -35.084       -1.138       37.931       23.609       13.751     1438.756      557.365      189.087        0.202        0.109       43.132        8.339        0.037      334.396        4.342      865.808
03/24/2014  02:19:00       -8.231      -12.171        1.796       28.153       21.339       15.282      792.572      455.366      233.551        0.085        0.074       14.693       14.138        0.926      334.454        4.437      865.803
03/24/2014  02:20:00      -32.421      -34.723        0.846       30.592       17.546       17.411      935.843      307.851      303.133        0.190        0.077       47.506       12.637        0.071      334.357        4.277      865.798
03/24/2014  02:21:00      -21.107      -26.931        1.168       21.833       25.849       18.407      476.659      668.194      338.813        0.133        0.074       34.216       15.077        0.194      334.410        4.366      865.783
03/24/2014  02:22:00      -26.431      -26.173       -5.328       37.993       21.890       18.133     1443.483      479.174      328.809        0.183        0.113       37.197       17.296        0.216      334.447        4.428      865.788
03/24/2014  02:23:00      -83.897      -40.388      -12.004       12.716       12.906       12.432      161.692      166.554      154.543        0.465        0.024       93.113        6.649        0.005      334.505        4.521      865.779
03/24/2014  02:24:00      -95.231      -41.175      -10.263       20.461       23.309       13.170      418.635      543.287      173.436        0.600        0.057      103.751       10.594        0.010      334.651        4.764      865.776
03/24/2014  02:25:00     -110.750      -40.340      -13.134       13.857       15.287       11.199      192.017      233.703      125.419        0.731        0.028      117.868        7.565        0.004      334.711        4.864      865.782
03/24/2014  02:26:00      -93.502      -41.620      -13.763       11.185       10.333        8.199      125.113      106.780       67.228        0.548        0.015      102.347        4.419        0.002      334.714        4.869      865.770
03/24/2014  02:27:00      -82.128      -41.546      -11.597       13.434       15.315        9.129      180.481      234.540       83.334        0.455        0.025       92.039        5.449        0.004      334.706        4.856      865.761
03/24/2014  02:28:00      -94.079      -41.131      -10.116       14.358       17.169       10.681      206.162      294.788      114.076        0.563        0.031      102.677        7.346        0.005      334.795        5.004      865.762
03/24/2014  02:29:00      -83.582      -22.159       -6.905       13.457       14.247        9.823      181.082      202.964       96.496        0.400        0.024       86.470        7.351        0.007      334.861        5.113      865.753
03/24/2014  02:30:00      -60.502      -27.005      -14.112       12.689        7.010        7.312      161.006       49.144       53.471        0.243        0.013       66.255        4.444        0.004      334.867        5.124      865.757
03/24/2014  02:31:00      -62.048      -19.080      -13.541        7.830        7.685        6.821       61.310       59.066       46.526        0.228        0.008       64.915        3.946        0.004      334.841        5.081      865.764
03/24/2014  02:32:00      -66.029      -26.170       -4.033       16.961       11.457       11.393      287.681      131.267      129.798        0.280        0.027       71.026        9.453        0.018      334.746        4.922      865.768
03/24/2014  02:33:00      -27.465      -26.070        0.513       18.705       12.382       13.280      349.871      153.305      176.368        0.106        0.034       37.868        8.686        0.053      334.757        4.941      865.768
03/24/2014  02:34:00      -57.545      -27.532       -4.022       15.792        9.373       11.668      249.400       87.859      136.153        0.228        0.024       63.792       11.395        0.032      334.652        4.766      865.768
03/24/2014  02:35:00      -75.131      -33.370      -15.104        7.501        8.723        6.514       56.262       76.095       42.438        0.358        0.009       82.208        3.878        0.002      334.665        4.787      865.767
03/24/2014  02:36:00      -82.111      -27.753      -12.751        9.475       10.762        7.569       89.767      115.824       57.286        0.397        0.013       86.674        4.036        0.002      334.591        4.665      865.758
03/24/2014  02:37:00      -90.491      -28.544      -11.188       10.617       11.393        9.834      112.718      129.791       96.705        0.473        0.017       94.886        5.209        0.003      334.574        4.635      865.759
03/24/2014  02:38:00     -100.743      -28.845       -9.692       14.348       13.185        9.002      205.873      173.849       81.027        0.577        0.023      104.791        4.907        0.002      334.614        4.702      865.759
03/24/2014  02:39:00     -112.142      -17.759      -12.766       11.263       10.168        9.903      126.861      103.391       98.073        0.669        0.016      113.540        4.769        0.002      334.593        4.668      865.748
03/24/2014  02:40:00     -112.284      -14.697      -15.269       12.687       10.226       11.301      160.965      104.573      127.715        0.672        0.020      113.241        3.785        0.001      334.614        4.702      865.742
03/24/2014  02:41:00      -98.900      -11.222      -14.276       14.476       13.945       10.205      209.561      194.460      104.151        0.531        0.025       99.535        7.008        0.005      334.526        4.558      865.733
03/24/2014  02:42:00      -98.727      -23.904      -10.739       16.250       13.036       11.128      264.058      169.945      123.830        0.550        0.028      101.579        9.186        0.008      334.487        4.492      865.732
03/24/2014  02:43:00     -101.244      -22.652      -19.262       19.678       15.154       10.838      387.218      229.648      117.459        0.593        0.037      103.747       10.825        0.011      334.396        4.341      865.732
03/24/2014  02:44:00     -103.432      -25.493      -18.231       10.301       10.864        9.191      106.103      118.036       84.476        0.599        0.015      106.528        4.076        0.001      334.455        4.439      865.725
03/24/2014  02:45:00      -97.299      -25.846      -17.648       13.947       17.310        9.733      194.514      299.645       94.733        0.552        0.029      100.673        5.932        0.003      334.280        4.149      865.718
03/24/2014  02:46:00      -93.490      -50.841      -11.093       28.403       23.093       14.463      806.722      533.306      209.183        0.650        0.077      106.420        6.706        0.004      334.271        4.135      865.712
03/24/2014  02:47:00     -110.155      -41.288       -8.086       27.477       23.233       14.616      754.983      539.793      213.628        0.771        0.075      117.638        8.892        0.006      334.278        4.145      865.711
03/24/2014  02:48:00      -69.343      -52.574       -2.685       32.995       21.483       17.898     1088.653      461.532      320.351        0.472        0.094       87.020       14.933        0.029      334.302        4.185      865.705
03/24/2014  02:49:00      -83.883      -39.014       -8.559       38.310       26.043       16.685     1467.649      678.238      278.383        0.553        0.121       92.512       13.516        0.021      334.286        4.159      865.708
03/24/2014  02:50:00      -53.826      -24.153       -1.708       26.008       22.591       14.306      676.425      510.347      204.661        0.244        0.070       58.997       12.644        0.046      334.306        4.191      865.708
03/24/2014  02:51:00      -23.455      -27.210        6.196       26.411       15.063       14.231      697.552      226.885      202.525        0.123        0.056       35.923       17.198        0.229      334.422        4.385      865.710
03/24/2014  02:52:00      -76.523      -35.623      -10.332       20.162       16.073       11.716      406.509      258.331      137.255        0.402        0.040       84.408        5.241        0.004      334.410        4.366      865.704
03/24/2014  02:53:00      -75.970      -44.618      -18.283       18.443       17.073       13.418      340.153      291.470      180.055        0.445        0.041       88.103        6.988        0.006      334.490        4.496      865.696
03/24/2014  02:54:00      -79.924      -42.801      -11.921       36.837       23.458       21.263     1356.937      550.272      452.131        0.536        0.118       90.663       19.370        0.046      334.412        4.367      865.687
03/24/2014  02:55:00     -101.581      -24.593       -2.840       45.030       38.708       22.627     2027.680     1498.301      511.994        0.748        0.202      104.516       18.219        0.030      334.444        4.420      865.692
03/24/2014  02:56:00      -52.852        1.867       -2.016       36.354       32.960       20.463     1321.579     1086.391      418.743        0.281        0.141       52.885        8.854        0.028      334.587        4.657      865.694
03/24/2014  02:57:00      -59.898      -10.327        0.141       29.752       29.365       18.082      885.199      862.286      326.948        0.288        0.104       60.782       16.768        0.076      334.715        4.871      865.697
03/24/2014  02:58:00      -98.495      -12.408       -6.507       35.862       33.834       20.431     1286.116     1144.771      417.422        0.637        0.142       99.274       12.126        0.015      334.869        5.126      865.698
03/24/2014  02:59:00     -143.290       14.344       -7.629       38.071       35.381       21.013     1449.370     1251.786      441.543        1.197        0.157      144.007       17.203        0.014      334.882        5.148      865.700
03/24/2014  03:00:00     -106.168      -25.371       -3.167       40.349       32.875       18.606     1628.019     1080.734      346.183        0.749        0.153      109.157       17.096        0.025      334.804        5.018      865.704
03/24/2014  03:01:00      -68.699      -28.866        3.232       34.015       28.455       22.439     1156.988      809.671      503.501        0.402        0.124       74.517       16.570        0.049      334.743        4.918      865.696
03/24/2014  03:02:00      -89.040      -28.876       -8.095       29.151       26.242       14.175      849.752      688.655      200.932        0.528        0.087       93.605       11.734        0.016      334.718        4.875      865.689
03/24/2014  03:03:00      -52.889      -27.597       -0.789       30.089       27.082       19.202      905.342      733.446      368.701        0.278        0.100       59.656       14.119        0.056      334.628        4.726      865.684
03/24/2014  03:04:00      -72.426      -23.557       -9.730       37.114       20.191       13.066     1377.426      407.667      170.727        0.393        0.098       76.160       11.800        0.024      334.653        4.767      865.680
03/24/2014  03:05:00      -87.968      -16.827       -7.184       38.954       17.827       19.083     1517.445      317.802      364.176        0.514        0.110       89.563       20.509        0.052      334.590        4.662      865.679
03/24/2014  03:06:00      -66.569      -28.870       -8.789       26.577       20.206       15.558      706.356      408.290      242.057        0.335        0.068       72.559       11.756        0.026      334.485        4.488      865.676
03/24/2014  03:07:00      -23.101      -38.996        0.752       20.155       16.362       11.887      406.214      267.716      141.302        0.143        0.041       45.325       10.071        0.049      334.469        4.462      865.677
03/24/2014  03:08:00       -5.345      -23.563       -1.180       20.734       15.405       11.047      429.911      237.312      122.029        0.069        0.039       24.161        9.923        0.169      334.683        4.817      865.674
03/24/2014  03:09:00      -48.306      -36.537        0.744       23.607       24.222       19.789      557.297      586.695      391.611        0.260        0.077       60.567       16.704        0.076      334.412        4.368      865.677
03/24/2014  03:10:00      -93.610      -37.320      -14.841       20.546       15.185        9.883      422.131      230.574       97.666        0.556        0.038      100.775        9.952        0.010      334.461        4.449      865.674
03/24/2014  03:11:00     -110.130      -26.347      -13.426       13.549       16.176        9.432      183.582      261.678       88.954        0.677        0.027      113.238        7.679        0.005      334.500        4.515      865.663
03/24/2014  03:12:00      -95.915      -31.567      -13.020       19.615       15.154       11.660      384.736      229.658      135.957        0.556        0.038      100.976        9.812        0.009      334.561        4.615      865.645
03/24/2014  03:13:00      -77.915      -35.949       -8.075       22.288       13.370        7.804      496.768      178.757       60.910        0.408        0.037       85.809        7.423        0.007      334.518        4.544      865.655
03/24/2014  03:14:00      -67.439      -33.531       -1.401       19.249       15.323       12.317      370.512      234.803      151.700        0.322        0.038       75.315       10.262        0.019      334.481        4.483      865.662
03/24/2014  03:15:00      -45.035      -26.736        1.072       28.401       11.946       11.803      806.595      142.700      139.318        0.192        0.054       52.374       14.409        0.076      334.510        4.530      865.659
03/24/2014  03:16:00      -75.516      -28.561       -8.448       12.471        9.626        7.697      155.516       92.669       59.241        0.345        0.015       80.737        2.554        0.001      334.511        4.533      865.662
03/24/2014  03:17:00      -23.384      -26.378        3.150       24.196       12.357       13.213      585.440      152.707      174.578        0.108        0.046       35.250       13.177        0.140      334.571        4.632      865.656
03/24/2014  03:18:00      -35.444      -19.492        9.544       24.939       16.648       13.678      621.968      277.148      187.088        0.141        0.054       40.450       13.324        0.108      334.550        4.597      865.655
03/24/2014  03:19:00      -23.218      -13.429        1.896       20.674       10.099        8.866      427.430      101.999       78.599        0.067        0.030       26.821       11.257        0.176      334.465        4.456      865.668
03/24/2014  03:20:00      -22.495      -26.189        5.421       14.666       14.587        9.565      215.099      212.789       91.490        0.087        0.026       34.524        7.495        0.047      334.652        4.767      865.678
03/24/2014  03:21:00      -57.457      -27.984       -0.146       29.271       10.916       14.309      856.785      119.155      204.759        0.263        0.059       63.909       19.231        0.091      334.546        4.590      865.685
03/24/2014  03:22:00      -95.232      -41.588      -11.797       11.746       10.826        7.967      137.971      117.207       63.469        0.563        0.016      103.917        5.066        0.002      334.422        4.383      865.688
03/24/2014  03:23:00      -80.990      -48.522      -13.162       16.505       13.317       12.054      272.404      177.344      145.307        0.484        0.030       94.413        7.068        0.006      334.313        4.205      865.690
03/24/2014  03:24:00      -84.168      -45.918      -10.207       10.395       10.233        7.412      108.061      104.707       54.943        0.478        0.013       95.878        4.097        0.002      334.311        4.200      865.703
03/24/2014  03:25:00      -75.487      -44.901       -6.859       17.697       15.674       10.785      313.184      245.687      116.311        0.422        0.034       87.832        5.674        0.004      334.309        4.199      865.721
03/24/2014  03:26:00      -46.064      -35.249       -1.979       18.274       15.271       13.397      333.933      233.201      179.490        0.206        0.037       58.004        9.799        0.029      334.366        4.291      865.722
03/24/2014  03:27:00      -59.318      -33.302       -9.270       17.602       13.327       10.795      309.833      177.616      116.535        0.266        0.030       68.027        7.860        0.013      334.308        4.196      865.723
03/24/2014  03:28:00      -82.166      -52.688       -4.619       22.213       20.689       15.499      493.405      428.048      240.228        0.536        0.058       97.608        7.622        0.006      334.331        4.234      865.720
03/24/2014  03:29:00      -92.799      -46.409       -7.693        9.975        9.886        6.411       99.497       97.727       41.104        0.553        0.012      103.756        3.729        0.001      334.320        4.217      865.716
03/24/2014  03:30:00     -103.774      -39.934       -9.572        9.633       11.690        7.264       92.802      136.664       52.765        0.637        0.014      111.193        2.809        0.001      334.247        4.095      865.720
03/24/2014  03:31:00     -103.545      -51.340       -7.960       17.129       10.232       10.366      293.398      104.692      107.444        0.696        0.025      115.574        7.733        0.004      334.207        4.026      865.722
03/24/2014  03:32:00      -93.320      -44.232       -9.512       11.715       14.540       10.519      137.230      211.400      110.657        0.561        0.023      103.272        6.259        0.004      334.170        3.966      865.722
03/24/2014  03:33:00     -100.703      -37.115      -13.241       13.877       11.394        7.520      192.562      129.827       56.544        0.604        0.019      107.325        5.067        0.002      334.202        4.018      865.731
03/24/2014  03:34:00     -110.183      -18.579       -4.401       33.445       18.556       17.609     1118.559      344.309      310.070        0.714        0.089      111.739       18.148        0.026      334.139        3.914      865.730
03/24/2014  03:35:00     -132.326      -14.591      -17.867       14.097       12.550        8.993      198.734      157.490       80.877        0.924        0.022      133.128        5.994        0.002      334.129        3.899      865.727
03/24/2014  03:36:00      -99.521      -16.633      -13.387       15.848       13.372       10.261      251.168      178.799      105.281        0.545        0.027      100.901        6.775        0.005      334.280        4.150      865.726
03/24/2014  03:37:00      -82.268      -22.946      -12.535        9.156       12.251        6.751       83.824      150.094       45.571        0.387        0.014       85.408        4.105        0.002      334.409        4.363      865.718
03/24/2014  03:38:00      -93.870      -18.342      -13.586       13.838       10.779        6.046      191.486      116.194       36.553        0.484        0.017       95.646        3.525        0.001      334.421        4.382      865.726
03/24/2014  03:39:00      -69.636      -29.289      -16.457       13.111       21.481       12.389      171.905      461.413      153.478        0.338        0.039       75.544        7.493        0.010      334.325        4.222      865.727
03/24/2014  03:40:00      -29.816      -26.131        6.253       23.984       16.710       14.500      575.225      279.228      210.244        0.134        0.053       39.646        7.054        0.032      334.175        3.975      865.728
03/24/2014  03:41:00      -67.956      -32.003      -14.152       15.537       17.687       10.537      241.405      312.831      111.023        0.325        0.033       75.115       10.699        0.020      334.236        4.076      865.728
03/24/2014  03:42:00      -93.200      -35.673      -14.280       13.990       17.805       14.536      195.707      317.008      211.301        0.544        0.036       99.794        8.348        0.007      334.004        3.692      865.731
03/24/2014  03:43:00     -114.237      -26.782      -19.560       31.628       23.526       19.197     1000.345      553.480      368.538        0.804        0.096      117.334       16.781        0.020      333.878        3.482      865.733
03/24/2014  03:44:00      -96.671      -12.029      -16.735       19.192       16.288       13.051      368.348      265.292      170.325        0.529        0.040       97.416        9.363        0.009      333.906        3.528      865.736
03/24/2014  03:45:00      -79.981      -11.848      -13.566       14.527       16.095       12.296      211.046      259.057      151.185        0.367        0.031       80.854        6.580        0.007      333.973        3.639      865.736
03/24/2014  03:46:00      -88.355       -4.343      -15.487       12.369       11.592        9.361      153.003      134.372       87.623        0.422        0.019       88.462        5.842        0.004      333.988        3.664      865.730
03/24/2014  03:47:00      -96.143      -13.694      -15.716       11.108       13.693        9.913      123.388      187.508       98.269        0.504        0.020       97.113        7.326        0.006      333.950        3.602      865.731
03/24/2014  03:48:00     -108.379       -4.351      -18.021       12.104        9.851        7.793      146.498       97.040       60.725        0.620        0.015      108.467        5.098        0.002      333.958        3.616      865.728
03/24/2014  03:49:00     -117.812       -2.251      -18.573       14.131       10.473       10.260      199.690      109.684      105.262        0.732        0.021      117.833        6.710        0.003      333.905        3.527      865.733
03/24/2014  03:50:00     -118.334       -9.325      -14.545       15.378       13.770       10.330      236.492      189.602      106.719        0.742        0.027      118.701        7.517        0.004      333.929        3.567      865.738
03/24/2014  03:51:00     -131.861       -6.492      -21.060       12.735       12.174        9.302      162.181      148.203       86.530        0.913        0.020      132.021        7.380        0.003      333.917        3.546      865.741
03/24/2014  03:52:00     -119.086      -10.416      -17.163       15.274       11.216        8.781      233.304      125.796       77.099        0.751        0.022      119.541        7.367        0.004      333.904        3.525      865.739
03/24/2014  03:53:00     -104.046      -20.058      -11.816       16.410       14.721        9.636      269.302      216.712       92.844        0.597        0.029      105.961        6.987        0.004      333.969        3.633      865.754
03/24/2014  03:54:00     -122.939      -36.339      -11.864       25.819       16.100       11.357      666.603      259.198      128.993        0.881        0.053      128.197        2.672        0.000      333.980        3.651      865.752
03/24/2014  03:55:00      -86.972      -30.172       -3.594       29.307       16.850       15.559      858.900      283.932      242.073        0.494        0.069       92.057       16.580        0.032      334.003        3.689      865.752
03/24/2014  03:56:00      -74.520      -24.485       -1.770       27.786       16.164       19.091      772.045      261.280      364.475        0.378        0.070       78.440       18.783        0.057      333.995        3.675      865.752
03/24/2014  03:57:00      -86.487      -30.038       -9.587       12.481       13.843        9.882      155.778      191.631       97.660        0.446        0.022       91.555        3.232        0.001      334.016        3.711      865.753
03/24/2014  03:58:00      -82.406      -40.655      -13.378        8.548       10.158        8.111       73.060      103.190       65.787        0.443        0.012       91.889        4.541        0.002      334.046        3.761      865.754
03/24/2014  03:59:00      -82.684      -42.516      -12.123        8.210        8.877        7.228       67.405       78.806       52.241        0.449        0.010       92.974        3.392        0.001      334.056        3.777      865.735
03/24/2014  04:00:00      -78.432      -34.943      -14.006       12.237        8.480        8.012      149.739       71.912       64.198        0.393        0.014       85.864        4.621        0.003      333.965        3.628      865.720
03/24/2014  04:01:00      -99.588      -40.570      -13.494       13.238        9.902        9.512      175.240       98.044       90.469        0.605        0.018      107.535        5.150        0.002      333.885        3.493      865.715
03/24/2014  04:02:00      -92.210      -48.482        3.693       18.754       15.832       13.767      351.718      250.660      189.538        0.583        0.040      104.178       11.393        0.012      333.860        3.451      865.709
03/24/2014  04:03:00      -88.932      -43.710       -0.496       16.927       11.064       12.315      286.534      122.422      151.657        0.519        0.028       99.093       10.599        0.011      333.944        3.591      865.702
03/24/2014  04:04:00      -73.987      -44.391       -0.011       22.576       15.445       12.709      509.681      238.548      161.514        0.418        0.045       86.282        9.250        0.011      333.946        3.595      865.695
03/24/2014  04:05:00      -74.981      -51.766      -11.743       12.764       16.185       10.367      162.914      261.955      107.483        0.449        0.027       91.115        7.668        0.007      334.067        3.795      865.708
03/24/2014  04:06:00      -97.481      -45.322       -7.414       15.196       15.011        9.561      230.926      225.319       91.409        0.608        0.027      107.501        4.110        0.001      334.094        3.840      865.696
03/24/2014  04:07:00      -85.109      -47.703       -3.318       16.195       13.963       11.747      262.294      194.966      137.992        0.506        0.030       97.567        9.691        0.010      334.059        3.782      865.679
03/24/2014  04:08:00      -90.788      -35.724       -4.979       18.677       15.406       12.785      348.823      237.355      163.450        0.515        0.037       97.563       12.633        0.017      334.073        3.805      865.671
03/24/2014  04:09:00     -102.182      -14.315      -10.856       21.915       14.513       13.720      480.284      210.618      188.245        0.582        0.044      103.180       10.826        0.011      333.972        3.639      865.665
03/24/2014  04:10:00     -135.590      -16.637      -16.730       13.514       13.382       11.687      182.622      179.066      136.594        0.972        0.025      136.607        8.085        0.004      333.999        3.682      865.666
03/24/2014  04:11:00     -106.702      -23.880      -19.269       19.795       14.242        9.045      391.841      202.845       81.808        0.650        0.034      109.341        6.651        0.004      334.067        3.797      865.658
03/24/2014  04:12:00      -83.132      -37.893      -14.242       22.406       10.978       10.101      502.039      120.512      102.022        0.464        0.036       91.360        7.832        0.007      334.041        3.754      865.655
03/24/2014  04:13:00      -91.351      -38.231      -13.883       14.111       14.731       11.298      199.129      217.017      127.636        0.527        0.027       99.028        6.586        0.004      333.893        3.508      865.655
03/24/2014  04:14:00      -89.913      -31.442       -4.966       19.247       19.734       13.659      370.442      389.412      186.571        0.502        0.047       95.252        9.415        0.010      333.837        3.414      865.657
03/24/2014  04:15:00     -108.482      -36.206       -9.809       11.773       12.106        7.751      138.595      146.547       60.079        0.676        0.017      114.364        5.990        0.003      333.886        3.497      865.653
03/24/2014  04:16:00     -124.474      -22.133      -14.270       18.014       14.118       11.554      324.491      199.328      133.502        0.842        0.033      126.426        5.894        0.002      333.944        3.592      865.647
03/24/2014  04:17:00     -128.638      -12.625      -11.740       26.877       14.176       14.355      722.369      200.967      206.053        0.899        0.056      129.256       12.529        0.009      333.826        3.394      865.652
03/24/2014  04:18:00     -114.803      -26.427       -7.305       29.527       18.238       16.491      871.873      332.634      271.939        0.770        0.074      117.805       14.646        0.015      333.847        3.429      865.662
03/24/2014  04:19:00     -114.303      -28.443       -8.082       20.067       14.932       11.342      402.691      222.956      128.650        0.735        0.038      117.788       10.647        0.008      333.725        3.228      865.666
03/24/2014  04:20:00     -102.762      -32.398       -9.723       14.882       14.545       11.726      221.475      211.544      137.509        0.614        0.029      107.749        8.448        0.006      333.650        3.103      865.669
03/24/2014  04:21:00     -123.873      -29.287      -18.677       16.094       12.486        8.703      259.005      155.891       75.751        0.852        0.025      127.288        5.662        0.002      333.825        3.393      865.670
03/24/2014  04:22:00     -130.598      -36.301      -18.211       15.125       17.214        9.398      228.767      296.326       88.326        0.966        0.031      135.549        7.538        0.003      333.913        3.540      865.678
03/24/2014  04:23:00     -140.950      -39.726      -17.268       12.129       15.951        8.588      147.103      254.438       73.754        1.111        0.024      146.441        5.492        0.001      333.790        3.335      865.671
03/24/2014  04:24:00     -140.228      -43.915      -22.962       19.668       19.622       11.823      386.812      385.016      139.772        1.152        0.046      146.944       10.232        0.005      333.783        3.324      865.672
03/24/2014  04:25:00      -80.219      -47.566       -2.583       39.436       26.692       17.486     1555.194      712.478      305.746        0.564        0.129       93.261       18.074        0.038      333.692        3.173      865.678
03/24/2014  04:26:00      -95.454      -40.998       -3.486       29.327       33.838       17.758      860.071     1144.977      315.350        0.656        0.116      103.886       15.917        0.023      333.685        3.161      865.695
03/24/2014  04:27:00      -71.254      -37.517       -3.193       30.976       23.773       17.313      959.486      565.158      299.729        0.416        0.091       80.528       15.306        0.036      333.677        3.149      865.703
03/24/2014  04:28:00      -61.549      -39.044       -0.982       33.456       24.949       21.730     1119.306      622.435      472.187        0.376        0.111       72.888       17.312        0.056      333.691        3.171      865.709
03/24/2014  04:29:00      -53.586      -29.765        1.490       43.620       27.302       21.607     1902.671      745.422      466.867        0.344        0.156       61.298       21.403        0.122      333.756        3.279      865.706
03/24/2014  04:30:00      -98.082      -19.472       -0.477       43.028       35.399       19.271     1851.396     1253.098      371.373        0.674        0.174       99.996       14.387        0.021      333.710        3.203      865.709
03/24/2014  04:31:00      -79.503      -31.185       -0.912       28.580       33.875       17.869      816.793     1147.526      319.314        0.479        0.114       85.400       15.200        0.032      333.676        3.146      865.716
03/24/2014  04:32:00      -61.101      -34.060       -9.269       19.725       22.834       13.700      389.065      521.394      187.690        0.304        0.055       69.953       10.492        0.022      333.774        3.308      865.736
03/24/2014  04:33:00      -55.982      -30.438       -7.630       24.930       25.723       17.138      621.523      661.667      293.696        0.285        0.079       63.721        8.119        0.016      333.725        3.228      865.752
03/24/2014  04:34:00      -85.072      -35.098      -15.677       22.257       21.701       21.528      495.393      470.934      463.456        0.507        0.071       92.027       17.470        0.036      333.750        3.270      865.757
03/24/2014  04:35:00      -69.689      -39.621       -0.716       24.304       28.928       26.192      590.676      836.814      686.011        0.427        0.106       80.165       18.883        0.055      333.718        3.216      865.756
03/24/2014  04:36:00     -114.694      -22.905      -16.301       23.725       20.108       16.646      562.885      404.340      277.075        0.759        0.062      116.959       13.069        0.012      333.696        3.180      865.744
03/24/2014  04:37:00     -114.377      -24.633      -20.120       16.143       18.387       16.913      260.612      338.064      286.061        0.749        0.044      116.999       11.913        0.010      333.682        3.157      865.740
03/24/2014  04:38:00     -111.579      -41.254      -14.856       20.294       17.069       15.288      411.862      291.352      233.719        0.765        0.047      118.962       10.781        0.008      333.698        3.183      865.730
03/24/2014  04:39:00     -107.597      -33.205       -3.200       18.684       19.520       15.992      349.074      381.026      255.732        0.684        0.049      112.604        7.248        0.004      333.668        3.134      865.719
03/24/2014  04:40:00      -89.849      -40.813      -13.394       28.258       26.884       17.042      798.489      722.772      290.421        0.586        0.091       98.685       11.087        0.013      333.639        3.087      865.717
03/24/2014  04:41:00      -95.073      -28.292      -17.347       30.500       22.340       14.972      930.236      499.087      224.164        0.590        0.083       99.194       10.216        0.011      333.641        3.089      865.717
03/24/2014  04:42:00      -78.909      -24.073      -11.077       37.596       19.392       14.638     1413.431      376.050      214.275        0.447        0.100       82.499        8.577        0.011      333.724        3.226      865.722
03/24/2014  04:43:00     -105.659      -35.337      -18.467       23.746       15.053       15.663      563.870      226.582      245.334        0.689        0.052      111.412        9.946        0.008      333.678        3.151      865.722
03/24/2014  04:44:00      -78.131      -46.901      -14.502       19.193       17.607       21.015      368.377      309.996      441.645        0.482        0.056       91.127       12.506        0.019      333.703        3.192      865.713
03/24/2014  04:45:00      -74.763      -42.826      -23.725       27.092       17.320       18.058      733.974      299.972      326.084        0.467        0.068       86.160       11.577        0.018      333.761        3.288      865.713
03/24/2014  04:46:00      -65.838      -23.095      -11.271       31.220       27.039       22.208      974.697      731.085      493.188        0.360        0.110       69.771       18.579        0.071      333.731        3.238      865.716
03/24/2014  04:47:00      -81.079      -52.115      -15.159       30.536       26.382       15.730      932.420      696.024      247.436        0.570        0.094       96.384       10.550        0.012      333.630        3.070      865.711
03/24/2014  04:48:00      -65.677      -29.862        1.326       28.351       22.184       17.147      803.753      492.128      294.027        0.340        0.079       72.147       15.086        0.044      333.636        3.081      865.715
03/24/2014  04:49:00      -81.746      -19.384       -5.919       57.119       18.504       15.912     3262.636      342.394      253.197        0.548        0.193       84.013       13.100        0.024      333.627        3.066      865.732
03/24/2014  04:50:00      -91.211      -30.697       -9.812       37.316       27.058       19.168     1392.486      732.162      367.407        0.592        0.125       96.238       12.289        0.016      333.653        3.107      865.738
03/24/2014  04:51:00      -88.322      -36.674      -14.102       26.249       27.128       16.691      688.999      735.940      278.584        0.552        0.085       95.634       11.534        0.015      333.596        3.015      865.733
03/24/2014  04:52:00     -111.258      -38.128      -17.458       24.722       21.000       14.436      611.174      440.999      208.386        0.770        0.063      117.610        9.290        0.006      333.603        3.025      865.736
03/24/2014  04:53:00      -51.374      -43.146       -8.490       39.611       25.286       21.971     1569.042      639.358      482.739        0.363        0.135       67.089       19.952        0.088      333.654        3.111      865.734
03/24/2014  04:54:00      -76.482      -35.902       -2.319       23.397       27.538       16.485      547.423      758.314      271.764        0.436        0.079       84.489       14.234        0.028      333.632        3.074      865.730
03/24/2014  04:55:00      -93.878      -10.001      -10.110       24.863       25.794       17.147      618.192      665.344      294.015        0.530        0.079       94.409       11.330        0.014      333.670        3.138      865.725
03/24/2014  04:56:00      -89.386      -23.568      -12.344       30.991       21.302       16.078      960.457      453.773      258.487        0.518        0.084       92.441        8.330        0.008      333.629        3.069      865.723
03/24/2014  04:57:00      -93.234      -28.447       -9.679       59.013       26.910       20.422     3482.534      724.170      417.067        0.711        0.231       97.478       26.353        0.073      333.668        3.131      865.724
03/24/2014  04:58:00      -53.470      -35.932      -15.220       34.295       21.333       20.906     1176.122      455.100      437.073        0.322        0.103       64.422       18.182        0.080      333.590        3.003      865.730
03/24/2014  04:59:00      -22.339      -30.149        9.478       35.395       20.923       23.339     1252.811      437.762      544.704        0.187        0.112       37.523       20.830        0.308      333.547        2.932      865.735
03/24/2014  05:00:00     -112.558      -30.472       -5.307       21.243       20.009       15.734      451.282      400.348      247.560        0.736        0.055      116.609       11.968        0.011      333.560        2.954      865.736
03/24/2014  05:01:00     -105.208      -30.613      -11.270       14.832       14.813       12.094      219.991      219.430      146.254        0.636        0.029      109.571        3.161        0.001      333.547        2.932      865.727
03/24/2014  05:02:00      -93.674      -44.868      -13.745       15.460       13.223       11.972      239.010      174.841      143.334        0.577        0.028      103.865        6.182        0.004      333.523        2.893      865.712
03/24/2014  05:03:00     -110.495      -54.333       -9.335       16.219       21.964       13.224      263.071      482.427      174.874        0.808        0.046      123.131        7.747        0.004      333.533        2.910      865.701
03/24/2014  05:04:00     -127.376      -38.980      -16.399       12.220       14.912       10.770      149.320      222.368      115.993        0.925        0.024      133.207        4.785        0.001      333.519        2.887      865.696
03/24/2014  05:05:00      -93.397      -35.591       -0.122       29.383       21.606       15.312      863.367      466.840      234.452        0.578        0.078       99.949       13.466        0.018      333.438        2.752      865.703
03/24/2014  05:06:00      -96.060      -33.160        3.205       30.569       27.452       19.396      934.489      753.588      376.217        0.620        0.103      101.622       19.108        0.035      333.366        2.633      865.706
03/24/2014  05:07:00     -101.366      -26.999        0.033       31.380       20.601       18.163      984.678      424.384      329.879        0.637        0.087      104.900       17.752        0.029      333.365        2.632      865.711
03/24/2014  05:08:00     -109.318      -51.273       -4.831       18.442       16.600       12.228      340.121      275.547      149.532        0.768        0.038      120.745       11.365        0.009      333.436        2.748      865.718
03/24/2014  05:09:00     -105.059      -60.346       -6.506       20.822       15.599       12.601      433.573      243.320      158.776        0.778        0.042      121.157       12.303        0.010      333.437        2.750      865.719
03/24/2014  05:10:00     -104.710      -48.649       -7.106       15.611       14.987       12.037      243.713      224.599      144.883        0.700        0.031      115.459        7.507        0.004      333.432        2.742      865.729
03/24/2014  05:11:00     -104.564      -43.147      -13.013       14.489       18.128       12.207      209.934      328.625      149.022        0.683        0.034      113.116        5.835        0.003      333.316        2.552      865.737
03/24/2014  05:12:00      -99.969      -69.048      -10.824       16.459       16.763       12.522      270.909      281.002      156.797        0.779        0.035      121.497        5.680        0.002      333.360        2.623      865.743
03/24/2014  05:13:00      -86.706      -58.845      -10.260       28.313       22.024       20.139      801.632      485.069      405.579        0.639        0.085      104.789       15.892        0.023      333.365        2.633      865.751
03/24/2014  05:14:00     -115.118      -51.389       -8.822       20.482       13.977       16.297      419.513      195.344      265.586        0.843        0.044      126.067       11.248        0.008      333.379        2.655      865.756
03/24/2014  05:15:00     -112.904      -50.106      -14.909       15.413       16.287       13.365      237.556      265.265      178.616        0.808        0.034      123.523        6.400        0.003      333.380        2.657      865.765
03/24/2014  05:16:00      -95.525      -61.699      -11.769       13.019       21.151       10.639      169.493      447.356      113.184        0.690        0.037      113.718        6.188        0.003      333.366        2.635      865.774
03/24/2014  05:17:00      -69.822      -76.106       -1.393       29.481       19.237       21.640      869.135      370.058      468.271        0.619        0.085      103.283       18.793        0.033      333.417        2.719      865.775
03/24/2014  05:18:00      -35.912      -42.795       -1.483       38.053       16.991       20.343     1448.047      288.701      413.849        0.264        0.108       55.867       21.268        0.145      333.415        2.714      865.782
03/24/2014  05:19:00      -18.127      -28.604       -0.168       28.416       23.325       12.902      807.463      544.057      166.467        0.133        0.076       33.864        9.471        0.078      333.464        2.795      865.785
03/24/2014  05:20:00        0.736      -14.915        2.715       18.882       19.690       13.321      356.530      387.678      177.441        0.058        0.046       14.934        7.811        0.274      333.455        2.779      865.797
03/24/2014  05:21:00      -34.538      -42.913        1.109       40.154       22.291       22.622     1612.373      496.898      511.775        0.283        0.131       55.085       26.721        0.235      333.400        2.691      865.804
03/24/2014  05:22:00      -81.506      -43.753      -14.783       21.038       20.738       21.895      442.577      430.070      479.401        0.506        0.068       92.507       15.652        0.029      333.396        2.682      865.802
03/24/2014  05:23:00      -91.480      -32.046       -9.905       17.885       16.972       12.036      319.882      288.050      144.855        0.512        0.038       96.930       10.608        0.012      333.410        2.705      865.798
03/24/2014  05:24:00      -95.496      -37.723      -15.751       13.885       10.292        8.739      192.797      105.926       76.372        0.558        0.019      102.677        6.013        0.003      333.455        2.778      865.798
03/24/2014  05:25:00      -80.980      -36.293      -12.058       11.933       11.985        9.683      142.400      143.632       93.769        0.420        0.019       88.740        5.664        0.004      333.488        2.833      865.805
03/24/2014  05:26:00      -50.996      -35.072       -2.055       12.872       18.668       10.975      165.683      348.480      120.454        0.223        0.032       61.892        8.697        0.020      333.538        2.916      865.812
03/24/2014  05:27:00      -83.558       -3.482       -9.551       22.357       16.308       13.155      499.816      265.952      173.044        0.401        0.047       83.631       11.787        0.020      333.518        2.885      865.814
03/24/2014  05:28:00      -86.057      -12.798       -9.168       10.354       18.531        8.828      107.210      343.396       77.941        0.409        0.026       87.003        4.067        0.002      333.603        3.025      865.813
03/24/2014  05:29:00      -70.131      -22.063       -6.322       19.093       15.007       11.837      364.535      225.223      140.126        0.309        0.036       73.519       11.336        0.024      333.545        2.928      865.806
03/24/2014  05:30:00      -79.381      -32.993       -7.836        8.408       12.380        8.919       70.702      153.273       79.551        0.388        0.015       85.964        4.472        0.003      333.512        2.874      865.797
03/24/2014  05:31:00      -87.734      -23.072       -9.026        9.252       12.803        7.990       85.591      163.917       63.843        0.431        0.016       90.717        3.941        0.002      333.549        2.935      865.792
03/24/2014  05:32:00      -94.894      -26.416       -9.557       12.337       16.725        8.586      152.200      279.719       73.723        0.515        0.025       98.503        4.302        0.002      333.557        2.950      865.794
03/24/2014  05:33:00      -96.255      -17.794       -4.903       21.331       18.818       14.315      455.012      354.102      204.906        0.531        0.051       97.886       10.017        0.010      333.576        2.981      865.790
03/24/2014  05:34:00      -80.166      -24.735        6.044       36.591       19.654       17.111     1338.926      386.272      292.772        0.455        0.101       83.895       18.331        0.048      333.469        2.803      865.791
03/24/2014  05:35:00     -105.856      -22.735        2.024       30.795       18.052       16.316      948.322      325.877      266.227        0.663        0.077      108.270       14.575        0.018      333.405        2.697      865.797
03/24/2014  05:36:00     -100.753      -35.540       -2.734       29.570       27.523       14.726      874.380      757.531      216.863        0.663        0.092      106.838       11.310        0.011      333.288        2.504      865.801
03/24/2014  05:37:00     -104.160      -10.080       -7.523       35.250       24.488       16.933     1242.563      599.647      286.716        0.657        0.106      104.647       14.448        0.019      333.239        2.423      865.810
03/24/2014  05:38:00     -106.530       -0.067       -1.751       42.663       25.380       21.960     1820.118      644.126      482.242        0.715        0.147      106.530       23.112        0.047      333.269        2.474      865.811
03/24/2014  05:39:00     -105.985      -28.753       -1.107       38.145       27.815       20.454     1455.048      773.702      418.358        0.735        0.132      109.816       22.236        0.041      333.184        2.332      865.810
03/24/2014  05:40:00     -123.086      -19.809       -6.506       29.728       20.589       15.160      883.734      423.927      229.817        0.856        0.077      124.670       13.642        0.012      333.214        2.382      865.814
03/24/2014  05:41:00     -108.784      -27.760       -9.144       26.222       31.376       18.709      687.594      984.463      350.036        0.735        0.101      112.270       11.212        0.010      333.192        2.344      865.816
03/24/2014  05:42:00     -128.148      -33.908       -3.011       22.091       16.228       15.131      488.002      263.335      228.958        0.928        0.049      132.558       14.193        0.011      333.220        2.391      865.815
03/24/2014  05:43:00     -140.288      -30.020      -15.944       12.282       12.683       10.714      150.840      160.856      114.780        1.063        0.021      143.464        5.466        0.001      333.200        2.358      865.819
03/24/2014  05:44:00     -121.488      -46.721      -13.204       18.193       21.234       13.525      330.973      450.876      182.918        0.904        0.048      130.162       10.571        0.007      333.146        2.269      865.826
03/24/2014  05:45:00     -127.614      -58.422      -11.032       20.868       16.387       16.206      435.475      268.546      262.633        1.039        0.048      140.351       14.068        0.010      333.147        2.271      865.827
03/24/2014  05:46:00     -128.773      -51.909      -15.001       22.697       22.720       13.701      515.163      516.181      187.714        1.036        0.061      138.842        6.343        0.002      333.159        2.291      865.829
03/24/2014  05:47:00     -132.309      -29.913       -9.996       26.832       27.948       19.009      719.960      781.085      361.325        1.018        0.093      135.648       19.291        0.020      333.136        2.254      865.831
03/24/2014  05:48:00     -118.463      -49.634      -12.315       23.477       15.526       13.361      551.179      241.045      178.516        0.881        0.049      128.441       11.154        0.008      333.156        2.286      865.832
03/24/2014  05:49:00     -108.958      -37.862       -4.841       26.393       22.101       14.636      696.584      488.441      214.205        0.736        0.070      115.349       13.089        0.013      333.137        2.254      865.839
03/24/2014  05:50:00      -95.448      -15.677       -5.934       28.199       17.994       15.306      795.210      323.795      234.267        0.537        0.068       96.727       13.111        0.018      333.030        2.078      865.844
03/24/2014  05:51:00      -94.255      -22.106       -7.338       20.155       17.196       17.496      406.221      295.704      306.112        0.522        0.050       96.813       15.020        0.024      332.979        1.994      865.856
03/24/2014  05:52:00      -95.623      -10.424      -14.657       16.038       14.934        9.702      257.206      223.023       94.138        0.502        0.029       96.190        4.661        0.002      332.979        1.993      865.866
03/24/2014  05:53:00      -92.332      -21.706      -13.402       23.087       12.667       13.760      533.018      160.461      189.351        0.503        0.044       94.849        6.924        0.005      333.074        2.152      865.877
03/24/2014  05:54:00     -103.368      -24.709      -14.642       14.575       24.657       10.333      212.420      607.985      106.761        0.622        0.046      106.280        3.958        0.001      333.066        2.136      865.882
03/24/2014  05:55:00     -102.779      -15.994      -11.516       25.649       15.718       18.387      657.848      247.049      338.064        0.610        0.062      104.016       11.990        0.013      332.966        1.973      865.896
03/24/2014  05:56:00      -85.505      -15.120      -10.215       19.145       13.570       10.826      366.537      184.146      117.211        0.416        0.033       86.832        8.408        0.009      332.961        1.964      865.910
03/24/2014  05:57:00      -80.003       -9.838      -13.376       14.532       11.334        8.817      211.184      128.461       77.743        0.355        0.021       80.606        6.193        0.006      332.982        1.999      865.936
03/24/2014  05:58:00      -62.909      -22.153      -14.400        7.857        8.540        6.583       61.726       72.925       43.337        0.242        0.009       66.695        3.095        0.002      332.947        1.940      865.951
03/24/2014  05:59:00      -36.196      -28.005        4.576       42.192       19.893       22.068     1780.192      395.714      486.986        0.239        0.133       45.765       21.193        0.214      333.048        2.108      865.961
03/24/2014  06:00:00     -108.580      -58.324      -15.166       22.316       19.822       16.947      497.983      392.922      287.209        0.830        0.059      123.253        8.369        0.005      332.947        1.942      865.976
03/24/2014  06:01:00     -141.587      -52.090      -15.342       22.259       18.921       13.028      495.477      358.004      169.738        1.201        0.051      150.865        7.476        0.002      332.896        1.859      865.979
03/24/2014  06:02:00      -98.652      -32.757       -4.758       31.132       21.507       19.082      969.170      462.546      364.118        0.631        0.090      103.948       18.000        0.030      332.989        2.011      865.987
03/24/2014  06:03:00      -77.187      -47.081      -10.440       20.656       16.988       12.449      426.663      288.586      154.987        0.458        0.044       90.413        9.334        0.011      333.022        2.065      865.997
03/24/2014  06:04:00      -78.122      -29.175       -7.337       10.257       12.010        7.781      105.203      144.246       60.536        0.366        0.015       83.392        1.034        0.000      333.064        2.134      866.008
03/24/2014  06:05:00      -68.920      -11.462      -13.317        8.033        9.380        7.273       64.530       87.976       52.895        0.263        0.010       69.866        1.822        0.001      333.186        2.334      866.009
03/24/2014  06:06:00      -73.312      -34.385       -5.305       14.020       17.357        9.855      196.555      301.280       97.115        0.359        0.030       80.975        8.009        0.010      333.226        2.402      866.008
03/24/2014  06:07:00      -64.585      -54.724        0.449       29.687       23.692       20.946      881.340      561.312      438.744        0.452        0.094       84.652       17.507        0.043      333.313        2.546      866.009
03/24/2014  06:08:00      -68.584      -51.728        1.412       33.147       21.124       20.141     1098.748      446.227      405.667        0.467        0.098       85.905       21.841        0.065      333.324        2.563      866.015
03/24/2014  06:09:00      -66.598      -34.319        0.126       30.063       26.030       17.497      903.803      677.582      306.128        0.375        0.094       74.921       14.557        0.038      333.223        2.396      866.012
03/24/2014  06:10:00      -54.664      -20.236        0.692       35.842       14.863       15.598     1284.631      220.912      243.305        0.257        0.087       58.289       17.314        0.088      333.242        2.428      866.004
03/24/2014  06:11:00      -78.353      -40.848       -0.694       27.021       15.105       15.663      730.161      228.164      245.336        0.451        0.060       88.361       15.766        0.032      333.203        2.364      866.019
03/24/2014  06:12:00      -49.486      -32.873        4.142       31.806       17.235       15.187     1011.619      297.040      230.635        0.254        0.077       59.410        7.866        0.018      333.165        2.300      866.027
03/24/2014  06:13:00      -52.972      -50.922        2.982       32.492       28.364       17.072     1055.725      804.514      291.468        0.378        0.108       73.478       16.195        0.049      333.192        2.346      866.032
03/24/2014  06:14:00      -99.329      -74.135       -9.393       42.157       33.866       22.919     1777.226     1146.905      525.287        0.945        0.172      123.944       19.734        0.025      333.277        2.485      866.029
03/24/2014  06:15:00     -115.496      -85.362       -1.291       64.437       40.133       27.498     4152.134     1610.628      756.138        1.357        0.326      143.618       27.262        0.036      333.281        2.493      866.040
03/24/2014  06:16:00     -104.723      -88.310        0.482       63.059       54.208       28.701     3976.389     2938.457      823.746        1.325        0.387      136.987       31.200        0.052      333.261        2.459      866.044
03/24/2014  06:17:00     -101.230     -101.266       10.417       59.180       40.140       36.836     3502.308     1611.253     1356.897        1.354        0.324      143.186       34.369        0.058      333.265        2.467      866.048
03/24/2014  06:18:00     -132.470      -91.982       -1.223       67.590       37.623       29.867     4568.419     1415.475      892.026        1.644        0.344      161.273       31.999        0.039      333.197        2.353      866.049
03/24/2014  06:19:00     -118.292      -47.919       -0.475       41.136       50.039       24.678     1692.162     2503.864      608.980        1.055        0.240      127.629       21.887        0.029      333.101        2.196      866.062
03/24/2014  06:20:00     -113.930      -61.974        3.390       52.911       39.482       25.053     2799.598     1558.805      627.677        1.091        0.249      129.695       26.224        0.041      333.022        2.065      866.064
03/24/2014  06:21:00     -140.516      -44.620       -1.724       35.495       34.221       20.748     1259.915     1171.090      430.468        1.230        0.143      147.430       21.883        0.022      332.933        1.920      866.059
03/24/2014  06:22:00     -147.503      -31.021       -3.092       37.739       26.616       21.560     1424.246      708.410      464.845        1.266        0.130      150.729       20.333        0.018      332.802        1.701      866.054
03/24/2014  06:23:00     -160.017      -41.502       -3.182       47.755       35.457       27.574     2280.572     1257.227      760.304        1.582        0.215      165.312       25.741        0.024      332.878        1.826      866.055
03/24/2014  06:24:00     -137.869      -48.291       -5.572       51.106       31.036       23.501     2611.797      963.202      552.299        1.275        0.206      146.082       21.435        0.022      332.951        1.947      866.051
03/24/2014  06:25:00     -107.021      -32.640       -7.038       30.173       24.486       19.540      910.396      599.563      381.815        0.723        0.095      111.888       16.530        0.022      332.919        1.896      866.053
03/24/2014  06:26:00     -116.294      -20.503      -12.649       33.512       20.958       19.874     1123.040      439.234      394.975        0.803        0.098      118.088       17.839        0.023      332.837        1.759      866.059
03/24/2014  06:27:00      -74.031      -45.089       -7.598       36.660       22.533       19.310     1343.948      507.715      372.881        0.490        0.111       86.681       12.115        0.020      332.839        1.763      866.059
03/24/2014  06:28:00      -94.633      -47.153        1.272       32.757       29.627       14.808     1073.002      877.739      219.282        0.667        0.109      105.730       14.572        0.019      332.906        1.874      866.053
03/24/2014  06:29:00      -94.409      -41.810       -0.847       24.744       24.958       15.484      612.273      622.878      239.763        0.607        0.074      103.252       13.026        0.016      332.898        1.861      866.058
03/24/2014  06:30:00     -122.947      -22.483      -12.862       23.916       18.009       14.098      571.978      324.308      198.763        0.844        0.055      124.986       10.830        0.008      332.811        1.718      866.067
03/24/2014  06:31:00     -109.837      -28.721       -4.777       30.409       23.799       16.664      924.738      566.376      277.691        0.734        0.088      113.530       17.834        0.025      332.733        1.589      866.076
03/24/2014  06:32:00      -64.634      -26.585        6.006       31.228       26.111       16.257      975.189      681.810      264.289        0.342        0.096       69.888       16.937        0.059      332.810        1.715      866.090
03/24/2014  06:33:00      -53.194      -43.121       -1.364       26.422       21.333       17.171      698.144      455.106      294.831        0.307        0.072       68.476       15.835        0.053      333.025        2.068      866.105
03/24/2014  06:34:00      -57.220      -23.281       -3.413       30.963       19.758       16.170      958.703      390.383      261.470        0.272        0.081       61.775       17.975        0.085      333.034        2.086      866.114
03/24/2014  06:35:00      -74.602      -11.065      -11.818       11.296       18.424       12.245      127.598      339.427      149.939        0.322        0.031       75.418        9.292        0.015      333.174        2.314      866.110
03/24/2014  06:36:00      -89.501       15.034      -11.293        8.459        7.736        7.691       71.549       59.844       59.151        0.428        0.010       90.755        3.604        0.002      333.041        2.095      866.114
03/24/2014  06:37:00     -106.946        9.594      -15.075       13.196       11.612        9.595      174.147      134.848       92.057        0.608        0.020      107.376        5.173        0.002      332.912        1.885      866.114
03/24/2014  06:38:00     -102.632      -13.209      -10.218       18.593       17.588       10.217      345.711      309.344      104.395        0.579        0.038      103.478        7.436        0.005      332.874        1.822      866.116
03/24/2014  06:39:00     -102.313      -16.661      -12.540       17.676       14.319       15.105      312.438      205.026      228.174        0.582        0.037      103.661       12.254        0.014      332.796        1.692      866.133
03/24/2014  06:40:00      -91.113      -32.890      -11.684       14.398       19.199       14.041      207.308      368.597      197.139        0.515        0.039       96.868       11.386        0.014      332.744        1.607      866.140
03/24/2014  06:41:00      -67.659      -47.276      -12.791       18.018       16.009       15.812      324.656      256.287      250.032        0.390        0.042       82.539        9.756        0.014      332.723        1.571      866.138
03/24/2014  06:42:00      -82.498      -44.042      -10.089       22.760       16.492       12.542      518.002      271.974      157.300        0.490        0.047       93.518       10.382        0.012      332.701        1.537      866.141
03/24/2014  06:43:00     -110.270      -48.306       -6.568       22.012       17.541       15.982      484.513      307.692      255.418        0.779        0.052      120.387       11.543        0.009      332.644        1.440      866.155
03/24/2014  06:44:00     -129.401      -47.290       -7.208       22.196       17.785       14.589      492.649      316.296      212.847        1.003        0.051      137.772       11.810        0.007      332.712        1.554      866.168
03/24/2014  06:45:00      -86.113      -39.764      -11.523       20.596       18.331       13.530      424.181      336.041      183.063        0.504        0.047       94.851        7.481        0.006      332.725        1.574      866.163
03/24/2014  06:46:00      -80.935      -26.587      -10.737       20.529       18.631       11.156      421.442      347.127      124.465        0.413        0.045       85.190        6.220        0.005      332.737        1.595      866.150
03/24/2014  06:47:00      -90.051      -46.573       -5.384       17.681       21.158       14.858      312.611      447.648      220.774        0.564        0.049      101.381       11.318        0.012      332.742        1.604      866.140
03/24/2014  06:48:00      -74.055      -62.782       -2.052       27.091       16.532       15.828      733.938      273.300      250.541        0.534        0.063       97.087       14.068        0.021      332.843        1.771      866.147
03/24/2014  06:49:00      -74.282      -44.644       -4.038       21.216       27.413       12.172      450.114      751.457      148.162        0.444        0.067       86.665        9.626        0.012      332.911        1.882      866.144
03/24/2014  06:50:00      -82.007      -32.075      -11.007       13.233       15.580        9.915      175.112      242.741       98.303        0.420        0.026       88.057        7.250        0.007      332.884        1.838      866.136
03/24/2014  06:51:00      -63.474      -37.554        2.927       29.249       15.493       13.169      855.516      240.022      173.430        0.336        0.063       73.751       13.440        0.033      332.880        1.832      866.141
03/24/2014  06:52:00      -87.918      -35.232       -1.973       19.432       17.935       11.216      377.589      321.679      125.790        0.490        0.041       94.715        6.109        0.004      332.916        1.890      866.148
03/24/2014  06:53:00      -80.553      -30.819       -4.011       22.243       20.282       11.696      494.740      411.359      136.799        0.425        0.052       86.247        7.839        0.008      332.909        1.879      866.156
03/24/2014  06:54:00      -93.144      -13.998       -4.426       23.663       18.980       14.791      559.937      360.244      218.779        0.501        0.057       94.190       12.686        0.018      332.799        1.698      866.168
03/24/2014  06:55:00      -92.868      -34.189       -1.280       23.410       20.813       14.718      548.006      433.164      216.633        0.550        0.060       98.961       12.103        0.015      332.844        1.772      866.181
03/24/2014  06:56:00      -82.505      -25.552        2.637       27.910       21.337       15.590      778.952      455.271      243.060        0.447        0.074       86.371       14.448        0.028      332.723        1.573      866.193
03/24/2014  06:57:00      -82.621      -15.916        0.665       25.980       20.529       14.448      674.968      421.437      208.752        0.419        0.065       84.140       12.086        0.021      332.721        1.568      866.211
03/24/2014  06:58:00     -102.642      -14.896       -7.100       31.987       21.138       15.718     1023.170      446.799      247.045        0.626        0.086      103.717       17.277        0.028      332.679        1.499      866.223
03/24/2014  06:59:00      -94.823      -22.489        1.190       36.562       21.428       19.980     1336.809      459.146      399.202        0.585        0.110       97.453       19.949        0.042      332.726        1.577      866.222
03/24/2014  07:00:00      -89.425      -22.089       -1.336       29.156       22.438       18.695      850.057      503.447      349.490        0.509        0.085       92.112       16.151        0.031      332.722        1.569      866.217
03/24/2014  07:01:00     -104.355      -10.777       -8.953       21.815       18.738       15.716      475.905      351.109      246.997        0.608        0.054      104.910       11.636        0.012      332.663        1.471      866.232
03/24/2014  07:02:00      -89.578       -9.919       -9.849       28.400       13.885       15.957      806.557      192.800      254.638        0.474        0.063       90.125       15.980        0.031      332.677        1.495      866.231
03/24/2014  07:03:00      -91.009       -8.285      -10.549       36.357       22.377       14.371     1321.831      500.725      206.529        0.525        0.101       91.385       14.162        0.024      332.640        1.434      866.227
03/24/2014  07:04:00      -86.126       11.084      -15.702       18.537       25.258       13.718      343.614      637.975      188.172        0.448        0.058       86.836       10.605        0.015      332.611        1.386      866.222
03/24/2014  07:05:00      -65.911        3.801      -13.556       25.320       26.274       15.209      641.101      690.308      231.317        0.305        0.078       66.021       15.438        0.055      332.755        1.625      866.237
03/24/2014  07:06:00      -43.989       -7.982      -10.519       12.317       18.780       11.315      151.711      352.702      128.019        0.137        0.032       44.708        7.835        0.031      332.749        1.615      866.263
03/24/2014  07:07:00      -50.093      -15.513      -12.648       14.146       20.747       11.531      200.111      430.429      132.974        0.184        0.038       52.440       10.074        0.037      332.799        1.697      866.273
03/24/2014  07:08:00      -27.603      -28.773        4.253       24.636       16.541       14.561      606.922      273.619      212.020        0.135        0.055       39.872        9.468        0.056      332.807        1.710      866.281
03/24/2014  07:09:00       -8.956      -17.188       -1.580       27.368       12.244       12.113      748.999      149.908      146.736        0.071        0.052       19.381       14.975        0.597      332.779        1.664      866.287
03/24/2014  07:10:00      -71.296       -5.187      -10.453       18.886       24.470       12.936      356.692      598.771      167.341        0.317        0.056       71.485        7.416        0.011      332.736        1.592      866.282
03/24/2014  07:11:00      -40.989       -6.336      -11.355       29.886       16.634        9.536      893.169      276.681       90.936        0.155        0.063       41.475        8.474        0.042      332.691        1.519      866.283
03/24/2014  07:12:00        2.858        6.914       -2.646       14.012       18.880       10.040      196.335      356.469      100.794        0.036        0.033        7.482       11.329        2.293      333.067        2.140      866.296
03/24/2014  07:13:00        0.882        7.596        0.207       23.241       15.953        8.102      540.158      254.483       65.639        0.046        0.043        7.647        9.450        1.527      333.176        2.319      866.306
03/24/2014  07:14:00      -48.080        2.593       -7.873       17.306        8.635        8.722      299.504       74.556       76.065        0.142        0.023       48.149        3.995        0.007      332.767        1.645      866.310
03/24/2014  07:15:00      -15.119       -6.213        2.182       16.330       13.454        7.030      266.670      181.019       49.420        0.038        0.025       16.346        6.900        0.178      333.171        2.311      866.319
03/24/2014  07:16:00      -36.493      -10.061       -6.970       11.758        9.402        6.378      138.241       88.395       40.684        0.087        0.013       37.855        4.834        0.016      333.064        2.133      866.324
03/24/2014  07:17:00      -20.167       -2.245        4.407       15.061       13.221       11.084      226.827      174.791      122.847        0.048        0.026       20.292        8.397        0.171      333.146        2.271      866.329
03/24/2014  07:18:00       -9.546       -9.639       -0.346       20.805        9.785        6.232      432.836       95.752       38.837        0.038        0.028       13.566        6.059        0.199      333.233        2.414      866.328
03/24/2014  07:19:00        3.217       -1.651       -1.384       25.620       10.532        6.957      656.396      110.930       48.399        0.042        0.041        3.616        7.170        3.932      333.373        2.643      866.332
03/24/2014  07:20:00       15.307        5.232        4.363       11.562       13.497        7.557      133.681      182.172       57.101        0.033        0.019       16.177        5.440        0.113      333.491        2.839      866.343
03/24/2014  07:21:00        0.824        2.829        5.312        6.568       10.199        8.926       43.133      104.010       79.671        0.013        0.011        2.947        5.002        2.881      333.593        3.010      866.340
03/24/2014  07:22:00      -44.457       -7.324       -5.436       11.634        7.660        6.564      135.359       58.670       43.090        0.115        0.012       45.056        4.868        0.012      333.127        2.239      866.341
03/24/2014  07:23:00      -45.706       -3.259      -12.396        5.664        5.253        6.615       32.082       27.590       43.763        0.118        0.005       45.822        2.398        0.003      332.987        2.008      866.338
03/24/2014  07:24:00      -32.888        3.199        1.188       11.462       13.510        9.489      131.377      182.516       90.044        0.075        0.020       33.043        3.832        0.013      333.033        2.083      866.339
03/24/2014  07:25:00      -15.281       10.642        1.963       12.060       10.163        8.582      145.455      103.282       73.658        0.034        0.016       18.621        4.513        0.059      333.348        2.604      866.341
03/24/2014  07:26:00      -22.594        0.866       -3.502       18.089       16.623        9.641      327.223      276.333       92.942        0.061        0.035       22.611        5.927        0.069      333.353        2.610      866.333
03/24/2014  07:27:00      -23.044       -2.390       -2.047       13.763        9.010        7.265      189.409       81.172       52.781        0.043        0.016       23.168        6.435        0.077      333.342        2.594      866.339
03/24/2014  07:28:00       -9.445        0.902        5.786       14.243        9.232        7.493      202.853       85.236       56.140        0.023        0.017        9.488        6.567        0.479      333.489        2.838      866.346
03/24/2014  07:29:00      -15.322       -3.100        7.113        8.907        8.448        9.376       79.338       71.375       87.915        0.027        0.012       15.632        8.616        0.304      333.399        2.687      866.353
03/24/2014  07:30:00      -22.079        3.097        3.027        9.161        5.671       10.497       83.923       32.159      110.189        0.037        0.011       22.295        7.241        0.105      333.451        2.776      866.342
03/24/2014  07:31:00      -46.808        4.075       -4.808        8.199        7.093        6.817       67.219       50.310       46.476        0.120        0.008       46.985        4.160        0.008      333.287        2.501      866.338
03/24/2014  07:32:00      -53.972      -10.681       -8.203        9.143        9.124        5.940       83.586       83.244       35.279        0.165        0.010       55.019        4.158        0.006      333.200        2.358      866.331
03/24/2014  07:33:00      -35.027       -6.006       12.226       25.565       11.357       11.247      653.544      128.988      126.499        0.116        0.045       35.538       13.287        0.140      333.423        2.728      866.336
03/24/2014  07:34:00      -15.183        6.897       -0.408       10.300       10.836        8.312      106.100      117.417       69.093        0.029        0.015       16.676        6.782        0.165      333.392        2.678      866.343
03/24/2014  07:35:00      -49.460       10.432        9.113       11.181       10.066       10.326      125.014      101.330      106.635        0.149        0.017       50.548        7.666        0.023      333.315        2.549      866.351
03/24/2014  07:36:00      -54.806       -4.090       -5.910       12.114       10.174        6.879      146.739      103.508       47.324        0.168        0.015       54.958        5.141        0.009      333.267        2.467      866.350
03/24/2014  07:37:00      -55.043      -14.063       -4.604       15.672       11.859        7.838      245.626      140.625       61.427        0.185        0.022       56.811        6.021        0.011      333.360        2.624      866.360
03/24/2014  07:38:00      -24.652       -2.153       -5.808       11.489        7.599        4.664      132.002       57.752       21.750        0.043        0.011       24.746        3.317        0.018      333.380        2.656      866.362
03/24/2014  07:39:00      -20.522       -6.595       -3.264        7.731        6.394        4.432       59.774       40.879       19.638        0.030        0.006       21.556        1.147        0.003      333.434        2.747      866.369
03/24/2014  07:40:00      -41.292        2.829       -5.395       13.727        5.928        4.966      188.432       35.140       24.661        0.100        0.012       41.389        3.890        0.009      333.465        2.795      866.372
03/24/2014  07:41:00      -47.734        1.263       -5.211        9.231        4.638        8.518       85.215       21.514       72.552        0.124        0.009       47.750        6.701        0.020      333.527        2.898      866.370
03/24/2014  07:42:00      -27.817       -3.478       -6.149        7.658        5.481        6.004       58.647       30.037       36.053        0.047        0.006       28.034        2.402        0.007      333.636        3.082      866.367
03/24/2014  07:43:00      -24.563       -2.796       -6.096        6.640        4.714        5.180       44.089       22.225       26.834        0.037        0.005       24.722        3.045        0.015      333.636        3.082      866.373
03/24/2014  07:44:00      -41.631        2.960       -0.920        9.274        8.363        9.104       86.007       69.938       82.878        0.099        0.012       41.737        5.168        0.015      333.582        2.990      866.375
03/24/2014  07:45:00      -56.505        4.806       -7.029        9.919        8.025        5.907       98.380       64.406       34.895        0.173        0.010       56.709        2.447        0.002      333.605        3.029      866.377
03/24/2014  07:46:00      -33.291        1.247       -1.987       14.014       11.164        7.420      196.386      124.632       55.050        0.074        0.019       33.315        6.581        0.039      333.657        3.115      866.373
03/24/2014  07:47:00      -54.150        1.392       -5.886       10.291        5.818        6.213      105.896       33.849       38.598        0.157        0.009       54.168        4.574        0.007      333.599        3.017      866.383
03/24/2014  07:48:00      -68.686        0.574       -4.168       12.870       12.378        9.816      165.644      153.212       96.354        0.258        0.021       68.689        2.503        0.001      333.582        2.992      866.387
03/24/2014  07:49:00      -55.094        3.326       -2.139       19.704       12.491       11.745      388.239      156.027      137.954        0.187        0.034       55.195        9.908        0.032      333.603        3.025      866.390
03/24/2014  07:50:00      -75.973        4.764       -5.858       12.990       13.165       11.912      168.736      173.320      141.900        0.316        0.024       76.122        9.094        0.014      333.586        2.997      866.387
03/24/2014  07:51:00      -74.232        5.448       -7.034       14.710        9.551        8.946      216.392       91.218       80.029        0.299        0.019       74.431        7.982        0.011      333.665        3.129      866.378
03/24/2014  07:52:00      -67.675       -0.827       -3.428       11.086        9.618        8.888      122.910       92.511       78.988        0.244        0.015       67.680        6.196        0.008      333.697        3.181      866.378
03/24/2014  07:53:00      -61.056        4.997       -5.193       16.994       10.286       12.072      288.782      105.810      145.734        0.216        0.027       61.260       10.279        0.028      333.767        3.297      866.379
03/24/2014  07:54:00      -48.670        6.190       -1.547       17.373       10.174        8.693      301.834      103.520       75.561        0.145        0.024       49.062        4.303        0.008      333.820        3.387      866.369
03/24/2014  07:55:00      -60.580       18.622       -0.486       19.424       14.061       11.924      377.301      197.722      142.189        0.237        0.036       63.377        9.819        0.024      333.883        3.489      866.373
03/24/2014  07:56:00      -53.500       17.579        2.177       13.685       11.846        8.637      187.267      140.335       74.604        0.179        0.020       56.314        7.425        0.017      333.945        3.594      866.375
03/24/2014  07:57:00      -18.016       17.439       12.370       19.895       12.562       13.178      395.810      157.797      173.664        0.075        0.036       25.074       11.024        0.193      334.361        4.284      866.376
03/24/2014  07:58:00       -1.254        2.167        7.383        9.474        7.913        8.054       89.752       62.608       64.860        0.014        0.011        2.503        2.875        1.319      334.493        4.503      866.362
03/24/2014  07:59:00      -23.147        7.171        3.030       13.107       12.496       13.563      171.800      156.150      183.942        0.055        0.026       24.232        8.448        0.122      334.354        4.272      866.353
03/24/2014  08:00:00      -28.724        6.437      -12.852        8.367       10.531        8.137       70.010      110.896       66.210        0.064        0.012       29.436        6.408        0.047      334.182        3.985      866.350
03/24/2014  08:01:00      -24.438        6.311       -3.995       11.140        8.551       10.192      124.095       73.123      103.877        0.048        0.015       25.239        8.259        0.107      334.263        4.120      866.350
03/24/2014  08:02:00      -26.068       11.745        1.577        7.830       10.461       11.612       61.303      109.424      134.838        0.056        0.015       28.591        7.360        0.066      334.294        4.173      866.345
03/24/2014  08:03:00      -19.543       14.084        7.095       11.358        9.874       15.271      129.008       97.487      233.210        0.055        0.023       24.089        8.601        0.127      334.580        4.648      866.338
03/24/2014  08:04:00      -12.799        8.257       25.365        9.349       11.331       13.272       87.408      128.385      176.149        0.063        0.020       15.231        7.641        0.252      335.127        5.555      866.335
03/24/2014  08:05:00       -8.873       13.470       36.772       11.200       14.602       11.247      125.447      213.211      126.498        0.104        0.023       16.129        8.608        0.285      335.202        5.678      866.331
03/24/2014  08:06:00       29.199       38.156       12.667       17.315       13.765       20.337      299.821      189.485      413.594        0.169        0.045       48.046        7.269        0.023      334.466        4.457      866.329
03/24/2014  08:07:00        0.312       20.531       45.047       18.744       22.691       13.755      351.339      514.867      189.191        0.175        0.053       20.533        9.455        0.212      335.044        5.416      866.328
03/24/2014  08:08:00       -4.998       14.129       47.082       14.248       23.090       14.486      203.012      533.133      209.838        0.169        0.047       14.987       11.982        0.639      335.062        5.448      866.322
03/24/2014  08:09:00       24.740       30.614       22.232       35.708       25.633       21.333     1275.047      657.030      455.103        0.221        0.119       39.361       15.758        0.160      334.848        5.092      866.314
03/24/2014  08:10:00       41.189       23.933       13.754       32.367       22.330       23.219     1047.614      498.640      539.127        0.227        0.104       47.638       18.874        0.157      334.769        4.959      866.312
03/24/2014  08:11:00       57.643       49.198       21.216       20.104       17.773       24.848      404.189      315.882      617.430        0.377        0.067       75.784       15.086        0.040      334.582        4.651      866.305
03/24/2014  08:12:00       46.061       55.889       17.890       29.020       16.936       25.497      842.136      286.834      650.084        0.367        0.089       72.424       17.049        0.055      334.664        4.787      866.291
03/24/2014  08:13:00       48.161       35.638       13.812       26.863       19.481       26.586      721.597      379.517      706.811        0.279        0.090       59.913       13.467        0.051      334.708        4.860      866.294
03/24/2014  08:14:00       39.418       40.602        8.994       29.877       24.994       24.696      892.611      624.695      609.887        0.270        0.106       56.589       18.495        0.107      334.752        4.932      866.294
03/24/2014  08:15:00       58.128       56.097        0.226       33.338       22.298       24.143     1111.426      497.200      582.903        0.436        0.110       80.783       14.985        0.034      334.707        4.856      866.307
03/24/2014  08:16:00       38.875       41.102       23.263       32.121       29.184       34.041     1031.768      851.730     1158.807        0.339        0.152       56.574       12.240        0.047      334.949        5.259      866.324
03/24/2014  08:17:00        8.288       34.299       27.346       33.379       34.632       31.805     1114.149     1199.364     1011.542        0.266        0.166       35.287       12.945        0.135      335.086        5.486      866.328
03/24/2014  08:18:00        3.473       46.471       66.222       23.890       37.897       21.419      570.733     1436.184      458.775        0.451        0.123       46.601       22.652        0.236      334.929        5.226      866.340
03/24/2014  08:19:00       -1.543       42.159       63.381       23.244       49.644       40.030      540.276     2464.517     1602.373        0.520        0.230       42.187       38.995        0.854      335.002        5.347      866.341
03/24/2014  08:20:00       44.093       51.335       58.622       37.052       32.964       26.007     1372.821     1086.648      676.372        0.558        0.157       67.672       24.342        0.129      334.698        4.843      866.354
03/24/2014  08:21:00       14.986       24.071       39.194       23.436       31.329       26.182      549.245      981.506      685.475        0.228        0.111       28.355       20.950        0.546      335.037        5.405      866.363
03/24/2014  08:22:00       62.336       72.038       65.248       35.790       31.330       33.949     1280.941      981.562     1152.565        0.837        0.171       95.264       22.923        0.058      334.774        4.968      866.362
03/24/2014  08:23:00       66.936       74.250       53.068       43.694       30.456       40.628     1909.192      927.566     1650.673        0.865        0.224       99.967       29.619        0.088      334.771        4.963      866.361
03/24/2014  08:24:00       19.565       60.439       66.438       30.064       34.042       24.146      903.868     1158.843      583.014        0.555        0.132       63.527       17.880        0.079      335.065        5.451      866.362
03/24/2014  08:25:00      100.343       79.326       42.261       36.653       27.623       33.933     1343.460      763.018     1151.457        1.070        0.163      127.912       24.426        0.036      334.760        4.944      866.365
03/24/2014  08:26:00      101.578       62.023       27.401       30.152       31.151       31.086      909.139      970.375      966.341        0.888        0.142      119.016       17.406        0.021      334.738        4.908      866.361
03/24/2014  08:27:00       91.128       61.193       36.912       23.629       21.577       30.064      558.337      465.562      903.836        0.767        0.096      109.767       15.460        0.020      334.688        4.826      866.359
03/24/2014  08:28:00       49.807       78.791       55.303       40.784       22.754       30.676     1663.366      517.730      941.012        0.743        0.156       93.213       27.959        0.090      334.865        5.120      866.358
03/24/2014  08:29:00       39.223       96.165       84.197       42.850       30.483       33.571     1836.119      929.184     1127.035        1.088        0.195      103.857       22.526        0.047      334.824        5.051      866.354
03/24/2014  08:30:00       28.452       56.269       65.834       33.787       36.418       23.762     1141.530     1326.243      564.624        0.567        0.152       63.054       14.788        0.055      334.996        5.337      866.359
03/24/2014  08:31:00       45.735       53.075       39.754       24.043       29.203       43.374      578.088      852.820     1881.340        0.490        0.166       70.062       30.215        0.186      334.874        5.135      866.359
03/24/2014  08:32:00       18.161       31.664       19.319       18.893       28.506       32.727      356.959      812.593     1071.029        0.197        0.112       36.503       25.602        0.492      335.066        5.453      866.351
03/24/2014  08:33:00       39.680       49.817       33.250       38.143       30.602       31.135     1454.912      936.457      969.366        0.426        0.168       63.688       22.859        0.129      334.983        5.317      866.353
03/24/2014  08:34:00       30.927       47.456       24.471       32.182       19.061       25.916     1035.683      363.317      671.655        0.294        0.104       56.644       17.778        0.099      335.146        5.587      866.349
03/24/2014  08:35:00       22.126       53.013       14.303       26.688       29.817       21.588      712.240      889.074      466.037        0.279        0.103       57.446       18.817        0.107      335.157        5.604      866.354
03/24/2014  08:36:00       -6.574       51.124       69.255       21.453       34.173       22.723      460.250     1167.789      516.332        0.480        0.107       51.545        5.794        0.013      335.486        6.154      866.368
03/24/2014  08:37:00       65.607       55.562       37.587       29.745       17.203       30.395      884.757      295.927      923.860        0.545        0.105       85.973       21.519        0.063      334.958        5.275      866.385
03/24/2014  08:38:00       52.118       25.477       13.711       26.622       23.480       23.379      708.715      551.298      546.562        0.268        0.090       58.012       14.242        0.060      335.101        5.511      866.383
03/24/2014  08:39:00       48.732       45.833        4.442       21.290       23.174       27.188      453.282      537.056      739.196        0.311        0.086       66.898       19.532        0.085      335.180        5.643      866.388
03/24/2014  08:40:00        6.309       38.636        8.951       24.237       33.502       24.666      587.439     1122.373      608.399        0.197        0.116       39.148       22.322        0.325      335.538        6.238      866.390
03/24/2014  08:41:00       18.698       64.981       -0.273       28.389       41.765       25.385      805.961     1744.334      644.393        0.388        0.160       67.618       21.464        0.101      335.450        6.091      866.397
03/24/2014  08:42:00       22.260       44.974        2.840       22.194       33.190       26.540      492.560     1101.547      704.387        0.241        0.115       50.181       23.414        0.218      335.469        6.125      866.400
03/24/2014  08:43:00        6.351       63.003       -1.849       24.257       24.255       21.979      588.396      588.304      483.089        0.284        0.083       63.322       14.353        0.051      335.433        6.065      866.415
03/24/2014  08:44:00        1.340       38.871       -8.888       13.794       14.855       17.331      190.281      220.660      300.367        0.115        0.036       38.894        7.509        0.037      335.308        5.858      866.421
03/24/2014  08:45:00       50.483       19.939        8.176       21.154       21.359       21.295      447.496      456.202      453.471        0.218        0.068       54.277        9.511        0.031      335.256        5.768      866.421
03/24/2014  08:46:00       51.886       29.039        1.853       18.081       17.541       21.312      326.910      307.696      454.216        0.231        0.054       59.459       14.731        0.061      335.151        5.594      866.411
03/24/2014  08:47:00       40.465       36.395       17.986       25.586       18.693       21.404      654.646      349.445      458.140        0.237        0.073       54.425       13.004        0.057      335.265        5.784      866.400
03/24/2014  08:48:00       32.102       23.147        4.387       28.959       23.827       21.663      838.608      567.737      469.303        0.173        0.094       39.577       14.884        0.141      335.647        6.420      866.397
03/24/2014  08:49:00       53.135       25.890       17.730       32.714       33.774       20.521     1070.199     1140.651      421.131        0.322        0.132       59.107       20.711        0.123      335.380        5.976      866.399
03/24/2014  08:50:00       21.143       22.752       15.365       25.899       26.372       17.832      670.777      695.485      317.977        0.144        0.084       31.059       11.221        0.131      335.786        6.652      866.400
03/24/2014  08:51:00       21.504       12.558        9.324       26.455       23.391       29.905      699.863      547.155      894.333        0.142        0.107       24.902       18.780        0.569      335.525        6.215      866.397
03/24/2014  08:52:00        1.097       51.452        7.011       29.622       52.908       26.788      877.440     2799.240      717.605        0.355        0.220       51.464       25.843        0.252      335.824        6.714      866.405
03/24/2014  08:53:00       15.043       41.531       -1.619       30.700       30.292       26.072      942.488      917.576      679.769        0.225        0.127       44.172       19.616        0.197      335.676        6.468      866.418
03/24/2014  08:54:00        6.410       16.466       11.677       12.686       43.307       22.409      160.939     1875.528      502.153        0.149        0.127       17.670       24.565        1.933      336.108        7.190      866.420
03/24/2014  08:55:00       60.669       62.422      -11.059       44.146       23.374       24.482     1948.880      546.366      599.345        0.540        0.155       87.047        5.367        0.004      335.708        6.523      866.418
03/24/2014  08:56:00       82.222       65.322       -5.390       44.813       35.325       26.171     2008.189     1247.837      684.911        0.750        0.197      105.012       20.683        0.039      336.025        7.050      866.424
03/24/2014  08:57:00       94.365       70.229        6.432       36.204       30.169       33.890     1310.725      910.141     1148.549        0.862        0.168      117.630       15.532        0.017      335.663        6.445      866.426
03/24/2014  08:58:00       17.571       70.984        3.571       37.683       58.567       31.616     1419.975     3430.098      999.593        0.560        0.292       73.127       30.832        0.178      335.928        6.888      866.427
03/24/2014  08:59:00       29.617       92.116      -10.938       28.270       33.743       34.208      799.220     1138.608     1170.176        0.629        0.155       96.760       18.313        0.036      335.670        6.458      866.427
03/24/2014  09:00:00       14.963       34.452      -23.056       18.141       31.297       26.230      329.110      979.500      688.034        0.197        0.100       37.561       24.943        0.441      335.687        6.489      866.434
03/24/2014  09:01:00       16.996        6.180       11.809       20.756       24.189       17.835      430.826      585.094      318.096        0.090        0.067       18.084       13.167        0.530      335.865        6.783      866.434
03/24/2014  09:02:00       22.915       19.924      -13.467       10.095        9.057        9.621      101.919       82.037       92.570        0.069        0.014       30.365        3.343        0.012      335.552        6.263      866.439
03/24/2014  09:03:00       38.103       29.342        4.278       12.849       15.732       17.454      165.095      247.498      304.644        0.152        0.036       48.091        7.708        0.026      335.655        6.433      866.447
03/24/2014  09:04:00       15.307       30.094      -14.032       19.689       21.282       18.498      387.652      452.940      342.163        0.126        0.059       33.763        9.153        0.073      335.767        6.620      866.457
03/24/2014  09:05:00      -26.096       -2.793        5.355       25.105       12.623       27.074      630.241      159.342      733.013        0.112        0.076       26.245       22.662        0.746      336.359        7.608      866.456
03/24/2014  09:06:00       18.422       21.792       33.323       21.172       27.132       15.558      448.262      736.147      242.062        0.168        0.071       28.535       11.542        0.164      336.711        8.197      866.454
03/24/2014  09:07:00       34.224       51.363       44.431       33.597       23.877       22.871     1128.739      570.104      523.100        0.400        0.111       61.721        8.515        0.019      336.437        7.740      866.445
03/24/2014  09:08:00       18.384       20.311       32.920       25.973       21.942       18.852      674.618      481.438      355.415        0.167        0.076       27.395       17.482        0.407      336.586        7.987      866.444
03/24/2014  09:09:00       33.650       48.674       45.304       51.527       27.015       31.482     2655.064      729.825      991.135        0.496        0.219       59.173       32.823        0.308      336.421        7.712      866.439
03/24/2014  09:10:00       33.779       64.779       51.562       39.055       25.582       30.234     1525.297      654.417      914.100        0.554        0.155       73.057       24.587        0.113      336.165        7.284      866.437
03/24/2014  09:11:00       61.565       50.660        9.115       29.823       17.645       22.404      889.396      311.340      501.930        0.407        0.085       79.729       11.486        0.021      336.101        7.177      866.440
03/24/2014  09:12:00       46.220       43.707       24.182       35.793       28.387       25.630     1281.141      805.802      656.872        0.369        0.137       63.613       15.962        0.063      336.337        7.571      866.449
03/24/2014  09:13:00       34.913       57.165       50.823       31.628       30.119       19.876     1000.335      907.179      395.064        0.469        0.115       66.983       11.563        0.030      336.438        7.739      866.451
03/24/2014  09:14:00       12.942       -3.253       43.468       24.207       49.981       25.571      585.969     2498.130      653.883        0.290        0.187       13.345       26.003        3.797      336.690        8.161      866.449
03/24/2014  09:15:00       18.113        7.434       29.783       30.497       31.172       22.748      930.089      971.698      517.475        0.184        0.121       19.580       19.859        1.029      336.924        8.553      866.450
03/24/2014  09:16:00       -4.189      -10.094        3.670       16.574       42.425       15.974      274.711     1799.920      255.166        0.123        0.116       10.928       10.418        0.909      336.605        8.018      866.451
03/24/2014  09:17:00       -9.889       -4.748       26.984       19.017       21.755       16.261      361.651      473.270      264.436        0.097        0.055       10.970       14.735        1.804      337.047        8.758      866.448
03/24/2014  09:18:00      -44.177       12.089       20.880       36.139       18.829       23.453     1305.994      354.530      550.060        0.237        0.111       45.801       15.902        0.121      336.551        7.930      866.444
03/24/2014  09:19:00      -39.356        1.549       -0.150       23.958       29.185       19.429      573.994      851.783      377.495        0.168        0.090       39.386       17.299        0.193      336.495        7.837      866.442
03/24/2014  09:20:00       -7.551      -14.524       10.282       24.331       13.556       12.820      592.014      183.761      164.354        0.066        0.047       16.370       11.749        0.515      336.779        8.311      866.441
03/24/2014  09:21:00       -8.445        8.066       21.044       12.597       15.564       11.414      158.676      242.238      130.291        0.056        0.027       11.677        8.065        0.477      337.236        9.075      866.445
03/24/2014  09:22:00      -38.324       20.391       -3.524       21.732       14.268       16.511      472.301      203.577      272.612        0.142        0.047       43.411       11.098        0.065      336.613        8.033      866.436
03/24/2014  09:23:00       12.503       23.134       17.089       33.075       23.961       19.598     1093.986      574.109      384.089        0.152        0.103       26.297        8.845        0.113      337.427        9.393      866.432
03/24/2014  09:24:00       -7.535        8.451       36.830       15.011       25.698       28.397      225.341      660.393      806.381        0.159        0.085       11.322       17.361        2.351      337.887       10.165      866.436
03/24/2014  09:25:00       32.109       63.613       47.740       29.215       26.397       36.174      853.489      696.785     1308.531        0.511        0.143       71.257       21.785        0.093      337.078        8.809      866.436
03/24/2014  09:26:00       48.595       59.013       26.618       23.857       21.469       31.896      569.149      460.927     1017.360        0.430        0.102       76.447       10.011        0.017      336.883        8.483      866.437
03/24/2014  09:27:00       61.915       54.533       13.664       28.477       28.731       33.478      810.930      825.470     1120.809        0.488        0.138       82.507        8.002        0.009      336.707        8.191      866.441
03/24/2014  09:28:00       79.642       74.015       41.154       43.091       27.873       29.877     1856.817      776.926      892.607        0.852        0.176      108.725       16.831        0.024      337.038        8.742      866.437
03/24/2014  09:29:00       33.250       67.060       42.732       44.654       47.732       31.486     1993.970     2278.338      991.371        0.635        0.263       74.851       27.697        0.137      337.519        9.548      866.436
03/24/2014  09:30:00        9.853       20.626       31.794       40.154       51.702       29.336     1612.357     2673.086      860.573        0.334        0.257       22.858       29.591        1.676      337.505        9.525      866.433
03/24/2014  09:31:00       13.733       50.655       65.934       27.409       33.366       30.151      751.233     1113.297      909.080        0.494        0.139       52.484       24.367        0.216      337.485        9.491      866.424
03/24/2014  09:32:00       16.371        6.894       49.577       32.223       36.490       33.769     1038.312     1331.547     1140.324        0.314        0.176       17.763       25.246        2.020      337.647        9.763      866.416
03/24/2014  09:33:00       43.985      -14.101       42.104       37.994       35.415       33.037     1443.580     1254.245     1091.423        0.385        0.189       46.190       20.843        0.204      337.317        9.211      866.411
03/24/2014  09:34:00       41.050       -8.571       34.423       31.112       53.434       32.318      967.976     2855.167     1044.445        0.390        0.243       41.935       36.999        0.778      337.424        9.388      866.402
03/24/2014  09:35:00       28.136       47.039       61.224       38.105       36.341       33.412     1452.004     1320.675     1116.360        0.532        0.194       54.812       27.640        0.254      337.383        9.319      866.393
03/24/2014  09:36:00       72.803       86.654       70.491       49.045       32.183       36.863     2405.409     1035.758     1358.888        1.129        0.240      113.178       18.023        0.025      337.004        8.686      866.390
03/24/2014  09:37:00       98.314       62.775       36.450       58.821       51.274       37.230     3459.870     2629.055     1386.103        1.120        0.374      116.646       31.065        0.071      337.032        8.734      866.391
03/24/2014  09:38:00       41.770      -52.230       29.835       48.068       54.388       34.984     2310.573     2958.041     1223.885        0.593        0.325       66.879       38.945        0.339      337.415        9.374      866.399
03/24/2014  09:39:00       46.791       10.509       39.830       50.674       39.445       30.189     2567.830     1555.927      911.394        0.446        0.252       47.956       31.251        0.425      337.627        9.728      866.399
03/24/2014  09:40:00      116.672       61.773        6.450       36.621       33.729       35.359     1341.119     1137.613     1250.282        1.060        0.186      132.016       17.792        0.018      337.312        9.201      866.395
03/24/2014  09:41:00       41.412       75.472       73.753       57.607       50.714       39.880     3318.547     2571.958     1590.413        1.016        0.374       86.087       28.619        0.111      337.740        9.919      866.394
03/24/2014  09:42:00       90.840       67.054       59.139       62.065       51.145       52.143     3852.092     2615.831     2718.938        1.271        0.459      112.907       36.483        0.104      337.148        8.926      866.395
03/24/2014  09:43:00       37.752       63.230       81.216       35.841       38.741       20.365     1284.588     1500.847      414.741        0.761        0.160       73.643       16.323        0.049      337.309        9.196      866.394
03/24/2014  09:44:00       39.652        8.823       36.781       30.660       34.986       30.217      940.021     1224.021      913.049        0.304        0.154       40.622       26.953        0.440      337.279        9.147      866.395
03/24/2014  09:45:00       28.186        8.938       28.220       34.363       29.640       27.474     1180.850      878.549      754.798        0.224        0.141       29.570       25.441        0.740      337.653        9.773      866.387
03/24/2014  09:46:00       59.631       66.931       34.372       41.627       38.008       32.761     1732.771     1444.586     1073.271        0.673        0.213       89.642       14.498        0.026      337.526        9.560      866.377
03/24/2014  09:47:00       58.823       29.342       11.183       22.494       18.384       26.547      505.995      337.955      704.758        0.300        0.077       65.736       14.545        0.049      337.529        9.564      866.378
03/24/2014  09:48:00        5.824        4.773        3.661       26.707       29.512       17.684      713.262      870.948      312.733        0.098        0.095        7.530       12.095        2.580      337.635        9.742      866.373
03/24/2014  09:49:00      -20.570       -8.998       14.197       18.424       26.983       25.841      339.442      728.100      667.782        0.122        0.087       22.452       20.086        0.800      337.808       10.033      866.372
03/24/2014  09:50:00        1.627       39.817       51.476       24.940       33.895       31.105      622.012     1148.851      967.514        0.349        0.137       39.850       13.974        0.123      338.157       10.619      866.387
03/24/2014  09:51:00       45.106       39.746       20.176       47.770       42.529       30.785     2281.941     1808.697      947.734        0.453        0.252       60.119       25.567        0.181      337.826       10.062      866.393
03/24/2014  09:52:00      102.772       48.099        4.709       36.463       32.013       27.406     1329.542     1024.829      751.083        0.800        0.155      113.470       14.157        0.016      337.623        9.722      866.386
03/24/2014  09:53:00       39.544       -5.665       45.622       60.108       65.559       43.569     3612.975     4297.929     1898.285        0.674        0.490       39.947       26.091        0.427      337.977       10.316      866.393
03/24/2014  09:54:00       55.793     -111.554       -9.818       36.946       53.880       44.616     1364.998     2903.023     1990.604        1.096        0.313      124.728       34.720        0.077      337.642        9.754      866.404
03/24/2014  09:55:00       12.429        1.128       49.636       45.462       57.223       50.857     2066.833     3274.470     2586.405        0.527        0.396       12.480       40.491       10.527      338.134       10.580      866.412
03/24/2014  09:56:00        9.087      -33.334       12.442       44.490       59.270       42.667     1979.357     3512.891     1820.500        0.433        0.366       34.551       24.855        0.517      338.046       10.432      866.415
03/24/2014  09:57:00       32.961       63.682       65.725       42.034       38.143       37.978     1766.842     1454.880     1442.350        0.706        0.233       71.706       32.261        0.202      338.037       10.416      866.428
03/24/2014  09:58:00       45.132       60.066       68.286       36.190       25.004       17.527     1309.680      625.196      307.186        0.627        0.112       75.132       10.318        0.019      337.770        9.969      866.434
03/24/2014  09:59:00       39.945       20.684       22.294       36.981       24.208       32.282     1367.579      586.047     1042.155        0.276        0.150       44.982       23.915        0.283      337.851       10.105      866.435
03/24/2014  10:00:00       63.879        7.588       -0.594       27.414       40.661       39.095      751.519     1653.337     1528.409        0.404        0.197       64.328       28.572        0.197      337.739        9.917      866.437
03/24/2014  10:01:00       48.536       48.963      -15.040       15.600       31.375       23.574      243.368      984.403      555.713        0.338        0.089       68.943       20.743        0.091      337.384        9.321      866.438
03/24/2014  10:02:00       31.382       41.842      -28.426       17.808       27.833       14.310      317.116      774.695      204.777        0.242        0.065       52.303       14.183        0.074      337.515        9.541      866.440
03/24/2014  10:03:00       21.100       36.823       31.293       26.262       34.585       27.035      689.694     1196.096      730.918        0.270        0.131       42.440       21.773        0.263      338.178       10.654      866.444
03/24/2014  10:04:00       16.328        5.169       35.095       41.779       51.775       42.293     1745.473     2680.660     1788.674        0.387        0.311       17.126       41.495        5.870      338.483       11.166      866.445
03/24/2014  10:05:00       28.250      -38.303       10.148       52.786       65.954       48.671     2786.386     4349.983     2368.877        0.594        0.475       47.594       42.648        0.803      338.370       10.976      866.436
03/24/2014  10:06:00       84.983      -98.671      -10.738       45.415       57.923       54.704     2062.526     3355.095     2992.517        1.274        0.421      130.223       45.232        0.121      338.179       10.654      866.432
03/24/2014  10:07:00       83.288       25.003       15.003       48.656       36.638       47.036     2367.385     1342.334     2212.402        0.685        0.296       86.960       26.989        0.096      337.754        9.942      866.434
03/24/2014  10:08:00       19.939       41.231       36.114       36.361       38.034       40.755     1322.157     1446.561     1660.981        0.392        0.221       45.799       28.396        0.384      338.407       11.038      866.423
03/24/2014  10:09:00       41.352       40.339       45.317       57.451       45.306       36.711     3300.656     2052.625     1347.704        0.604        0.335       57.769       30.169        0.273      338.131       10.574      866.413
03/24/2014  10:10:00       -4.196       24.461       67.960       26.197       42.644       25.442      686.293     1818.497      647.293        0.419        0.158       24.818       21.955        0.783      338.577       11.323      866.413
03/24/2014  10:11:00       12.200       50.809       82.160       30.720       41.556       33.412      943.709     1726.886     1116.390        0.663        0.189       52.253       32.818        0.394      338.528       11.241      866.419
03/24/2014  10:12:00       48.057       43.180       38.999       22.372       20.474       24.646      500.525      419.173      607.434        0.361        0.076       64.606       17.240        0.071      337.972       10.308      866.418
03/24/2014  10:13:00       25.071      -54.740        8.267       28.404       32.251       27.798      806.808     1040.116      772.743        0.316        0.131       60.208       19.142        0.101      338.336       10.918      866.424
03/24/2014  10:14:00      -23.525       29.443       17.842       49.154       35.066       34.343     2416.078     1229.653     1179.435        0.328        0.241       37.687       32.925        0.763      338.391       11.012      866.417
03/24/2014  10:15:00      -38.092       22.500        4.867       24.242       20.184       20.983      587.694      407.382      440.302        0.171        0.072       44.241       11.259        0.065      338.322       10.897      866.401
03/24/2014  10:16:00       23.281       61.218       80.344       41.498       35.656       28.003     1722.059     1271.367      784.144        0.726        0.189       65.495       18.447        0.079      338.713       11.553      866.392
03/24/2014  10:17:00       74.083       45.619       18.610       49.155       38.573       29.070     2416.199     1487.882      845.042        0.633        0.237       87.002       26.802        0.095      338.452       11.113      866.391
03/24/2014  10:18:00       35.388      -19.157        3.552       42.222       45.574       31.754     1782.692     2077.024     1008.305        0.325        0.243       40.241       19.494        0.235      338.680       11.495      866.386
03/24/2014  10:19:00        1.817       38.336        9.135       29.951       66.108       26.142      897.062     4370.223      683.418        0.375        0.298       38.379       32.350        0.710      338.775       11.656      866.378
03/24/2014  10:20:00       -8.563       60.036       13.080       79.047       42.089       40.019     6248.502     1771.446     1601.536        0.673        0.481       60.644       24.279        0.160      338.859       11.797      866.374
03/24/2014  10:21:00       79.047       43.007        6.940       65.314       36.104       37.354     4265.970     1303.529     1395.337        0.755        0.348       89.989       22.315        0.061      338.831       11.751      866.359
03/24/2014  10:22:00       67.074       95.046       73.985       56.662       61.764       65.991     3210.630     3814.742     4354.826        1.519        0.569      116.330       54.789        0.222      338.888       11.845      866.343
03/24/2014  10:23:00       66.042       89.016       75.221       48.971       57.814       49.140     2398.157     3342.425     2414.782        1.305        0.408      110.839       44.061        0.158      338.517       11.221      866.340
03/24/2014  10:24:00       35.965       59.727       58.872       39.213       44.025       33.692     1537.633     1938.195     1135.138        0.647        0.231       69.719        9.945        0.020      338.877       11.826      866.340
03/24/2014  10:25:00       19.206       58.126       86.604       65.677       54.691       40.831     4313.494     2991.138     1667.160        1.011        0.449       61.217       45.945        0.563      339.104       12.210      866.339
03/24/2014  10:26:00       77.129       63.754       50.589       62.749       55.943       52.776     3937.473     3129.665     2785.325        1.121        0.493      100.067       47.017        0.221      338.648       11.443      866.331
03/24/2014  10:27:00       94.514       70.895       53.423       49.642       55.053       47.262     2464.362     3030.865     2233.683        1.227        0.386      118.148       31.468        0.071      338.768       11.644      866.336
03/24/2014  10:28:00       30.468        1.147       14.429       49.460       41.753       44.306     2446.328     1743.285     1963.049        0.364        0.308       30.490       35.984        1.393      338.589       11.343      866.339
03/24/2014  10:29:00      102.702       75.368       26.699       74.163       43.898       49.514     5500.175     1927.039     2451.665        1.341        0.494      127.389       51.517        0.164      338.659       11.461      866.322
03/24/2014  10:30:00       76.216       43.728       25.535       82.930       64.266       56.310     6877.422     4130.117     3170.790        1.127        0.709       87.869       25.913        0.087      338.917       11.894      866.318
03/24/2014  10:31:00      104.130       83.566       36.666       66.449       49.101       42.708     4415.489     2410.899     1824.004        1.391        0.433      133.515       28.243        0.045      338.808       11.711      866.316
03/24/2014  10:32:00      103.078       89.635       20.910       55.421       34.236       44.990     3071.500     1172.117     2024.094        1.268        0.313      136.600       35.684        0.068      338.555       11.286      866.316
03/24/2014  10:33:00       31.620       60.025       27.511       50.507       35.421       39.195     2550.915     1254.624     1536.247        0.535        0.267       67.844       28.769        0.180      338.866       11.810      866.314
03/24/2014  10:34:00       36.458       99.808       91.309       61.392       60.139       47.952     3768.982     3616.734     2299.364        1.466        0.484      106.258       39.664        0.139      338.975       11.993      866.303
03/24/2014  10:35:00       39.927       62.199       50.647       53.776       48.648       52.812     2891.825     2366.632     2789.095        0.804        0.402       73.912       41.539        0.316      339.072       12.156      866.301
03/24/2014  10:36:00      124.432       57.350       14.446       68.684       47.563       41.335     4717.538     2262.251     1708.546        1.383        0.434      137.012       38.423        0.079      338.868       11.812      866.309
03/24/2014  10:37:00      121.226       92.764       -5.841       44.172       33.114       32.897     1951.152     1096.545     1082.233        1.373        0.206      152.646       24.189        0.025      338.481       11.160      866.299
03/24/2014  10:38:00       58.019       68.464       -4.838       42.062       46.483       35.878     1769.184     2160.633     1287.245        0.665        0.261       89.742       21.257        0.056      338.620       11.396      866.290
03/24/2014  10:39:00       39.955       52.351        3.726       24.793       29.115       29.636      614.700      847.655      878.308        0.335        0.117       65.857       20.729        0.099      339.087       12.181      866.288
03/24/2014  10:40:00       72.124       39.555       11.084       49.475       33.135       29.968     2447.783     1097.896      898.055        0.567        0.222       82.258       12.068        0.022      339.217       12.398      866.281
03/24/2014  10:41:00       33.290       67.374       79.684       45.936       49.038       31.966     2110.082     2404.695     1021.850        0.877        0.277       75.150       24.307        0.105      339.496       12.869      866.266
03/24/2014  10:42:00       57.794       49.244       29.391       61.547       46.792       45.213     3788.048     2189.498     2044.223        0.732        0.401       75.928       32.628        0.185      338.957       11.962      866.269
03/24/2014  10:43:00       56.838       86.742       14.342       61.594       42.394       41.543     3793.861     1797.211     1725.853        0.914        0.366      103.705       31.500        0.092      339.274       12.497      866.262
03/24/2014  10:44:00       82.312       53.316        5.282       36.312       32.095       36.445     1318.534     1030.121     1328.257        0.666        0.184       98.071       26.717        0.074      338.956       11.961      866.272
03/24/2014  10:45:00       30.910       72.819        5.173       40.760       52.265       29.108     1661.337     2731.611      847.286        0.576        0.262       79.108       26.246        0.110      339.322       12.576      866.269
03/24/2014  10:46:00       35.416       47.174        5.815       31.090       28.619       31.521      966.578      819.073      993.601        0.315        0.139       58.989       20.660        0.123      339.169       12.318      866.267
03/24/2014  10:47:00        2.336       14.283       18.776       47.834       55.851       34.456     2288.127     3119.350     1187.201        0.358        0.330       14.473       23.779        2.699      339.458       12.806      866.263
03/24/2014  10:48:00       78.892       44.287       52.611       95.126       84.092       56.891     9048.954     7071.521     3236.621        1.515        0.968       90.472       47.019        0.270      339.363       12.646      866.246
03/24/2014  10:49:00       72.620        6.911       26.150       55.013       46.847       36.104     3026.436     2194.664     1303.504        0.626        0.326       72.949       25.558        0.123      339.230       12.420      866.262
03/24/2014  10:50:00       18.501       31.982       16.339       40.540       29.500       29.047     1643.481      870.261      843.720        0.249        0.168       36.948       27.314        0.547      339.908       13.563      866.252
03/24/2014  10:51:00       43.148       86.498       14.424       52.670       52.325       42.758     2774.130     2737.921     1828.241        0.844        0.367       96.663       29.030        0.090      339.513       12.898      866.230
03/24/2014  10:52:00        6.839       78.588       13.650       35.589       58.617       42.322     1266.591     3435.938     1791.114        0.645        0.325       78.885       37.969        0.232      339.602       13.049      866.216
03/24/2014  10:53:00       70.762       78.222       67.067       49.345       41.321       39.866     2434.906     1707.447     1589.298        1.068        0.287      105.480       30.563        0.084      339.517       12.905      866.194
03/24/2014  10:54:00       38.895       50.142       37.140       46.452       31.423       39.452     2157.813      987.408     1556.438        0.505        0.235       63.459       27.017        0.181      339.610       13.061      866.180
03/24/2014  10:55:00       19.586       40.602       36.154       30.917       36.157       19.380      955.860     1307.319      375.600        0.299        0.132       45.079       16.884        0.140      340.180       14.024      866.160
03/24/2014  10:56:00       23.492       12.726       33.465       34.484       36.182       23.535     1189.143     1309.101      553.883        0.244        0.153       26.717       15.837        0.351      340.313       14.248      866.144
03/24/2014  10:57:00       57.235       42.305       16.675       51.131       31.045       30.038     2614.400      963.811      902.270        0.491        0.224       71.173       16.032        0.051      339.981       13.688      866.120
03/24/2014  10:58:00       17.203       46.575       94.694       55.813       55.371       49.084     3115.043     3065.989     2409.246        1.001        0.430       49.651       43.079        0.753      340.022       13.756      866.095
03/24/2014  10:59:00      100.989       83.604       67.819       58.013       59.257       56.333     3365.487     3511.359     3173.409        1.592        0.503      131.105       44.849        0.117      339.596       13.036      866.080
03/24/2014  11:00:00       37.642       95.862       71.953       59.274       51.334       55.056     3513.384     2635.191     3031.118        1.248        0.459      102.987       38.941        0.143      339.603       13.049      866.070
03/24/2014  11:01:00      107.133       75.015       32.848       33.176       26.974       35.004     1100.655      727.595     1225.305        1.062        0.153      130.785       25.773        0.039      339.319       12.570      866.072
03/24/2014  11:02:00       85.947       59.195       -1.026       43.683       32.915       32.372     1908.244     1083.373     1047.959        0.747        0.202      104.360       21.651        0.043      339.575       13.002      866.068
03/24/2014  11:03:00       83.867       69.196        1.719       38.480       40.396       37.366     1480.724     1631.821     1396.235        0.817        0.225      108.728       17.088        0.025      339.702       13.215      866.065
03/24/2014  11:04:00      106.140       96.282       -5.755       52.779       34.550       42.155     2785.633     1193.699     1777.025        1.316        0.288      143.304       22.791        0.025      339.509       12.892      866.055
03/24/2014  11:05:00       98.328       90.396        0.058       41.037       31.987       39.446     1684.068     1023.166     1556.012        1.105        0.213      133.566       22.872        0.029      339.584       13.018      866.050
03/24/2014  11:06:00       96.007       76.377        7.446       57.954       61.714       36.498     3358.714     3808.656     1332.084        1.180        0.425      122.682       27.358        0.050      339.790       13.363      866.046
03/24/2014  11:07:00       40.528       69.810       -3.220       32.733       39.097       33.995     1071.427     1528.595     1155.651        0.514        0.188       80.721       28.549        0.125      339.954       13.643      866.053
03/24/2014  11:08:00       -7.797       24.660       49.430       37.168       43.458       33.289     1381.465     1888.556     1108.132        0.374        0.219       25.863       22.974        0.789      340.442       14.466      866.056
03/24/2014  11:09:00       -6.438        8.905       50.398       18.287       27.214       18.506      334.430      740.605      342.483        0.204        0.071       10.988       17.089        2.419      340.569       14.680      866.048
03/24/2014  11:10:00       -6.982       -4.267       33.857       16.879       23.866       28.741      284.897      569.587      826.057        0.145        0.084        8.183       21.522        6.918      340.814       15.095      866.052
03/24/2014  11:11:00      -14.596       21.853       71.942       23.097       42.174       30.244      533.486     1778.648      914.726        0.455        0.161       26.279       31.761        1.461      340.850       15.155      866.048
03/24/2014  11:12:00       32.741        1.309       51.077       60.152       68.116       52.960     3618.269     4639.832     2804.779        0.737        0.553       32.767       53.651        2.681      340.781       15.040      866.036
03/24/2014  11:13:00       31.236      -51.114       19.056       58.363       83.716       53.621     3406.204     7008.381     2875.249        0.862        0.664       59.903       43.232        0.521      340.609       14.747      866.036
03/24/2014  11:14:00       32.510     -125.917      -23.485       49.982       56.846       37.620     2498.211     3231.467     1415.239        1.230        0.357      130.046       31.621        0.059      340.208       14.070      866.025
03/24/2014  11:15:00       82.844     -136.934      -39.987       48.576       60.907       29.769     2359.616     3709.689      886.202        1.708        0.348      160.044       15.048        0.009      340.204       14.063      866.019
03/24/2014  11:16:00       10.905      -45.387       13.089       36.981       51.981       35.113     1367.620     2702.027     1232.931        0.383        0.265       46.678       29.098        0.389      340.363       14.332      866.017
03/24/2014  11:17:00       17.341      -75.957       -4.932       25.690       33.740       25.607      659.954     1138.406      655.711        0.427        0.123       77.912       22.931        0.087      340.390       14.378      866.013
03/24/2014  11:18:00       35.835      -89.119       -4.288       47.733       33.247       30.637     2278.434     1105.356      938.606        0.678        0.216       96.054       22.754        0.056      339.927       13.597      866.008
03/24/2014  11:19:00      -21.061       19.052       -8.917       24.343       31.178       21.313      592.605      972.050      454.258        0.145        0.101       28.399       16.218        0.326      339.956       13.644      865.995
03/24/2014  11:20:00      -28.617       -1.155       15.492       35.284       20.952       25.552     1244.967      438.996      652.917        0.170        0.117       28.640       23.813        0.691      340.433       14.451      865.979
03/24/2014  11:21:00       27.152       15.481       23.502       20.889       23.074       20.098      436.356      532.401      403.933        0.145        0.069       31.256        8.053        0.066      341.010       15.426      865.975
03/24/2014  11:22:00       16.294       34.018       25.060       56.281       28.857       27.312     3167.599      832.730      745.935        0.340        0.237       37.719       21.877        0.336      341.107       15.590      865.962
03/24/2014  11:23:00      -18.250       10.613       28.191       21.165       29.116       23.081      447.967      847.747      532.749        0.153        0.091       21.112       21.543        1.041      341.371       16.038      865.962
03/24/2014  11:24:00      -18.090       18.112       12.856       41.407       35.390       21.699     1714.500     1252.441      470.859        0.213        0.172       25.598       24.502        0.916      340.619       14.765      865.960
03/24/2014  11:25:00       32.266       50.879       77.190       79.570       73.455       63.441     6331.337     5395.705     4024.777        1.267        0.788       60.247       60.172        0.998      341.061       15.513      865.945
03/24/2014  11:26:00       57.153       89.655       75.535       38.106       38.853       41.110     1452.035     1509.524     1690.035        1.083        0.233      106.323       32.976        0.096      340.226       14.102      865.937
03/24/2014  11:27:00       37.062       69.813      101.337       48.999       83.061       69.499     2400.877     6899.099     4830.169        1.532        0.707       79.040       64.499        0.666      340.612       14.752      865.930
03/24/2014  11:28:00       56.497      101.649      107.901       45.120       55.784       37.409     2035.787     3111.833     1399.414        1.586        0.327      116.295       36.212        0.097      340.384       14.366      865.932
03/24/2014  11:29:00       83.958       28.701       43.782       52.435       53.458       42.827     2749.416     2857.716     1834.184        0.861        0.372       88.728       38.446        0.188      340.502       14.566      865.937
03/24/2014  11:30:00       62.817       50.548       17.580       46.778       20.763       31.699     2188.167      431.097     1004.808        0.522        0.181       80.629       25.929        0.103      340.185       14.030      865.930
03/24/2014  11:31:00       13.051       57.597       -8.430       22.861       29.534       19.112      522.609      872.262      365.254        0.266        0.088       59.057       11.641        0.039      340.396       14.389      865.917
03/24/2014  11:32:00       24.429       66.550      -15.042       26.718       33.857       28.538      713.875     1146.315      814.443        0.396        0.134       70.892       15.302        0.047      340.642       14.804      865.892
03/24/2014  11:33:00       -9.650       79.212      -17.452       24.935       36.984       21.288      621.764     1367.842      453.168        0.456        0.122       79.798       15.266        0.037      340.476       14.525      865.885
03/24/2014  11:34:00      -13.544       31.888        0.114       23.765       23.709       19.145      564.758      562.106      366.528        0.135        0.075       34.645        5.644        0.027      340.705       14.911      865.880
03/24/2014  11:35:00      -12.642       29.732       14.460       37.223       23.926       19.978     1385.561      572.451      399.113        0.180        0.118       32.308        8.941        0.077      341.175       15.704      865.860
03/24/2014  11:36:00       65.709     -137.272       -4.238       82.564       76.877       50.990     6816.795     5910.109     2599.955        1.925        0.766      152.189       44.352        0.085      341.122       15.614      865.848
03/24/2014  11:37:00       25.074      -16.313       50.613       54.469       72.319       42.540     2966.889     5230.046     1809.654        0.673        0.500       29.913       32.031        1.147      341.369       16.036      865.844
03/24/2014  11:38:00       47.258     -102.025       -2.362       34.957       57.140       30.338     1221.994     3265.010      920.401        0.903        0.270      112.438       32.159        0.082      340.452       14.482      865.856
03/24/2014  11:39:00      -20.921        4.847       20.567       22.987       25.530       18.372      528.404      651.761      337.532        0.120        0.076       21.475       15.272        0.506      341.188       15.728      865.828
03/24/2014  11:40:00       53.469       78.429        4.637       31.599       46.748       30.887      998.500     2185.353      953.989        0.658        0.207       94.921       32.148        0.115      340.987       15.387      865.817
03/24/2014  11:41:00       58.659       24.770        2.998       47.180       58.437       47.154     2225.971     3414.905     2223.539        0.596        0.393       63.675       31.360        0.243      341.014       15.434      865.792
03/24/2014  11:42:00       58.272      -37.685       31.391       54.322       93.374       63.270     2950.881     8718.790     4003.142        1.073        0.784       69.395       65.210        0.883      341.188       15.728      865.787
03/24/2014  11:43:00       45.119     -101.939        9.070       54.520       90.739       57.030     2972.385     8233.503     3252.378        1.348        0.723      111.477       64.491        0.335      341.077       15.540      865.787
03/24/2014  11:44:00       13.435      -60.864       43.173       51.032      120.015       64.930     2604.287    14403.522     4215.919        1.348        1.061       62.329       75.953        1.485      341.251       15.833      865.788
03/24/2014  11:45:00       25.594       27.299       60.833       41.055       41.295       36.801     1685.480     1705.273     1354.344        0.492        0.237       37.420       27.422        0.537      341.468       16.202      865.787
03/24/2014  11:46:00       31.124       -1.901       46.603       48.255       56.946       38.556     2328.506     3242.858     1486.547        0.510        0.353       31.182       33.751        1.172      341.389       16.067      865.780
03/24/2014  11:47:00       61.885       22.115       72.597       58.029      106.602       58.253     3367.308    11364.066     3393.385        1.385        0.906       65.718       71.652        1.189      341.104       15.585      865.756
03/24/2014  11:48:00        0.516      -61.968       29.199       55.796       68.248       31.194     3113.237     4657.839      973.047        0.672        0.437       61.970       24.136        0.152      341.559       16.356      865.749
03/24/2014  11:49:00      -55.159      -63.904      -11.069       69.641       40.500       21.796     4849.840     1640.238      475.063        0.711        0.348       84.417       17.488        0.043      341.299       15.915      865.736
03/24/2014  11:50:00      -43.776        2.637       39.417       50.883       48.977       35.058     2589.106     2398.719     1229.046        0.485        0.311       43.856       41.399        0.891      341.664       16.534      865.724
03/24/2014  11:51:00      -35.759      -34.377       15.846       37.554       40.547       21.784     1410.294     1644.064      474.551        0.312        0.176       49.603       19.045        0.147      341.511       16.275      865.719
03/24/2014  11:52:00      -33.515      -21.131        9.989       58.611       59.914       48.700     3435.233     3589.645     2371.666        0.553        0.470       39.620       56.436        2.029      341.512       16.275      865.726
03/24/2014  11:53:00       44.997       52.572       62.155       65.180       71.381       55.614     4248.456     5095.231     3092.883        1.054        0.622       69.199       46.069        0.443      341.400       16.084      865.716
03/24/2014  11:54:00       99.637       57.076       55.784       73.486       60.677       55.330     5400.259     3681.707     3061.419        1.422        0.607      114.826       51.554        0.202      341.137       15.642      865.720
03/24/2014  11:55:00       86.640      120.324       93.379       79.326       41.555       58.791     6292.570     1726.834     3456.333        2.109        0.574      148.271       59.817        0.163      340.912       15.259      865.710
03/24/2014  11:56:00       34.468       91.210      105.733       39.697       58.428       38.356     1575.841     3413.782     1471.168        1.357        0.323       97.506       45.784        0.220      341.190       15.730      865.709
03/24/2014  11:57:00       22.687       12.969       51.719       42.280       51.191       32.912     1787.607     2620.509     1083.227        0.442        0.275       26.132       30.483        1.361      341.796       16.757      865.695
03/24/2014  11:58:00        8.460      -28.231       -0.971       42.195       71.390       53.494     1780.459     5096.499     2861.642        0.530        0.487       29.472       51.150        3.012      341.078       15.542      865.684
03/24/2014  11:59:00      -19.490      -58.616      -18.085       68.127       77.982       31.839     4641.328     6081.154     1013.704        0.794        0.587       61.771       38.487        0.388      341.310       15.934      865.643
03/24/2014  12:00:00        1.721      -27.859       -1.252       42.943       42.281       26.079     1844.133     1787.663      680.133        0.255        0.216       27.912       18.094        0.420      341.675       16.553      865.635
03/24/2014  12:01:00        2.602      -58.944        6.941       32.575       41.894       25.859     1061.144     1755.149      668.703        0.351        0.174       59.002       18.712        0.101      341.645       16.502      865.616
03/24/2014  12:02:00       44.537        8.540        0.681       41.632       33.667       29.645     1733.202     1133.488      878.832        0.290        0.187       45.348       19.338        0.182      341.852       16.854      865.618
03/24/2014  12:03:00       66.669       84.994       17.594       62.321       49.459       40.782     3883.878     2446.210     1663.206        0.998        0.400      108.022       28.660        0.070      341.701       16.598      865.591
03/24/2014  12:04:00       48.023       63.779       24.437       41.317       42.521       31.350     1707.134     1808.039      982.792        0.573        0.225       79.837       27.215        0.116      341.719       16.627      865.590
03/24/2014  12:05:00       35.550       25.950       20.272       60.319       43.836       32.523     3638.382     1921.575     1057.754        0.448        0.331       44.014       18.984        0.186      341.893       16.922      865.578
03/24/2014  12:06:00       47.080       73.166       90.904       52.645       70.877       53.151     2771.536     5023.536     2824.977        1.322        0.531       87.005       51.507        0.350      342.028       17.151      865.568
03/24/2014  12:07:00       86.559       93.729       58.266       66.580       47.676       60.619     4432.912     2273.017     3674.684        1.502        0.519      127.584       53.270        0.174      341.409       16.101      865.567
03/24/2014  12:08:00      120.753       60.492       46.172       54.714       62.932       57.623     2993.585     3960.448     3320.410        1.532        0.514      135.057       45.453        0.113      341.383       16.056      865.559
03/24/2014  12:09:00       98.540       50.920       34.432       56.467       41.590       45.095     3188.469     1729.754     2033.548        1.022        0.348      110.919       32.842        0.088      341.381       16.052      865.557
03/24/2014  12:10:00       27.518       -7.084       46.049       59.823       41.138       43.480     3578.845     1692.344     1890.476        0.504        0.358       28.415       31.831        1.255      341.957       17.030      865.545
03/24/2014  12:11:00       85.831       36.799       52.593       53.996       58.107       46.729     2915.554     3376.397     2183.598        0.998        0.424       93.387       40.800        0.191      341.566       16.367      865.533
03/24/2014  12:12:00      132.438       67.216       -0.560       25.211       19.579       33.182      635.570      383.331     1101.057        1.209        0.106      148.519       16.658        0.013      341.098       15.574      865.519
03/24/2014  12:13:00       37.343      -62.710       -4.375       61.220       67.935       32.631     3747.884     4615.136     1064.800        0.739        0.471       72.987       38.697        0.281      341.258       15.846      865.507
03/24/2014  12:14:00      -48.942      -34.244        7.439       47.270       45.613       37.276     2234.420     2080.516     1389.483        0.466        0.285       59.732       33.280        0.310      341.810       16.782      865.462
03/24/2014  12:15:00       33.205       40.315       47.313       62.330       48.451       41.411     3884.980     2347.541     1714.850        0.646        0.397       52.229       29.541        0.320      342.220       17.478      865.451
03/24/2014  12:16:00       70.156       66.038       42.061       66.274       40.412       52.129     4392.305     1633.122     2717.429        0.990        0.437       96.348       37.214        0.149      342.057       17.200      865.441
03/24/2014  12:17:00       25.308       69.679       -2.960       69.903       21.569       30.274     4886.449      465.224      916.518        0.589        0.313       74.132       38.794        0.274      341.419       16.119      865.429
03/24/2014  12:18:00       53.790       65.273       55.869       95.316       70.093       68.572     9085.119     4912.973     4702.095        1.448        0.935       84.581       54.635        0.417      342.212       17.462      865.407
03/24/2014  12:19:00      246.162      175.681       73.531       80.750       76.958       78.373     6520.622     5922.585     6142.374        5.772        0.929      302.423       55.833        0.034      341.295       15.903      865.396
03/24/2014  12:20:00      122.158       77.658        8.778       67.830       66.612       39.413     4600.896     4437.223     1553.376        1.581        0.530      144.752       17.025        0.014      341.525       16.297      865.400
03/24/2014  12:21:00       -0.295      121.666      -18.579       34.677       54.167       23.507     1202.485     2934.070      552.601        0.992        0.234      121.666       21.408        0.031      341.632       16.480      865.396
03/24/2014  12:22:00        6.343       95.861      -10.252       34.111       61.458       36.040     1163.589     3777.049     1298.894        0.779        0.312       96.071       39.113        0.166      341.856       16.859      865.392
03/24/2014  12:23:00       38.958       91.143        7.866       45.845       58.970       51.295     2101.776     3477.423     2631.149        0.905        0.411       99.120       46.499        0.220      341.903       16.938      865.376
03/24/2014  12:24:00       73.084      129.920       -2.178       62.367       74.312       53.047     3889.651     5522.233     2813.992        1.722        0.611      149.065       39.419        0.070      341.940       17.000      865.354
03/24/2014  12:25:00      115.052      102.940       -2.116      100.795       65.795       45.795    10159.672     4328.943     2097.191        2.021        0.829      154.382       30.331        0.039      342.179       17.407      865.328
03/24/2014  12:26:00      203.007      162.851        6.491       74.462       63.020       52.502     5544.657     3971.547     2756.480        4.002        0.614      260.254       37.211        0.020      341.822       16.799      865.324
03/24/2014  12:27:00      179.327      105.188        3.188       53.703       43.324       40.543     2883.986     1876.936     1643.718        2.482        0.320      207.901       12.459        0.004      341.699       16.591      865.317
03/24/2014  12:28:00      127.546       73.372       -7.797       59.788       48.603       41.461     3574.620     2362.288     1719.045        1.468        0.383      147.144       27.954        0.036      341.749       16.677      865.308
03/24/2014  12:29:00       81.723       41.708       29.304       73.560       51.054       39.145     5411.124     2606.469     1532.355        0.941        0.477       91.751       21.822        0.057      342.452       17.872      865.288
03/24/2014  12:30:00       71.815       76.540       62.703       91.679       80.238       52.326     8404.975     6438.079     2737.972        1.626        0.879      104.956       35.286        0.113      342.655       18.215      865.271
03/24/2014  12:31:00        7.114      -26.322        6.474       54.950       40.109       35.702     3019.492     1608.769     1274.638        0.334        0.295       27.267       27.632        1.027      342.301       17.614      865.255
03/24/2014  12:32:00       10.197       22.937       32.485       39.244       34.826       30.635     1540.091     1212.820      938.501        0.269        0.185       25.102       19.666        0.614      342.828       18.511      865.236
03/24/2014  12:33:00       96.203      153.465      128.296       82.067       88.747       68.531     6734.994     7875.963     4696.521        3.428        0.965      181.126       66.674        0.136      342.264       17.549      865.211
03/24/2014  12:34:00       76.914      124.136       83.211       87.175       75.569       79.034     7599.480     5710.657     6246.404        2.390        0.978      146.032       64.011        0.192      342.105       17.281      865.226
03/24/2014  12:35:00       47.958       57.349        6.735       47.481       26.574       33.213     2254.411      706.159     1103.136        0.485        0.203       74.759       22.444        0.090      341.900       16.933      865.232
03/24/2014  12:36:00       26.998       21.817        4.341       43.315       31.282       24.643     1876.150      978.556      607.284        0.234        0.173       34.712       20.497        0.349      342.275       17.569      865.204
03/24/2014  12:37:00       32.420       31.139       29.480       50.185       39.554       36.948     2518.528     1564.556     1365.132        0.417        0.272       44.952       20.652        0.211      342.534       18.010      865.189
03/24/2014  12:38:00      132.027       64.999        1.181       54.267       52.814       37.041     2944.913     2789.293     1372.021        1.438        0.355      147.160       29.645        0.041      342.390       17.766      865.163
03/24/2014  12:39:00       76.939       89.253       61.418       70.164       51.948       47.957     4922.962     2698.571     2299.877        1.379        0.496      117.838       31.081        0.070      342.815       18.488      865.161
03/24/2014  12:40:00       55.452       77.104       86.381       80.486       52.308       54.120     6478.015     2736.140     2928.933        1.431        0.607       94.973       54.079        0.324      342.524       17.994      865.140
03/24/2014  12:41:00       68.665       36.337       48.570       67.318       68.151       42.073     4531.731     4644.620     1770.118        0.967        0.547       77.687       41.359        0.283      342.393       17.770      865.120
03/24/2014  12:42:00       42.666       60.288       63.327       74.630       48.922       62.317     5569.702     2393.338     3883.369        1.065        0.592       73.859       47.417        0.412      343.039       18.869      865.096
03/24/2014  12:43:00       30.813       37.380       65.893       48.852       52.651       42.797     2386.494     2772.179     1831.586        0.684        0.350       48.443       19.055        0.155      343.028       18.851      865.075
03/24/2014  12:44:00       65.416       81.098      114.007      110.365      104.624       90.848    12180.404    10946.210     8253.435        2.761        1.569      104.193       82.779        0.631      342.770       18.412      865.066
03/24/2014  12:45:00      106.957       17.911       68.597      111.238      101.500       91.727    12373.805    10302.243     8413.900        2.377        1.554      108.446       77.317        0.508      342.632       18.177      865.039
03/24/2014  12:46:00      132.345      115.372       98.319      129.518       96.101       75.751    16775.040     9235.475     5738.156        3.612        1.587      175.573       74.862        0.182      342.804       18.466      865.020
03/24/2014  12:47:00      115.352       34.811       77.992      105.046       94.545       59.742    11034.564     8938.799     3569.126        2.207        1.177      120.490       62.047        0.265      342.766       18.405      865.022
03/24/2014  12:48:00       76.645       43.749       71.079       67.986       67.376       73.378     4622.151     4539.507     5384.392        1.369        0.727       88.252       58.662        0.442      342.931       18.686      865.007
03/24/2014  12:49:00       77.615      116.996      136.493       78.119       72.040       72.129     6102.540     5189.748     5202.552        2.742        0.825      140.400       56.170        0.160      342.557       18.050      864.996
03/24/2014  12:50:00       65.791       71.198       85.831       78.065       54.139       37.235     6094.078     2931.057     1386.450        1.359        0.521       96.941       34.759        0.129      342.610       18.142      864.986
03/24/2014  12:51:00       81.530       50.728       42.911       83.610       66.276       42.158     6990.606     4392.530     1777.338        1.211        0.658       96.023       30.360        0.100      342.447       17.863      864.965
03/24/2014  12:52:00      109.815       54.984       21.931       69.144       64.250       36.899     4780.922     4128.080     1361.568        1.292        0.514      122.812       13.952        0.013      342.440       17.850      864.941
03/24/2014  12:53:00       68.256      -97.800       10.164      111.499      105.499       63.893    12431.966    11129.999     4082.376        2.098        1.382      119.263       74.697        0.392      342.862       18.569      864.914
03/24/2014  12:54:00       78.802     -104.508       60.526      103.789      209.129      119.010    10772.102    43734.873    14163.411        4.472        3.434      130.888      153.058        1.367      342.631       18.174      864.898
03/24/2014  12:55:00      142.461     -234.202      -13.849       87.074       62.902       36.281     7581.808     3956.660     1316.331        4.409        0.643      274.127       40.896        0.022      342.039       17.167      864.910
03/24/2014  12:56:00       99.354     -110.179       -3.503       65.346       97.916       46.004     4270.156     9587.448     2116.393        1.900        0.799      148.360       63.481        0.183      342.495       17.943      864.895
03/24/2014  12:57:00      106.600       19.137       67.032       61.519      115.235       65.895     3784.628    13279.063     4342.208        1.881        1.070      108.304       76.380        0.497      342.564       18.061      864.885
03/24/2014  12:58:00       37.740      -90.150       -2.776       39.155       45.276       35.593     1533.143     2049.937     1266.850        0.720        0.242       97.731       31.350        0.103      342.208       17.457      864.880
03/24/2014  12:59:00       55.048      -57.486       28.241       60.136       59.776       40.803     3616.291     3573.141     1664.903        0.799        0.443       79.592       31.450        0.156      342.801       18.466      864.835
03/24/2014  13:00:00       45.778      -58.019       27.855       70.511       91.160       56.435     4971.839     8310.090     3184.936        1.135        0.823       73.904       42.326        0.328      343.159       19.074      864.801
03/24/2014  13:01:00       87.820     -158.511        0.664       97.750      109.417       63.456     9555.143    11972.164     4026.646        2.919        1.278      181.213       49.411        0.074      342.787       18.439      864.813
03/24/2014  13:02:00       20.651      -54.982       62.856       53.609      116.895       78.477     2873.954    13664.329     6158.596        1.504        1.135       58.733       87.640        2.227      343.093       18.961      864.793
03/24/2014  13:03:00       53.010       18.678       78.378       79.246      119.276       63.011     6279.921    14226.826     3970.366        1.689        1.224       56.204       80.283        2.040      343.002       18.807      864.766
03/24/2014  13:04:00       79.983      -11.065       56.317       95.097      128.629       65.348     9043.459    16545.309     4270.307        1.977        1.493       80.744       85.841        1.130      342.896       18.627      864.748
03/24/2014  13:05:00       87.615        9.438       36.152       93.739       99.786       52.437     8787.063     9957.262     2749.610        1.528        1.075       88.122       45.952        0.272      342.841       18.532      864.743
03/24/2014  13:06:00      130.502      148.932      127.580      118.116       96.110       85.079    13951.454     9237.211     7238.422        4.295        1.521      198.019       75.349        0.145      342.686       18.268      864.719
03/24/2014  13:07:00      178.195       90.813        7.507       98.430       80.238       60.066     9688.466     6438.214     3607.973        2.989        0.987      200.002       45.816        0.052      342.591       18.106      864.702
03/24/2014  13:08:00      200.943      125.095       21.695       86.058       58.928       59.213     7405.954     3472.535     3506.132        3.544        0.719      236.700       32.437        0.019      342.647       18.199      864.702
03/24/2014  13:09:00      127.911       65.008       25.772      102.516       92.283       53.859    10509.603     8516.211     2900.742        2.159        1.096      143.483       42.690        0.089      342.997       18.796      864.695
03/24/2014  13:10:00       45.674        5.573       35.894       62.920       40.767       41.119     3958.882     1661.953     1690.801        0.536        0.366       46.013       33.256        0.522      343.660       19.930      864.689
03/24/2014  13:11:00       68.770      -49.420       14.908       75.635       75.699       62.449     5720.588     5730.302     3899.832        1.137        0.768       84.686       63.069        0.555      343.182       19.112      864.683
03/24/2014  13:12:00      121.709      -85.990       -7.377       64.577       69.240       51.148     4170.209     4794.231     2616.136        1.692        0.579      149.022       42.076        0.080      342.631       18.176      864.655
03/24/2014  13:13:00       35.812      -37.872       23.260       45.729       69.790       43.225     2091.167     4870.653     1868.429        0.604        0.442       52.122       34.955        0.450      343.198       19.140      864.637
03/24/2014  13:14:00      117.553      -80.617       32.469       90.850      163.993       78.983     8253.694    26893.735     6238.361        3.137        2.069      142.541       97.745        0.470      343.201       19.142      864.631
03/24/2014  13:15:00      -11.736      -67.663        9.176       79.393       81.978       54.896     6303.249     6720.445     3013.604        1.042        0.802       68.673       52.326        0.581      343.011       18.822      864.648
03/24/2014  13:16:00      -28.095       37.213       65.468       57.299       40.297       24.320     3283.129     1623.874      591.473        0.598        0.275       46.628       24.472        0.275      343.328       19.363      864.632
03/24/2014  13:17:00       20.109       27.638       24.972       20.338       23.172       25.846      413.655      536.926      668.034        0.170        0.081       34.179       19.256        0.317      342.895       18.625      864.593
03/24/2014  13:18:00       47.153       48.856       19.941       36.160       39.192       28.666     1307.520     1536.032      821.758        0.434        0.183       67.899       22.036        0.105      342.845       18.538      864.574
03/24/2014  13:19:00       59.718       72.423        8.105       37.529       50.580       37.524     1408.416     2558.351     1408.040        0.713        0.269       93.869       32.817        0.122      342.739       18.360      864.570
03/24/2014  13:20:00       68.034       59.261       18.956       21.068       25.659       24.669      443.881      658.398      608.536        0.511        0.086       90.225       14.554        0.026      342.690       18.276      864.552
03/24/2014  13:21:00       70.704       80.934       78.852       94.269       57.368       43.838     8886.708     3291.065     1921.778        1.593        0.705      107.468       39.341        0.134      343.260       19.245      864.540
03/24/2014  13:22:00      102.233      -96.019        6.600      101.321      116.070       59.540    10266.044    13472.285     3544.970        2.349        1.364      140.254       80.586        0.330      343.211       19.161      864.540
03/24/2014  13:23:00      131.016      -96.032      -13.797       91.330       84.218       77.229     8341.140     7092.643     5964.301        2.398        1.070      162.442       59.287        0.133      342.808       18.476      864.503
03/24/2014  13:24:00      167.994     -216.552      -22.363      108.312      150.519       94.197    11731.412    22656.047     8872.996        5.943        2.163      274.075       94.627        0.119      342.969       18.750      864.451
03/24/2014  13:25:00       33.456     -103.823      -11.606       89.045       73.109       57.647     7928.984     5344.974     3323.232        1.431        0.830      109.080       46.984        0.186      343.260       19.246      864.481
03/24/2014  13:26:00       22.085      -29.887       38.995       74.600       64.428       58.376     5565.116     4150.951     3407.767        0.801        0.656       37.161       36.948        0.989      343.352       19.404      864.467
03/24/2014  13:27:00        6.841      -66.827       43.673       95.957      116.886       69.350     9207.662    13662.220     4809.355        1.704        1.384       67.176       60.731        0.817      343.494       19.644      864.435
03/24/2014  13:28:00       91.594     -173.397       31.221      121.655      156.459       94.964    14799.983    24479.562     9018.179        4.386        2.415      196.102      114.380        0.340      343.280       19.278      864.420
03/24/2014  13:29:00      139.955       36.056      124.513      147.142      182.715      107.825    21650.836    33384.776    11626.179        5.152        3.333      144.525      130.166        0.811      343.103       18.976      864.418
03/24/2014  13:30:00      141.153       47.718       87.551      122.530      155.836       87.588    15013.512    24284.967     7671.732        3.841        2.349      149.001       89.260        0.359      342.965       18.741      864.410
03/24/2014  13:31:00       97.405      -96.464       -4.279       72.983       69.641       42.563     5326.503     4849.901     1811.647        1.540        0.599      137.087       17.045        0.015      343.169       19.089      864.408
03/24/2014  13:32:00       12.285       12.149       26.349       47.537       56.585       32.639     2259.793     3201.849     1065.317        0.376        0.326       17.278       23.682        1.879      343.412       19.504      864.387
03/24/2014  13:33:00      101.037       83.903       21.125       46.117       39.835       34.634     2126.757     1586.792     1199.543        1.130        0.246      131.332       15.725        0.014      342.865       18.573      864.354
03/24/2014  13:34:00      120.374      107.246       78.273       65.717       57.239       57.100     4318.710     3276.269     3260.416        2.149        0.543      161.219       25.493        0.025      343.382       19.451      864.320
03/24/2014  13:35:00       95.089       92.248       46.219       89.051       62.087       73.207     7930.114     3854.781     5359.230        1.841        0.857      132.482       50.883        0.148      343.403       19.489      864.305
03/24/2014  13:36:00       88.768      137.966      144.720       82.206      108.806       80.944     6757.755    11838.689     6551.912        3.650        1.257      164.056       79.706        0.236      343.118       19.001      864.284
03/24/2014  13:37:00      175.240      183.247      119.809      142.502       90.094       88.492    20306.846     8116.893     7830.843        5.744        1.813      253.552       89.264        0.124      343.008       18.813      864.257
03/24/2014  13:38:00      205.451      169.472      108.573      101.278       59.893       71.055    10257.202     3587.133     5048.798        5.080        0.945      266.329       66.434        0.062      342.894       18.620      864.245
03/24/2014  13:39:00      143.420       13.148       78.312      123.465      188.990      107.664    15243.527    35717.348    11591.442        4.470        3.128      144.021      126.419        0.770      343.177       19.103      864.225
03/24/2014  13:40:00      189.694     -121.795        1.527      140.363      172.798      106.955    19701.732    29859.047    11439.416        5.590        3.050      225.428      123.140        0.298      343.178       19.106      864.206
03/24/2014  13:41:00       77.443       15.495      113.215       89.009      173.504      110.194     7922.568    30103.732    12142.620        3.460        2.508       78.978      129.382        2.684      343.179       19.105      864.209
03/24/2014  13:42:00       98.853       64.486      112.223       98.860      117.648       80.704     9773.309    13840.951     6513.203        2.832        1.506      118.027       69.174        0.344      343.261       19.246      864.188
03/24/2014  13:43:00       61.282       20.880       50.586       61.531       73.113       48.224     3786.079     5345.558     2325.535        0.910        0.573       64.741       41.651        0.414      343.140       19.043      864.184
03/24/2014  13:44:00       18.000      -54.170       10.933      130.330       88.074       40.807    16986.013     7756.946     1665.244        1.489        1.320       57.082       37.108        0.423      343.557       19.751      864.159
03/24/2014  13:45:00      165.737     -164.735       -9.964      112.810      156.683      102.248    12726.062    24549.678    10454.655        5.121        2.387      233.680      108.872        0.217      343.165       19.084      864.130
03/24/2014  13:46:00      124.085     -128.720       -0.042      103.514      147.091       83.619    10715.083    21635.714     6992.130        3.565        1.967      178.790       92.410        0.267      343.192       19.128      864.137
03/24/2014  13:47:00       66.795       58.849       86.945       79.961      117.726       68.794     6393.785    13859.459     4732.681        2.023        1.249       89.021       80.769        0.823      343.479       19.619      864.131
03/24/2014  13:48:00       83.296     -107.133       -1.122      102.443       80.069       47.544    10494.473     6411.102     2260.423        1.879        0.958      135.705       42.507        0.098      343.558       19.753      864.106
03/24/2014  13:49:00      -28.399     -168.415      -22.702       70.576       62.365       47.806     4980.921     3889.446     2285.450        2.042        0.558      170.792       35.192        0.042      343.611       19.844      864.105
03/24/2014  13:50:00       70.894     -221.936      -39.158       78.280       73.864       41.998     6127.753     5455.838     1763.862        3.458        0.667      232.984       32.122        0.019      342.994       18.791      864.107
03/24/2014  13:51:00      -38.455      -88.449        0.767       70.062       92.308       46.909     4908.696     8520.847     2200.410        1.246        0.781       96.447       50.822        0.278      343.390       19.468      864.091
03/24/2014  13:52:00      -46.855     -111.248       -5.657       81.684       58.509       33.512     6672.255     3423.296     1123.062        1.291        0.561      120.713       44.814        0.138      342.766       18.404      864.051
03/24/2014  13:53:00       -7.526       -6.699       31.258       26.188       40.098       30.997      685.828     1607.832      960.817        0.217        0.163       10.076       23.000        5.211      343.803       20.172      864.015
03/24/2014  13:54:00       59.419     -131.608      -18.657      110.375       80.715       47.387    12182.566     6514.892     2245.567        2.107        1.047      144.400       51.900        0.129      343.458       19.582      863.991
03/24/2014  13:55:00       66.076      -57.476       37.133       76.267      109.806       63.644     5816.698    12057.395     4050.535        1.548        1.096       87.576       78.467        0.803      343.846       20.244      863.968
03/24/2014  13:56:00       -2.432      -17.050       61.432       48.214      114.364       54.141     2324.599    13079.139     2931.283        1.120        0.917       17.223       59.759       12.040      343.866       20.280      863.948
03/24/2014  13:57:00      116.882       75.103       50.738       92.511       61.916       61.027     8558.213     3833.594     3724.354        1.899        0.806      138.931       56.743        0.167      343.355       19.408      863.940
03/24/2014  13:58:00       36.356     -125.237        9.823       84.571      119.505       49.068     7152.280    14281.383     2407.678        2.047        1.192      130.407       61.629        0.223      343.865       20.276      863.916
03/24/2014  13:59:00       99.155     -192.367       -4.473       76.911       95.553       45.050     5915.234     9130.444     2029.546        3.196        0.854      216.418       53.877        0.062      343.125       19.014      863.903
03/24/2014  14:00:00       28.091     -119.755       40.655       80.338      134.756       80.094     6454.271    18159.295     6415.037        2.390        1.551      123.006       84.235        0.469      343.571       19.776      863.857
03/24/2014  14:01:00       24.557     -126.816       26.051       58.344       99.913       52.430     3403.985     9982.580     2748.911        1.675        0.807      129.171       62.096        0.231      343.749       20.079      863.840
03/24/2014  14:02:00      106.341      -84.754       45.877      109.427      156.893       89.305    11974.292    24615.459     7975.446        3.257        2.228      135.984      110.472        0.660      343.571       19.774      863.824
03/24/2014  14:03:00       62.635     -180.537       -9.295      103.602      118.174       74.860    10733.412    13965.203     5604.069        3.345        1.515      191.094       56.826        0.088      343.599       19.822      863.790
03/24/2014  14:04:00       51.899      -66.689       44.560      119.485      142.751       95.420    14276.590    20377.982     9104.947        2.644        2.188       84.504      118.306        1.960      343.572       19.777      863.791
03/24/2014  14:05:00       29.837       66.527      127.560       81.833      100.038       93.043     6696.589    10007.536     8656.935        2.347        1.268       72.911       93.687        1.651      343.499       19.651      863.784
03/24/2014  14:06:00       -0.129       70.650      106.422       92.700      105.032       76.039     8593.208    11031.772     5781.976        2.086        1.270       70.650       75.878        1.153      343.667       19.941      863.762
03/24/2014  14:07:00       94.887       75.777       50.564       60.000       48.807       59.630     3600.014     2382.089     3555.745        1.342        0.477      121.432       44.343        0.133      343.139       19.041      863.769
03/24/2014  14:08:00      161.913      121.457      113.078       91.238       90.916       79.290     8324.433     8265.712     6286.879        3.831        1.144      202.404       69.190        0.117      343.121       19.006      863.717
03/24/2014  14:09:00       80.878      121.488      127.521       84.606       84.033       70.541     7158.152     7061.585     4975.986        2.838        0.960      145.947       63.547        0.190      343.350       19.396      863.662
03/24/2014  14:10:00      140.583       75.593       99.629      101.476      108.399       82.222    10297.450    11750.280     6760.511        3.210        1.440      159.618       85.114        0.284      343.223       19.182      863.631
03/24/2014  14:11:00       40.927      106.785      143.456       68.683       79.549       47.982     4717.325     6328.017     2302.243        2.350        0.667      114.360       44.990        0.155      343.516       19.680      863.616
03/24/2014  14:12:00       75.797      -56.248       57.676      100.238      162.157       67.628    10047.643    26294.744     4573.496        2.657        2.046       94.388       93.153        0.974      343.745       20.072      863.597
03/24/2014  14:13:00      121.864      -94.938       49.175      100.945      158.456       82.088    10189.944    25108.231     6738.388        3.415        2.102      154.480       96.099        0.387      343.419       19.516      863.552
03/24/2014  14:14:00       59.811       63.819      104.885      103.608      118.500       99.544    10734.633    14042.358     9909.027        2.666        1.734       87.465       94.427        1.166      343.736       20.056      863.535
03/24/2014  14:15:00       20.073       51.645      114.901      119.668      124.574       85.493    14320.404    15518.595     7309.099        2.670        1.857       55.409       87.329        2.484      343.834       20.224      863.516
03/24/2014  14:16:00      128.439      -74.682       60.983      141.424      150.667       86.314    20000.631    22700.585     7450.035        3.796        2.508      148.573       93.911        0.400      343.928       20.383      863.504
03/24/2014  14:17:00      158.898      -51.727       65.571      147.742      141.927      102.084    21827.694    20143.170    10421.133        4.230        2.620      167.105      115.659        0.479      343.699       19.993      863.508
03/24/2014  14:18:00      195.014     -222.244      -22.885      102.817      131.523       65.116    10571.284    17298.416     4240.090        6.002        1.605      295.673       73.308        0.061      343.249       19.225      863.485
03/24/2014  14:19:00      290.717     -327.190      -58.538      135.756      134.736       84.496    18429.594    18153.740     7139.653       11.935        2.186      437.687       87.802        0.040      343.131       19.023      863.441
03/24/2014  14:20:00      110.771      -83.357       41.095      122.322      134.970       86.261    14962.644    18217.031     7440.957        3.076        2.031      138.631       90.259        0.424      343.689       19.976      863.473
03/24/2014  14:21:00      205.444     -258.324      -26.319      135.908      136.143       82.280    18471.079    18534.956     6769.968        7.670        2.189      330.058       94.957        0.083      343.206       19.152      863.458
03/24/2014  14:22:00       50.443       94.954      123.902       90.333      124.501       86.791     8160.043    15500.406     7532.635        2.905        1.560      107.521       92.166        0.735      343.792       20.150      863.455
03/24/2014  14:23:00       77.537       35.724       87.698      120.965      124.467       70.325    14632.597    15492.134     4945.621        2.502        1.754       85.371       57.738        0.457      343.890       20.319      863.414
03/24/2014  14:24:00      135.443     -123.418       54.305      132.638      180.219      131.562    17592.769    32478.892    17308.648        5.194        3.369      183.240      133.661        0.532      343.786       20.141      863.386
03/24/2014  14:25:00       78.929        3.900      110.819      100.695      177.545      105.945    10139.386    31522.349    11224.346        3.570        2.644       79.025      114.417        2.096      343.680       19.960      863.392
03/24/2014  14:26:00      152.377     -213.672      -27.480      183.574      198.803      105.647    33699.490    39522.504    11161.383        7.699        4.219      262.439      133.559        0.259      343.487       19.629      863.376
03/24/2014  14:27:00       50.772      100.643      160.856      110.157      119.266       89.285    12134.571    14224.284     7971.802        3.645        1.717      112.725       89.555        0.631      343.606       19.833      863.392
03/24/2014  14:28:00       86.633      -17.596       49.014       76.898      123.641       79.774     5913.259    15287.027     6363.963        1.889        1.378       88.402       99.734        1.273      343.388       19.462      863.388
03/24/2014  14:29:00      110.011        1.615      109.154      153.879      181.856      107.788    23678.702    33071.570    11618.181        4.618        3.418      110.023      141.842        1.662      343.860       20.266      863.338
03/24/2014  14:30:00       85.150       34.757       92.198       93.024      112.779       99.700     8653.493    12719.061     9940.098        2.413        1.566       91.970       90.478        0.968      343.897       20.332      863.314
03/24/2014  14:31:00      200.072      -91.134       50.785      152.158      187.709      111.602    23152.039    35234.603    12455.037        6.087        3.542      219.850      126.591        0.332      344.034       20.563      863.281
03/24/2014  14:32:00      127.854      -89.333       43.398       90.598      148.175       93.032     8208.010    21955.761     8654.901        3.251        1.941      155.971       99.600        0.408      343.568       19.768      863.301
03/24/2014  14:33:00      165.645     -170.938      -21.384       95.569      116.809       59.832     9133.446    13644.360     3579.903        4.173        1.318      238.029       59.368        0.062      343.904       20.342      863.275
03/24/2014  14:34:00      171.738     -184.943       24.857      142.131      201.506      109.214    20201.177    40604.543    11927.679        6.851        3.637      252.385      134.646        0.285      343.926       20.380      863.243
03/24/2014  14:35:00       59.286     -140.879       27.180      130.047      170.909      114.613    16912.293    29209.823    13136.163        4.167        2.963      152.845       91.681        0.360      343.898       20.333      863.227
03/24/2014  14:36:00       27.198     -157.038       40.334       91.014      159.246       98.555     8283.580    25359.210     9712.990        3.518        2.168      159.376       97.689        0.376      343.811       20.184      863.269
03/24/2014  14:37:00       48.061     -207.689      -15.772       97.345       91.662       67.863     9476.068     8401.862     4605.383        3.408        1.124      213.177       60.765        0.081      343.856       20.259      863.279
03/24/2014  14:38:00       49.708     -118.799       24.829       91.514       78.407       65.543     8374.779     6147.599     4295.896        1.801        0.941      128.779       54.454        0.179      343.928       20.384      863.276
03/24/2014  14:39:00      -49.727      -24.787       -4.350       57.607       55.245       32.826     3318.552     3052.038     1077.538        0.528        0.372       55.562       28.753        0.268      343.533       19.712      863.255
03/24/2014  14:40:00       20.502       16.093       37.829       43.875       39.522       36.418     1925.028     1561.963     1326.276        0.346        0.241       26.064       21.646        0.690      344.148       20.762      863.230
03/24/2014  14:41:00       79.537       67.016       82.119       82.388       75.147       58.479     6787.856     5647.030     3419.745        1.671        0.793      104.006       42.992        0.171      343.945       20.413      863.219
03/24/2014  14:42:00       71.748       14.483       53.051       85.879      109.470       69.085     7375.126    11983.647     4772.781        1.615        1.207       73.196       72.361        0.977      344.066       20.620      863.219
03/24/2014  14:43:00      111.614     -189.996        9.661       80.881      100.178       57.806     6541.689    10035.596     3341.494        3.428        0.996      220.355       59.439        0.073      343.889       20.314      863.194
03/24/2014  14:44:00      101.412      -76.951        1.764       80.582      114.218       58.947     6493.518    13045.852     3474.700        1.961        1.151      127.302       56.702        0.198      344.188       20.827      863.190
03/24/2014  14:45:00       93.960       88.948      144.609      112.158      153.427      105.354    12579.493    23539.839    11099.560        4.243        2.361      129.384      114.256        0.780      344.030       20.557      863.166
03/24/2014  14:46:00       95.411      -69.311       45.003      122.280      124.683       89.740    14952.467    15545.940     8053.219        2.724        1.928      117.930       80.726        0.469      344.303       21.024      863.160
03/24/2014  14:47:00       55.966      -28.454       79.562       91.971      130.507       92.709     8458.599    17031.987     8594.962        2.217        1.704       62.784       92.726        2.181      344.098       20.674      863.174
03/24/2014  14:48:00      124.176     -265.030        4.222      109.498      117.777       71.605    11989.881    13871.523     5127.324        5.833        1.549      292.679       60.616        0.043      343.837       20.227      863.167
03/24/2014  14:49:00      118.853     -177.994       21.213      124.725      151.824       96.906    15556.431    23050.389     9390.701        4.712        2.400      214.028      104.236        0.237      343.869       20.280      863.160
03/24/2014  14:50:00       73.171      -88.320       41.395      105.679      125.168       73.980    11168.102    15666.917     5473.083        2.358        1.615      114.693       77.291        0.454      344.066       20.618      863.170
03/24/2014  14:51:00       45.368      -74.880        5.350       75.569       67.037       43.066     5710.626     4493.896     1854.702        0.987        0.603       87.552       30.276        0.120      344.273       20.975      863.158
03/24/2014  14:52:00       25.321      -45.461       26.530       78.636       84.387       63.190     6183.634     7121.091     3993.032        1.035        0.865       52.037       55.548        1.139      344.435       21.251      863.134
03/24/2014  14:53:00        3.012      -20.681       89.765       64.590      124.123       65.958     4171.843    15406.465     4350.430        1.621        1.196       20.899       74.867       12.833      344.244       20.926      863.098
03/24/2014  14:54:00       64.550      -55.856       68.545       91.325      193.785      102.081     8340.244    37552.465    10420.596        3.414        2.816       85.361      119.915        1.973      343.908       20.349      863.096
03/24/2014  14:55:00      155.343     -105.615       49.911       97.812      209.166      115.950     9567.116    43750.304    13444.302        5.226        3.338      187.845      146.169        0.605      343.523       19.691      863.090
03/24/2014  14:56:00      172.467       81.493       73.546       76.716       91.973       44.570     5885.293     8458.970     1986.500        2.906        0.817      190.751       27.363        0.021      343.439       19.547      863.041
03/24/2014  14:57:00       53.461      107.341      115.199       74.474       67.229       46.570     5546.303     4519.780     2168.758        1.994        0.612      119.917       45.476        0.144      343.810       20.182      863.013
03/24/2014  14:58:00      100.438      -24.344       31.387       81.628      113.258       46.531     6663.050    12827.479     2165.150        1.666        1.083      103.346       49.632        0.231      343.704       20.001      863.012
03/24/2014  14:59:00      103.916       48.736       39.613       87.939       84.146       37.972     7733.355     7080.510     1441.850        1.550        0.813      114.777       30.935        0.073      343.847       20.246      862.986
03/24/2014  15:00:00       30.892       75.877       82.074       36.901       53.878       42.728     1361.706     2902.829     1825.695        0.977        0.305       81.925       33.465        0.167      344.023       20.549      862.974
03/24/2014  15:01:00       48.201       62.504       47.846       51.479       51.151       46.291     2650.094     2616.400     2142.832        0.796        0.370       78.931       34.252        0.188      343.812       20.189      862.969
03/24/2014  15:02:00        7.098       36.843       36.632       71.707       49.689       36.994     5141.953     2469.039     1368.547        0.586        0.449       37.521       27.881        0.552      344.192       20.837      862.959
03/24/2014  15:03:00      -26.907      -69.040      -20.107       67.478       75.331       34.252     4553.267     5674.814     1173.217        0.865        0.570       74.098       22.476        0.092      344.353       21.112      862.936
03/24/2014  15:04:00       15.754       48.982       50.921       53.213       74.941       41.882     2831.656     5616.220     1754.135        0.772        0.510       51.453       27.021        0.276      344.367       21.135      862.920
03/24/2014  15:05:00      -52.884      -13.391       28.567       68.459      104.893       55.405     4686.585    11002.523     3069.700        1.127        0.938       54.553       72.571        1.770      344.260       20.951      862.910
03/24/2014  15:06:00     -185.801      -61.596      -11.867       92.390       74.593       43.710     8535.837     5564.144     1910.526        2.723        0.801      195.745       49.844        0.065      343.943       20.409      862.880
03/24/2014  15:07:00      -88.624     -103.232        7.918       70.463       73.554       39.104     4964.968     5410.142     1529.128        1.524        0.595      136.056       33.868        0.062      343.973       20.462      862.855
03/24/2014  15:08:00       55.931      -79.404       48.441       86.009      167.063       91.291     7397.586    27910.163     8334.009        2.770        2.182       97.125      113.409        1.363      344.491       21.345      862.847
03/24/2014  15:09:00      190.716     -206.634      -26.282      100.178      129.747       66.237    10035.616    16834.253     4387.314        5.550        1.563      281.194       75.263        0.072      343.991       20.491      862.856
03/24/2014  15:10:00       98.219     -185.977       -3.048       90.020       94.337       57.306     8103.526     8899.444     3283.948        3.226        1.014      210.320       55.912        0.071      344.199       20.846      862.839
03/24/2014  15:11:00      102.591      -97.454       32.905      147.134      162.419       87.863    21648.351    26379.896     7719.896        3.842        2.787      141.500      102.740        0.527      344.520       21.395      862.830
03/24/2014  15:12:00      115.499     -259.629      -34.955      207.203      175.105      122.156    42933.080    30661.844    14922.139        8.523        4.426      284.161      114.883        0.163      344.193       20.834      862.758
03/24/2014  15:13:00      171.780     -324.734      -49.315      169.219      138.223       94.504    28635.162    19105.641     8931.030        9.702        2.834      367.370       85.596        0.054      344.059       20.606      862.796
03/24/2014  15:14:00      142.809     -212.533       -2.994      152.616      194.191      124.196    23291.566    37710.202    15424.672        7.099        3.821      256.056      137.283        0.287      343.851       20.251      862.806
03/24/2014  15:15:00      153.778     -172.474      -39.515       97.250      101.285       55.656     9457.513    10258.596     3097.580        3.888        1.141      231.074       52.643        0.052      343.733       20.050      862.866
03/24/2014  15:16:00       49.104     -107.939       41.681       89.188      128.393       90.800     7954.521    16484.878     8244.687        2.424        1.634      118.583       63.958        0.291      344.083       20.648      862.841
03/24/2014  15:17:00        9.647       -9.577      104.840       81.476      129.809      104.370     6638.311    16850.498    10893.163        2.277        1.719       13.593      102.436       56.790      344.076       20.637      862.829
03/24/2014  15:18:00      -13.379       18.729       20.963       53.478       38.752       38.921     2859.848     1501.697     1514.843        0.342        0.294       23.017       12.972        0.318      344.316       21.048      862.859
03/24/2014  15:19:00      127.210      -30.409       11.170       73.679       64.561       34.772     5428.650     4168.166     1209.064        1.402        0.540      130.794       35.202        0.072      343.805       20.175      862.843
03/24/2014  15:20:00       64.217      -14.802       65.269       75.482      118.972       60.177     5697.516    14154.362     3621.266        1.603        1.174       65.901       70.396        1.141      344.040       20.575      862.825
03/24/2014  15:21:00       98.960       63.325       39.117       88.243       76.572       52.412     7786.820     5863.272     2747.034        1.586        0.820      117.486       37.837        0.104      343.918       20.367      862.824
03/24/2014  15:22:00       71.255       25.646       70.017      108.254       99.843       70.240    11718.822     9968.629     4933.689        1.862        1.331       75.730       90.457        1.427      343.830       20.217      862.834
03/24/2014  15:23:00       75.766       95.064       67.614       71.472       57.088       69.872     5108.257     3259.094     4882.106        1.630        0.662      121.563       57.869        0.227      343.749       20.080      862.777
03/24/2014  15:24:00      126.923       71.839       24.062       84.925       53.610       49.360     7212.321     2873.984     2436.415        1.718        0.626      145.843       45.938        0.099      343.784       20.138      862.742
03/24/2014  15:25:00       86.599       14.582       17.205       80.336       52.088       44.960     6453.846     2713.160     2021.420        0.960        0.559       87.818       38.027        0.188      343.650       19.911      862.735
03/24/2014  15:26:00       27.845       44.178        2.453       25.228       20.031       22.736      636.463      401.238      516.948        0.214        0.078       52.221       16.241        0.097      343.811       20.186      862.733
03/24/2014  15:27:00        1.729       16.460       51.249       25.606       44.327       28.355      655.674     1964.850      804.018        0.316        0.171       16.551       26.908        2.643      344.439       21.259      862.740
03/24/2014  15:28:00       27.178      -28.760       45.275       54.024      141.018       74.078     2918.631    19885.969     5487.494        1.595        1.415       39.570       89.286        5.091      344.357       21.117      862.736
03/24/2014  15:29:00       -3.255      -99.860       12.942       61.364       81.122       59.568     3765.536     6580.713     3548.379        1.202        0.695       99.913       48.204        0.233      344.369       21.138      862.709
03/24/2014  15:30:00       92.663     -154.205        5.696       82.123      135.911       60.579     6744.141    18471.888     3669.838        3.064        1.444      179.904       75.398        0.176      344.359       21.119      862.695
03/24/2014  15:31:00       49.339      -24.813      109.318       77.550      181.451       96.972     6013.958    32924.356     9403.579        3.166        2.417       55.227      108.978        3.894      344.504       21.367      862.670
03/24/2014  15:32:00      107.523     -116.634       22.885      109.494      163.262      100.849    11988.881    26654.420    10170.543        3.724        2.441      158.634      125.626        0.627      344.313       21.042      862.679
03/24/2014  15:33:00       59.698      -56.431       93.480       91.346      148.004       94.362     8344.183    21905.059     8904.210        2.731        1.958       82.148       82.612        1.011      344.412       21.211      862.636
03/24/2014  15:34:00      119.641      -72.561       31.600      105.216      121.267       87.967    11070.346    14705.644     7738.221        2.704        1.676      139.925       90.658        0.420      343.941       20.406      862.639
03/24/2014  15:35:00      193.778     -174.191      -36.981       60.887       72.474       43.692     3707.250     5252.505     1909.033        4.006        0.543      260.562       34.260        0.017      343.664       19.930      862.620
03/24/2014  15:36:00       34.495     -139.435       11.444       56.088       92.521       51.880     3145.907     8560.116     2691.536        1.758        0.720      143.639       39.062        0.074      344.068       20.624      862.610
03/24/2014  15:37:00      111.351     -168.452        5.816       98.125      152.256       80.924     9628.503    23181.979     6548.700        4.008        1.968      201.929       83.065        0.169      344.213       20.870      862.572
03/24/2014  15:38:00      216.856     -245.568      -31.400      128.579      109.190       67.396    16532.445    11922.394     4542.157        7.065        1.650      327.613       69.693        0.045      343.931       20.388      862.550
03/24/2014  15:39:00      178.489     -168.670       -3.352      140.667      168.536      105.404    19787.338    28404.543    11110.026        5.980        2.965      245.576      121.085        0.243      343.991       20.491      862.515
03/24/2014  15:40:00      169.284     -219.883      -15.255       86.705      143.104       75.075     7517.765    20478.676     5636.253        5.543        1.682      277.499       83.451        0.090      344.150       20.762      862.483
03/24/2014  15:41:00       58.084     -104.474       -2.008       82.338       97.270       53.191     6779.474     9461.471     2829.314        1.668        0.954      119.535       45.861        0.147      344.389       21.173      862.498
03/24/2014  15:42:00     -102.088      -82.080      -11.125       97.597       71.104       40.878     9525.091     5055.794     1671.022        1.676        0.813      130.993       43.131        0.108      344.419       21.223      862.502
03/24/2014  15:43:00      -58.070     -233.100      -28.734      132.717      148.856       66.318    17613.857    22158.095     4398.081        5.134        2.209      240.224       68.803        0.082      344.366       21.130      862.515
03/24/2014  15:44:00      -13.776     -154.808        6.753       94.767      119.919       57.912     8980.752    14380.670     3353.850        2.545        1.336      155.419       60.366        0.151      344.228       20.897      862.498
03/24/2014  15:45:00       98.596     -190.436       -8.881      104.257      117.915       74.009    10869.572    13903.862     5477.311        3.815        1.513      214.446       62.377        0.085      344.566       21.474      862.455
03/24/2014  15:46:00       75.600      -96.525       35.591      112.404      150.474       86.599    12634.552    22642.397     7499.352        2.953        2.139      122.607      102.782        0.703      344.453       21.282      862.453
03/24/2014  15:47:00       -5.572     -229.666      -33.013      125.641       95.586       76.405    15785.623     9136.690     5837.696        4.231        1.538      229.734       67.231        0.086      344.437       21.250      862.459
03/24/2014  15:48:00      -22.417     -149.686       -7.843       92.108      103.435       50.638     8483.889    10698.700     2564.249        2.235        1.087      151.355       38.859        0.066      344.541       21.432      862.470
03/24/2014  15:49:00      -83.243     -136.738        4.494       84.238      103.325       57.031     7096.096    10676.101     3252.530        2.333        1.051      160.083       57.366        0.128      344.455       21.285      862.467
03/24/2014  15:50:00     -145.179     -134.232        0.713      135.305      110.065       66.981    18307.539    12114.252     4486.474        3.700        1.745      197.725       64.027        0.105      344.219       20.881      862.458
03/24/2014  15:51:00      -68.393     -148.908       -9.876      132.368      106.759       54.408    17521.272    11397.487     2960.260        2.941        1.594      163.863       51.504        0.099      344.236       20.908      862.457
03/24/2014  15:52:00     -102.035     -172.168       -1.613      105.959       92.285       56.040    11227.249     8516.524     3140.430        3.147        1.144      200.133       48.284        0.058      344.322       21.056      862.512
03/24/2014  15:53:00      -63.970     -223.221      -15.179       82.478      118.364       54.279     6802.654    14010.077     2946.180        3.895        1.188      232.206       61.801        0.071      344.006       20.514      862.530
03/24/2014  15:54:00     -143.829      -45.338      -28.055       72.659       65.327       39.743     5279.376     4267.619     1579.509        1.733        0.556      150.805       33.956        0.051      343.895       20.328      862.482
03/24/2014  15:55:00      -25.261       -7.613       -6.767       37.291       31.002       23.984     1390.583      961.119      575.232        0.183        0.146       26.383       22.484        0.726      343.967       20.452      862.432
03/24/2014  15:56:00       -5.374       59.383       -2.717       65.186       31.639       26.989     4249.224     1001.017      728.386        0.477        0.299       59.626       27.031        0.206      343.996       20.501      862.360
03/24/2014  15:57:00       81.960       69.359       10.403       67.957       58.510       52.483     4618.172     3423.393     2754.494        1.121        0.540      107.369       42.125        0.154      344.092       20.665      862.321
03/24/2014  15:58:00      131.101      156.970      156.261      120.408      122.742       89.270    14497.990    15065.611     7969.206        5.188        1.877      204.516       88.524        0.187      344.416       21.215      862.295
03/24/2014  15:59:00      140.377       84.308       73.366      117.856       91.455       69.697    13889.973     8364.011     4857.730        2.965        1.356      163.749       68.823        0.177      344.343       21.091      862.306
03/24/2014  16:00:00      176.519      -39.444       60.206      150.763      169.606       98.941    22729.590    28766.343     9789.224        4.880        3.064      180.872      112.756        0.389      344.363       21.125      862.293
03/24/2014  16:01:00      195.166      -23.855       73.116      123.504      219.959      108.298    15253.224    48381.831    11728.534        5.967        3.768      196.618      124.526        0.401      344.157       20.772      862.291
03/24/2014  16:02:00       46.713       31.600       57.799       75.855       76.536       56.696     5754.043     5857.747     3214.383        1.067        0.741       56.398       42.622        0.571      344.363       21.129      862.301
03/24/2014  16:03:00      102.198      100.899      100.887      104.353       75.177       61.207    10889.588     5651.517     3746.280        2.554        1.014      143.614       53.709        0.140      344.280       20.985      862.302
03/24/2014  16:04:00       24.491      -32.777       27.286      118.896      101.330       57.467    14136.352    10267.679     3302.434        1.506        1.385       40.916       60.574        2.192      344.677       21.664      862.282
03/24/2014  16:05:00      164.022      -48.924       51.408      146.735      180.469      109.236    21531.018    32568.964    11932.476        4.898        3.302      171.164      133.819        0.611      344.064       20.614      862.265
03/24/2014  16:06:00      125.037       57.491       97.394      113.884      120.576      105.639    12969.671    14538.626    11159.512        3.354        1.933      137.621      118.631        0.743      344.029       20.556      862.268
03/24/2014  16:07:00       46.936      -33.248       57.829       62.890       85.499       67.475     3955.174     7310.064     4552.892        1.123        0.791       57.519       56.849        0.977      344.394       21.181      862.260
03/24/2014  16:08:00      -28.362      -31.428       47.230       70.995      104.938       65.655     5040.322    11011.910     4310.642        1.219        1.018       42.333       68.774        2.639      344.503       21.366      862.264
03/24/2014  16:09:00       37.764     -233.877      -34.337      140.453      105.196       59.786    19726.938    11066.115     3574.351        4.583        1.718      236.907       48.018        0.041      344.305       21.026      862.260
03/24/2014  16:10:00      122.150     -170.140       12.725       92.116      109.244       62.867     8485.347    11934.160     3952.203        3.420        1.219      209.448       57.534        0.075      344.149       20.760      862.260
03/24/2014  16:11:00       84.052      -91.765       33.241       81.806       89.020       62.764     6692.276     7924.536     3939.292        1.757        0.928      124.441       62.794        0.255      344.241       20.920      862.247
03/24/2014  16:12:00       69.082     -123.581        3.289       70.512       93.741       62.917     4971.942     8787.354     3958.545        1.888        0.886      141.579       43.370        0.094      344.272       20.972      862.235
03/24/2014  16:13:00       82.757      -90.868       18.123       78.091      118.075       75.794     6098.154    13941.670     5744.758        2.061        1.289      122.905       60.630        0.243      344.458       21.290      862.216
03/24/2014  16:14:00      135.066     -224.582        0.527      100.188      128.943       68.496    10037.664    16626.196     4691.768        5.001        1.568      262.069       71.679        0.075      344.488       21.339      862.210
03/24/2014  16:15:00      143.746     -121.889       32.977      119.334      162.789       83.222    14240.595    26500.135     6925.910        4.213        2.383      188.467      101.588        0.291      344.146       20.756      862.231
03/24/2014  16:16:00      172.022     -188.385      -11.927       95.506      149.015       63.163     9121.396    22205.440     3989.568        5.026        1.766      255.109       82.686        0.105      343.973       20.458      862.237
03/24/2014  16:17:00      152.235     -158.262        8.440       91.439      133.504       67.257     8361.101    17823.282     4523.560        3.950        1.535      219.596       86.779        0.156      344.122       20.714      862.229
03/24/2014  16:18:00      186.868     -223.792      -55.772       58.648       63.443       40.559     3439.593     4025.069     1645.054        4.861        0.455      291.552       23.007        0.006      343.943       20.405      862.232
03/24/2014  16:19:00       59.306     -107.829       -1.544       74.163       77.084       53.824     5500.158     5941.879     2896.987        1.474        0.717      123.062       45.363        0.136      344.187       20.827      862.238
03/24/2014  16:20:00      -36.653       -1.766       17.516       58.315       44.120       35.851     3400.582     1946.534     1285.326        0.414        0.332       36.695       42.410        1.336      344.539       21.427      862.216
03/24/2014  16:21:00       68.035     -129.475       10.182       45.771       84.153       44.131     2095.008     7081.797     1947.513        1.631        0.556      146.262       50.207        0.118      344.258       20.949      862.217
03/24/2014  16:22:00       30.917      -40.341       11.163       27.597       44.108       29.137      761.575     1945.557      848.955        0.313        0.178       50.826       26.086        0.263      344.462       21.298      862.210
03/24/2014  16:23:00       19.548        2.222       23.076       56.606       56.417       42.302     3204.212     3182.870     1789.481        0.455        0.409       19.674       31.839        2.619      344.480       21.329      862.207
03/24/2014  16:24:00        6.845       -8.087       29.533       56.636       56.982       39.208     3207.684     3246.929     1537.303        0.449        0.400       10.595       40.078       14.309      344.483       21.334      862.191
03/24/2014  16:25:00        0.876      -32.629       29.436       62.087       56.719       34.593     3854.824     3217.085     1196.674        0.510        0.413       32.641       33.391        1.047      344.514       21.389      862.185
03/24/2014  16:26:00     -194.845      -61.490       -5.793       94.658       49.590       35.129     8960.101     2459.216     1234.072        2.721        0.633      204.317       39.134        0.037      344.598       21.528      862.171
03/24/2014  16:27:00     -161.223      -42.883      -11.520      145.570       48.850       36.465    21190.544     2386.369     1329.715        2.643        1.245      166.829       50.662        0.092      344.218       20.880      862.166
03/24/2014  16:28:00     -130.276     -103.517       -1.649       84.932       87.618       41.162     7213.470     7676.975     1694.272        2.213        0.829      166.396       32.706        0.039      344.423       21.229      862.170
03/24/2014  16:29:00      -40.116      -36.231        6.327       88.033       52.111       37.156     7749.755     2715.580     1380.582        0.740        0.592       54.055       28.491        0.278      344.582       21.504      862.160
03/24/2014  16:30:00      -37.560      -82.752        9.988       73.474       97.487       38.543     5398.429     9503.786     1485.589        1.237        0.819       90.877       47.557        0.274      344.652       21.621      862.138
03/24/2014  16:31:00       48.548     -115.674       10.077       67.644       93.287       44.636     4575.685     8702.376     1992.330        1.555        0.764      125.449       57.549        0.210      344.453       21.282      862.129
03/24/2014  16:32:00      -50.737     -148.096      -15.333       48.950       45.623       32.780     2396.109     2081.443     1074.514        1.515        0.278      156.546       14.675        0.009      344.330       21.069      862.131
03/24/2014  16:33:00     -143.485      -39.032        9.870      103.260       69.879       41.087    10662.536     4883.122     1688.131        1.972        0.862      148.699       41.629        0.078      344.689       21.684      862.112
03/24/2014  16:34:00     -319.832      -62.915       -3.911      126.576       96.524       52.407    16021.540     9316.834     2746.543        6.717        1.404      325.961       51.750        0.025      344.336       21.079      862.099
03/24/2014  16:35:00     -417.480       -0.565      -31.258      118.173      105.660       61.537    13964.803    11164.075     3786.855       10.209        1.446      417.480       58.892        0.020      344.384       21.162      862.094
03/24/2014  16:36:00     -346.265       28.561      -35.878      102.205       91.110       44.848    10445.960     8301.063     2011.380        7.138        1.038      347.441       36.025        0.011      344.194       20.836      862.103
03/24/2014  16:37:00     -167.434      -76.832       -5.793      102.027       67.184       39.606    10409.439     4513.702     1568.658        2.523        0.825      184.221       44.032        0.057      344.218       20.879      862.088
03/24/2014  16:38:00     -276.899     -123.988       -7.842      142.888       88.089       64.094    20417.107     7759.682     4108.009        6.219        1.614      303.391       59.981        0.039      344.281       20.984      862.071
03/24/2014  16:39:00     -188.447      -81.475       -8.344      161.441       75.058       54.219    26063.083     5633.629     2939.653        3.842        1.732      205.306       59.873        0.085      344.228       20.896      862.094
03/24/2014  16:40:00      -22.458       -8.845       36.074       77.373       49.424       49.189     5986.658     2442.699     2419.594        0.636        0.542       24.137       50.094        4.307      344.518       21.394      862.092
03/24/2014  16:41:00     -152.235       40.908      -13.767       80.415       55.133       36.234     6466.649     3039.639     1312.909        1.793        0.541      157.636       32.158        0.042      344.210       20.866      862.084
03/24/2014  16:42:00      -63.311       77.318      -27.366       70.008       67.318       30.859     4901.144     4531.690      952.258        1.056        0.519       99.932       14.412        0.021      343.992       20.496      862.064
03/24/2014  16:43:00      -17.980        8.386       10.675       52.928       21.768       21.516     2801.383      473.830      462.931        0.212        0.187       19.839       24.755        1.557      344.215       20.876      862.064
03/24/2014  16:44:00     -167.431      -39.783      -14.610       44.852       31.771       28.076     2011.689     1009.408      788.271        1.682        0.190      172.092       23.324        0.018      344.120       20.713      862.067
03/24/2014  16:45:00      -68.629      -86.420       19.698      102.108       91.672       54.087    10426.121     8403.810     2925.439        1.716        1.088      110.355       62.154        0.317      344.392       21.176      862.053
03/24/2014  16:46:00     -127.639     -107.477       -7.606      127.380       81.230       57.675    16225.655     6598.340     3326.457        2.702        1.308      166.863       51.793        0.096      344.303       21.024      862.045
03/24/2014  16:47:00     -184.467     -131.934       -7.059       76.128       57.292       39.025     5795.517     3282.393     1522.982        3.104        0.530      226.792       38.161        0.028      344.074       20.632      862.051
03/24/2014  16:48:00     -124.814      -92.695       -3.557       63.981       45.520       28.313     4093.586     2072.084      801.652        1.557        0.348      155.470       28.478        0.034      344.216       20.878      862.039
03/24/2014  16:49:00     -187.422     -132.404        1.895      113.189       88.214       53.130    12811.702     7781.687     2822.814        3.803        1.171      229.473       57.201        0.062      344.470       21.309      862.027
03/24/2014  16:50:00     -257.654     -196.237        4.239      119.597      111.683       63.503    14303.525    12473.128     4032.693        6.786        1.540      323.875       60.520        0.035      344.133       20.733      862.008
03/24/2014  16:51:00     -286.937     -160.232      -14.988      130.393       97.373       61.207    17002.326     9481.546     3746.358        6.923        1.512      328.645       62.977        0.037      344.249       20.931      861.985
03/24/2014  16:52:00     -274.886      -44.532      -11.591      105.078      104.127       52.772    11041.438    10842.422     2784.930        5.117        1.233      278.470       47.169        0.029      344.179       20.813      862.012
03/24/2014  16:53:00     -233.923      -63.515      -17.750      125.192      109.017       60.050    15673.031    11884.683     3606.059        4.511        1.558      242.392       58.842        0.059      344.135       20.735      861.988
03/24/2014  16:54:00     -211.914     -167.582       -5.808      191.884      158.819       66.121    36819.630    25223.362     4371.965        6.971        3.321      270.169       74.085        0.075      344.308       21.032      861.964
03/24/2014  16:55:00     -376.199     -199.041      -22.452      165.323      147.179       76.803    27331.836    21661.710     5898.703       11.826        2.745      425.609       85.163        0.040      344.225       20.892      861.954
03/24/2014  16:56:00     -185.215     -140.446        7.063      153.477      156.699       83.412    23555.161    24554.486     6957.631        5.456        2.753      232.443       78.158        0.113      344.289       21.000      861.950
03/24/2014  16:57:00     -127.546      -34.450        3.489      116.395      100.949       69.102    13547.704    10190.736     4775.075        2.299        1.426      132.117       61.997        0.220      344.356       21.114      861.954
03/24/2014  16:58:00     -140.609      -25.551      -11.961      120.628       62.062       48.498    14551.229     3851.689     2352.017        2.066        1.038      142.911       60.886        0.182      344.707       21.716      861.965
03/24/2014  16:59:00     -317.761        8.788      -10.127      156.213      113.833       71.502    24402.510    12957.861     5112.526        7.181        2.124      317.883       80.221        0.064      344.348       21.100      861.957
03/24/2014  17:00:00     -314.302       -6.784      -11.783      136.823      147.788       68.658    18720.464    21841.362     4713.903        7.212        2.264      314.375       69.252        0.049      344.274       20.973      861.936
03/24/2014  17:01:00     -172.562     -110.106        9.121      211.567      106.139       58.996    44760.582    11265.498     3480.504        5.074        2.975      204.697       78.051        0.145      344.408       21.203      861.928
03/24/2014  17:02:00     -153.827     -107.924       26.673      201.701      133.962       70.544    40683.312    17945.949     4976.420        4.980        3.180      187.910      107.416        0.327      344.272       20.971      861.920
03/24/2014  17:03:00      -78.627     -124.377       24.527      133.197      100.843       72.658    17741.424    10169.330     5279.208        2.772        1.659      147.145       85.066        0.334      344.216       20.875      861.912
03/24/2014  17:04:00     -123.978     -138.767        5.167      113.918       80.639       61.936    12977.368     6502.670     3836.116        2.898        1.166      186.083       62.927        0.114      344.170       20.799      861.904
03/24/2014  17:05:00     -183.313     -105.937        0.346       71.650       64.538       37.033     5133.760     4165.186     1371.478        2.775        0.534      211.723       33.180        0.025      344.168       20.793      861.879
03/24/2014  17:06:00     -174.581     -109.953        4.024       88.286       81.799       43.317     7794.374     6691.054     1876.324        2.947        0.818      206.320       46.513        0.051      344.110       20.693      861.870
03/24/2014  17:07:00     -283.904     -125.775       -9.302      167.775      107.568       67.394    28148.456    11570.778     4541.971        7.038        2.213      310.517       76.721        0.061      344.215       20.872      861.857
03/24/2014  17:08:00     -130.115     -131.196        4.842      153.978      102.834       67.949    23709.186    10574.762     4617.050        3.653        1.945      184.776       87.626        0.225      344.247       20.928      861.873
03/24/2014  17:09:00     -113.223     -107.451        3.733      131.223       88.990       57.950    17219.424     7919.290     3358.239        2.643        1.425      156.093       58.410        0.140      344.325       21.061      861.863
03/24/2014  17:10:00     -353.559     -207.121       -4.032      127.499      121.178       67.668    16256.030    14684.156     4578.932       10.171        1.776      409.760       65.625        0.026      344.099       20.675      861.848
03/24/2014  17:11:00     -289.083     -157.492      -15.296      162.790      164.602       81.069    26500.530    27093.939     6572.157        8.438        3.008      329.200       81.197        0.061      344.201       20.850      861.836
03/24/2014  17:12:00     -351.897      -71.887      -16.998      170.921      129.943       83.323    29213.992    16885.202     6942.742        9.116        2.652      359.165       81.122        0.051      344.224       20.889      861.823
03/24/2014  17:13:00     -207.522      -88.640       -4.246      174.525      111.231       76.351    30458.945    12372.437     5829.508        4.979        2.433      225.660       75.212        0.111      344.289       21.000      861.812
03/24/2014  17:14:00     -132.055      -99.965        9.599      142.544      104.387       81.361    20318.731    10896.614     6619.630        3.267        1.892      165.624       86.991        0.276      344.312       21.039      861.808
03/24/2014  17:15:00     -333.973      -22.253        4.900      180.357      118.544       78.474    32528.497    14052.652     6158.179        8.239        2.637      334.714       86.492        0.067      344.261       20.953      861.815
03/24/2014  17:16:00     -364.720      -80.438      -22.763      144.409      153.463       78.579    20853.947    23550.888     6174.724        9.529        2.529      373.485       67.798        0.033      344.171       20.797      861.794
03/24/2014  17:17:00     -174.702     -107.857       21.406      181.576      108.888       71.223    32969.899    11856.513     5072.753        4.625        2.495      205.314       96.136        0.219      344.218       20.878      861.772
03/24/2014  17:18:00     -288.441      -62.742       -5.638      119.021       85.641       51.445    14165.997     7334.359     2646.615        5.565        1.207      295.186       59.332        0.040      344.242       20.918      861.776
03/24/2014  17:19:00     -214.630     -117.784        4.458      113.333      110.800       59.171    12844.327    12276.698     3501.172        4.429        1.431      244.824       60.229        0.061      344.371       21.139      861.786
03/24/2014  17:20:00      -95.032      -95.252       13.720      128.257       91.337       60.725    16449.826     8342.473     3687.513        2.338        1.424      134.551       66.359        0.243      344.459       21.291      861.797
03/24/2014  17:21:00     -177.197      -98.951       19.511      155.579      105.911       76.678    24204.747    11217.094     5879.579        4.143        2.065      202.953       91.803        0.205      344.403       21.194      861.792
03/24/2014  17:22:00     -247.482      -75.958        9.428      149.022      119.249       64.709    22207.596    14220.395     4187.303        5.385        2.031      258.877       69.088        0.071      344.444       21.263      861.798
03/24/2014  17:23:00     -343.893      -87.185       -7.446      181.035      138.952       69.786    32773.696    19307.786     4870.048        9.143        2.848      354.772       78.390        0.049      344.197       20.842      861.786
03/24/2014  17:24:00     -214.590       -3.614       10.675      173.239      116.150       65.553    30011.727    13490.726     4297.193        4.698        2.390      214.620       82.658        0.148      344.302       21.022      861.778
03/24/2014  17:25:00     -326.299       18.267      -19.246      149.468      115.605       64.954    22340.829    13364.542     4219.010        7.354        1.996      326.810       71.398        0.048      344.172       20.798      861.770
03/24/2014  17:26:00     -399.785     -113.717      -16.787      175.836      118.539       68.409    30918.334    14051.578     4679.850       11.134        2.482      415.643       85.650        0.042      343.955       20.428      861.741
03/24/2014  17:27:00     -344.505     -111.983       -2.627      206.166      145.313       75.327    42504.516    21115.844     5674.174       10.025        3.465      362.248       89.859        0.062      344.099       20.674      861.706
03/24/2014  17:28:00     -419.056       14.233      -39.398      169.556      104.482       73.491    28749.128    10916.516     5400.897       11.121        2.253      419.297       69.455        0.027      343.997       20.499      861.717
03/24/2014  17:29:00     -377.182      -31.768      -17.853      126.279      125.114       65.868    15946.387    15653.551     4338.647        8.976        1.797      378.518       63.974        0.029      343.972       20.456      861.701
03/24/2014  17:30:00     -321.662      -39.334      -24.387      104.201      119.056       58.114    10857.944    14174.268     3377.247        6.700        1.420      324.058       53.548        0.027      344.069       20.623      861.674
03/24/2014  17:31:00     -327.001     -109.168      -25.966      119.288      145.052       64.801    14229.703    21040.029     4199.158        7.949        1.973      344.742       55.195        0.026      344.108       20.691      861.686
03/24/2014  17:32:00     -353.848      -97.734      -12.911      258.667      126.165       80.811    66908.520    15917.713     6530.448       11.213        4.468      367.098      123.856        0.114      343.997       20.501      861.689
03/24/2014  17:33:00     -246.482      -97.995       -4.638      184.445      116.702       74.329    34020.071    13619.428     5524.818        6.176        2.658      265.248       81.322        0.094      344.075       20.634      861.680
03/24/2014  17:34:00     -227.052      -42.914       -1.083      183.174      133.403       66.325    33552.886    17796.461     4398.943        5.456        2.787      231.072       72.355        0.098      344.068       20.621      861.679
03/24/2014  17:35:00     -306.841       -8.466       -7.657      136.392      108.081       76.951    18602.883    11681.570     5921.477        6.524        1.810      306.958       75.633        0.061      344.098       20.672      861.699
03/24/2014  17:36:00     -363.012      -91.069      -18.417      153.954      124.619       58.598    23701.899    15529.802     3433.670        9.153        2.133      374.261       76.592        0.042      343.981       20.472      861.698
03/24/2014  17:37:00     -477.035      -36.367      -25.376      168.111      171.984       75.086    28261.462    29578.443     5637.965       14.649        3.174      478.419       70.589        0.022      343.877       20.294      861.693
03/24/2014  17:38:00     -396.220      -20.160      -36.178      150.884      142.483       73.824    22765.981    20301.302     5449.960       10.360        2.426      396.733       70.832        0.032      344.045       20.582      861.690
03/24/2014  17:39:00     -382.642      -37.010      -21.860      153.052      148.774       77.772    23424.924    22133.793     6048.452        9.993        2.580      384.428       67.852        0.031      344.051       20.593      861.685
03/24/2014  17:40:00     -248.977      -97.116        3.995      154.166      124.630       52.798    23767.094    15532.586     2787.636        5.676        2.104      267.247       65.092        0.059      344.174       20.802      861.695
03/24/2014  17:41:00     -479.037     -276.837      -12.476      164.704      139.451       88.998    27127.493    19446.572     7920.660       18.037        2.725      553.276       79.902        0.021      343.783       20.134      861.705
03/24/2014  17:42:00     -292.467     -182.042       -6.572      184.566      143.826       74.514    34064.666    20686.039     5552.360        8.950        3.015      344.494       83.591        0.059      343.790       20.147      861.710
03/24/2014  17:43:00     -188.380     -181.303        1.479      151.857      121.317       76.313    23060.481    14717.864     5823.674        5.597        2.180      261.453       80.639        0.095      343.840       20.233      861.681
03/24/2014  17:44:00     -287.385     -112.330      -15.069      114.780      123.091       56.074    13174.554    15151.381     3144.279        6.345        1.574      308.559       42.847        0.019      343.886       20.311      861.680
03/24/2014  17:45:00     -325.992     -197.860      -25.387      147.740      144.370       65.371    21827.117    20842.691     4273.356        9.650        2.347      381.339       57.153        0.022      343.845       20.240      861.671
03/24/2014  17:46:00     -189.139     -120.795       -6.034      126.508      126.969       77.169    16004.152    16121.077     5955.124        4.423        1.904      224.421       74.645        0.111      343.962       20.440      861.668
03/24/2014  17:47:00     -117.940      -21.226       -1.618      105.485       80.333       51.051    11127.041     6453.365     2606.180        1.727        1.009      119.835       57.177        0.228      344.126       20.721      861.678
03/24/2014  17:48:00     -298.813       -2.743      -12.781      141.095      101.430       62.366    19907.842    10287.964     3889.563        6.177        1.704      298.825       64.746        0.047      344.025       20.548      861.662
03/24/2014  17:49:00     -349.456      -56.341      -11.930       98.710      112.321       53.495     9743.675    12616.102     2861.675        7.532        1.261      353.969       51.872        0.021      343.915       20.360      861.622
03/24/2014  17:50:00     -300.723      -87.672      -14.511       68.603       70.127       36.868     4706.327     4917.813     1359.231        5.466        0.549      313.242       25.460        0.007      343.973       20.459      861.623
03/24/2014  17:51:00     -225.774      -88.659        7.265      119.985      111.568       61.396    14396.293    12447.408     3769.486        4.475        1.531      242.558       62.650        0.067      344.141       20.746      861.609
03/24/2014  17:52:00     -308.273      -58.396       -3.046      105.103       80.599       59.491    11046.672     6496.189     3539.156        5.976        1.054      313.755       54.941        0.031      344.073       20.631      861.618
03/24/2014  17:53:00     -235.380       39.660       -6.238      130.744       98.170       52.441    17093.868     9637.335     2750.037        4.324        1.474      238.697       55.150        0.053      344.045       20.583      861.617
03/24/2014  17:54:00     -272.103      -39.167       -6.464      210.338      137.304       83.552    44241.889    18852.252     6980.989        7.283        3.504      274.907      103.406        0.141      343.905       20.343      861.614
03/24/2014  17:55:00     -238.435     -167.506       -1.968      149.615      129.574       74.845    22384.685    16789.486     5601.745        6.484        2.239      291.392       59.138        0.041      343.851       20.250      861.624
03/24/2014  17:56:00     -328.833     -180.875      -12.339      145.601      118.460       64.732    21199.582    14032.883     4190.199        9.020        1.971      375.296       68.888        0.034      343.787       20.142      861.617
03/24/2014  17:57:00     -304.494      -22.492       -1.343      147.229      207.557       79.376    21676.379    43079.904     6300.520        8.213        3.553      305.324       72.829        0.057      343.824       20.205      861.610
03/24/2014  17:58:00     -314.200     -206.072        4.416      213.019      134.822       76.061    45376.962    18177.066     5785.318       10.526        3.467      375.749       83.927        0.050      343.767       20.106      861.630
03/24/2014  17:59:00     -283.448     -126.013        1.288      172.531      114.327       64.027    29767.034    13070.700     4099.406        7.157        2.347      310.197       73.556        0.056      343.790       20.148      861.620
03/24/2014  18:00:00     -276.605     -149.652       -6.199      161.875      165.135       72.876    26203.485    27269.681     5310.926        7.885        2.939      314.493       71.541        0.052      343.844       20.238      861.626
03/24/2014  18:01:00     -304.020     -273.251      -10.173      199.835      209.324       97.695    39933.947    43816.605     9544.324       13.023        4.665      408.772      116.613        0.081      343.718       20.024      861.609
03/24/2014  18:02:00     -335.632     -104.192      -36.435      205.077      153.362       78.334    42056.461    23519.839     6136.187        9.826        3.586      351.433       88.256        0.063      343.810       20.181      861.609
03/24/2014  18:03:00     -344.045      -80.644        1.475      154.151      142.926       74.421    23762.646    20427.880     5538.431        8.729        2.486      353.370       75.192        0.045      343.780       20.129      861.620
03/24/2014  18:04:00     -199.335      -71.746       -4.750      120.190       96.638       59.074    14445.700     9338.891     3489.785        3.608        1.364      211.854       56.660        0.072      343.838       20.229      861.640
03/24/2014  18:05:00     -196.695     -140.535       -7.984      106.008       92.188       59.523    11237.795     8498.644     3542.974        4.089        1.164      241.741       54.371        0.051      343.811       20.181      861.648
03/24/2014  18:06:00     -185.628     -127.160        3.284      151.715       89.846       60.311    23017.371     8072.290     3637.396        4.268        1.736      225.005       61.930        0.076      343.710       20.009      861.648
03/24/2014  18:07:00     -216.133      -94.095        4.128      185.633      123.122       69.857    34459.479    15158.952     4880.008        5.503        2.725      235.727       84.434        0.128      343.725       20.036      861.628
03/24/2014  18:08:00     -283.274     -131.028      -14.876      142.021      111.824       54.705    20170.034    12504.611     2992.667        6.664        1.783      312.110       55.091        0.031      343.741       20.063      861.638
03/24/2014  18:09:00     -349.977      -20.085      -10.511      154.955      108.865       77.742    24010.906    11851.660     6043.810        8.244        2.095      350.552       72.726        0.043      343.752       20.080      861.641
03/24/2014  18:10:00     -348.733      -46.249       -8.462      175.506      133.964       69.515    30802.241    17946.404     4832.285        8.869        2.679      351.786       74.664        0.045      343.675       19.950      861.632
03/24/2014  18:11:00     -307.359      -70.097       -8.821      122.937      127.803       50.867    15113.492    16333.697     2587.428        6.674        1.702      315.251       54.493        0.030      343.695       19.983      861.621
03/24/2014  18:12:00     -207.272      -45.597       13.246      164.026      140.216       85.582    26904.420    19660.622     7324.217        4.954        2.694      212.229       96.405        0.206      343.706       20.004      861.634
03/24/2014  18:13:00     -209.710     -133.998       -5.452      181.458      117.055       77.938    32927.167    13701.803     6074.375        5.732        2.635      248.864       78.165        0.099      343.634       19.880      861.618
03/24/2014  18:14:00     -283.841     -121.762       -1.027      224.399      143.170       73.143    50354.725    20497.533     5349.955        8.578        3.810      308.855       70.132        0.052      343.661       19.927      861.609
03/24/2014  18:15:00     -307.213      -99.908       -8.855      186.160      117.628       63.823    34655.657    13836.407     4073.411        7.849        2.628      323.050       75.243        0.054      343.611       19.843      861.606
03/24/2014  18:16:00     -277.608      -93.371       -2.681      166.331      108.577       81.433    27666.070    11789.065     6631.263        6.593        2.304      292.890       74.054        0.064      343.622       19.858      861.596
03/24/2014  18:17:00     -323.590      -21.105      -25.674      119.204      125.311       68.121    14209.486    15702.968     4640.460        7.018        1.728      324.277       53.025        0.027      343.616       19.849      861.603
03/24/2014  18:18:00     -414.102      -52.857      -21.377      133.343      144.939       73.286    17780.425    21007.406     5370.836       10.944        2.208      417.462       62.994        0.023      343.562       19.758      861.604
03/24/2014  18:19:00     -231.747      -39.009      -12.159      184.106      114.007       79.238    33894.841    12997.625     6278.584        5.426        2.659      235.007       93.687        0.159      343.618       19.854      861.597
03/24/2014  18:20:00     -217.265      -92.285      -27.352      164.874      100.410       66.162    27183.431    10082.233     4377.375        4.905        2.082      236.052       73.886        0.098      343.576       19.784      861.597
03/24/2014  18:21:00     -212.924     -148.807       -1.450      210.465      174.652       91.843    44295.504    30503.467     8435.219        7.534        4.162      259.769      111.826        0.185      343.547       19.733      861.587
03/24/2014  18:22:00     -381.387     -160.772      -18.933      176.032      135.140       76.766    30987.247    18262.720     5893.053       11.339        2.757      413.888       73.670        0.032      343.496       19.647      861.570
03/24/2014  18:23:00     -317.965     -120.198        3.057      155.782      159.543       73.589    24267.934    25454.002     5415.407        8.534        2.757      339.925       89.275        0.069      343.548       19.733      861.573
03/24/2014  18:24:00     -228.042     -132.630       -6.860      171.243      126.933       73.975    29324.304    16111.935     5472.298        6.027        2.545      263.806       81.694        0.096      343.505       19.660      861.580
03/24/2014  18:25:00     -379.452     -196.975       -9.904      133.511      145.960       73.790    17825.298    21304.230     5445.013       11.372        2.229      427.531       73.496        0.030      343.489       19.632      861.584
03/24/2014  18:26:00     -294.197     -218.349        0.127      204.895      170.744       93.714    41982.120    29153.387     8782.269       10.706        3.996      366.372      115.654        0.100      343.463       19.589      861.559
03/24/2014  18:27:00     -327.404     -162.236        8.234      162.115      124.219       77.797    26281.426    15430.349     6052.352        9.066        2.388      365.395       80.648        0.049      343.467       19.595      861.569
03/24/2014  18:28:00     -318.394     -265.291       -7.986      199.319      170.849       97.381    39728.019    29189.418     9483.029       12.510        3.920      414.433      116.885        0.080      343.419       19.513      861.550
03/24/2014  18:29:00     -246.991     -206.388       13.530      179.904      136.835       99.341    32365.344    18723.843     9868.716        8.236        3.048      321.871      102.981        0.102      343.406       19.491      861.551
03/24/2014  18:30:00     -336.102     -227.978       -9.089      200.874      155.508       86.800    40350.418    24182.752     7534.154       11.853        3.603      406.126       89.515        0.049      343.409       19.498      861.547
03/24/2014  18:31:00     -302.061     -131.903       11.163      206.234      152.154       77.530    42532.662    23150.809     6010.854        9.022        3.585      329.605       94.441        0.082      343.417       19.510      861.555
03/24/2014  18:32:00     -347.642     -169.150       -5.942      218.432      141.919       93.416    47712.483    20141.023     8726.516       11.303        3.829      386.609      110.395        0.082      343.373       19.438      861.519
03/24/2014  18:33:00     -392.248     -207.442       -7.505      167.427      151.390       74.034    28031.961    22919.043     5481.098       12.668        2.822      443.723       74.072        0.028      343.352       19.399      861.524
03/24/2014  18:34:00     -366.460     -247.312      -10.108      168.210      159.143       88.994    28294.737    25326.446     7919.944       12.854        3.077      442.104       87.230        0.039      343.336       19.373      861.519
03/24/2014  18:35:00     -356.125     -188.189      -19.874      161.480      185.397       91.641    26075.711    34372.208     8398.080       11.573        3.442      402.791       92.115        0.052      343.332       19.366      861.514
03/24/2014  18:36:00     -355.285     -196.245       -3.107      203.151      145.586       85.593    41270.530    21195.196     7326.227       11.726        3.490      405.881       96.431        0.056      343.300       19.310      861.509
03/24/2014  18:37:00     -263.322     -144.756       19.792      250.901      179.320       99.009    62951.151    32155.530     9802.806        9.778        5.245      300.487      112.975        0.141      343.279       19.275      861.513
03/24/2014  18:38:00     -228.090     -123.084        3.348      203.342      150.363       99.024    41347.783    22609.154     9805.804        7.046        3.688      259.181      101.733        0.154      343.253       19.231      861.518
03/24/2014  18:39:00     -434.212     -134.155      -21.743      173.811      122.414       78.662    30210.175    14985.211     6187.643       12.919        2.569      454.464       69.951        0.024      343.236       19.202      861.532
03/24/2014  18:40:00     -293.070      -78.804        0.753      162.597      151.840       78.894    26437.919    23055.304     6224.278        7.390        2.786      303.481       88.247        0.085      343.242       19.212      861.524
03/24/2014  18:41:00     -352.378     -190.572      -24.462      193.145      119.602       67.056    37305.134    14304.536     4496.443       10.859        2.805      400.609       65.382        0.027      343.221       19.176      861.510
03/24/2014  18:42:00     -263.120     -128.724       -8.738      135.520      124.397       68.866    18365.579    15474.589     4742.461        6.222        1.929      292.919       77.173        0.069      343.229       19.192      861.521
03/24/2014  18:43:00     -235.857     -106.680      -14.508      112.341      113.042       59.582    12620.598    12778.412     3549.956        4.808        1.447      258.862       49.039        0.036      343.262       19.247      861.511
03/24/2014  18:44:00     -221.660      -89.204        2.053      166.103      126.941       77.859    27590.315    16113.945     6062.026        5.342        2.488      238.936       83.623        0.122      343.244       19.216      861.501
03/24/2014  18:45:00     -427.757     -221.215      -11.101      206.134      172.830       92.283    42491.140    29870.152     8516.127       15.644        4.044      481.572       97.573        0.041      343.148       19.052      861.468
03/24/2014  18:46:00     -552.883     -188.507      -38.964      250.244      143.664       83.821    62621.913    20639.280     7025.999       21.650        4.514      584.136      101.714        0.030      343.135       19.031      861.474
03/24/2014  18:47:00     -381.452     -197.420      -14.173      192.141      190.563       87.080    36918.188    36314.245     7582.942       13.273        4.041      429.511       90.975        0.045      343.122       19.008      861.470
03/24/2014  18:48:00     -509.400     -306.926      -12.512      216.584      153.939       99.049    46908.597    23697.080     9810.798       21.712        4.021      594.720      104.276        0.031      343.113       18.991      861.464
03/24/2014  18:49:00     -427.952     -248.626      -23.017      169.200      126.334       85.376    28628.702    15960.392     7288.976       14.867        2.594      494.932       84.944        0.029      343.102       18.975      861.492
03/24/2014  18:50:00     -253.673     -148.579       -1.582      153.050       94.487       67.933    23424.237     8927.845     4614.829        6.169        1.848      293.982       67.213        0.052      343.111       18.988      861.502
03/24/2014  18:51:00     -301.229     -212.499       -8.245      179.155      121.382       82.748    32096.393    14733.566     6847.262        9.481        2.684      368.639       91.403        0.061      343.094       18.959      861.511
03/24/2014  18:52:00     -426.877     -122.161      -24.909      166.795      154.467       74.146    27820.659    23859.996     5497.638       12.746        2.859      444.013       73.267        0.027      343.075       18.928      861.515
03/24/2014  18:53:00     -350.974     -166.422      -26.008      141.298      129.634       68.757    19965.061    16804.883     4727.468        9.652        2.075      388.432       70.961        0.033      343.077       18.931      861.514
03/24/2014  18:54:00     -286.182     -162.544      -15.780      189.006      155.759       82.135    35723.296    24260.935     6746.197        8.764        3.337      329.121       86.827        0.070      343.033       18.856      861.517
03/24/2014  18:55:00     -318.768     -190.004      -13.143      207.215      161.286       85.480    42938.102    26013.120     7306.774       10.706        3.813      371.099       96.414        0.067      342.995       18.791      861.520
03/24/2014  18:56:00     -146.918      -85.722       28.543      135.294      154.050       71.074    18304.436    23731.288     5051.575        3.841        2.354      170.098       82.233        0.234      342.999       18.800      861.537
03/24/2014  18:57:00     -315.485     -128.460      -11.757      172.544      149.140       82.405    29771.293    22242.804     6790.602        8.748        2.940      340.636       89.991        0.070      342.977       18.762      861.540
03/24/2014  18:58:00     -335.960     -199.410       10.586      228.732      161.791       95.458    52318.290    26176.396     9112.266       12.016        4.380      390.684      109.919        0.079      342.932       18.686      861.544
03/24/2014  18:59:00     -421.818     -326.785       -9.918      202.539      178.138       92.978    41022.148    31733.166     8644.890       18.309        4.070      533.590      104.646        0.038      342.909       18.644      861.513
03/24/2014  19:00:00     -309.171     -186.042        7.246      212.610      148.138       78.396    45202.920    21944.752     6145.877       10.176        3.665      360.830      105.845        0.086      342.880       18.597      861.540
03/24/2014  19:01:00     -169.923     -124.262       29.753      222.871      116.186       89.883    49671.288    13499.189     8078.934        5.821        3.562      210.511      111.946        0.283      342.868       18.576      861.553
03/24/2014  19:02:00     -246.084      -36.493        8.931      175.664      140.888       78.878    30857.701    19849.556     6221.697        5.944        2.846      248.775       89.670        0.130      342.879       18.595      861.571
03/24/2014  19:03:00     -473.022     -314.805      -29.080      245.029      183.986      111.231    60039.194    33851.021    12372.261       21.496        5.313      568.201      126.751        0.050      342.820       18.496      861.542
03/24/2014  19:04:00     -298.540     -125.269      -12.369      234.928      210.833       93.135    55191.019    44450.458     8674.101       10.663        5.416      323.757      120.947        0.140      342.794       18.452      861.548
03/24/2014  19:05:00     -294.896      -85.692       -1.996      181.013      149.447       84.526    32765.769    22334.273     7144.583        7.827        3.112      307.094       93.491        0.093      342.800       18.460      861.562
03/24/2014  19:06:00     -340.223     -103.739      -19.546      253.307      169.813       93.406    64164.415    28836.437     8724.669       11.429        5.086      355.687      121.720        0.117      342.765       18.400      861.581
03/24/2014  19:07:00     -336.049     -184.949      -21.812      200.681      141.092       86.469    40272.853    19906.828     7476.814       10.762        3.383      383.582       98.708        0.066      342.754       18.383      861.576
03/24/2014  19:08:00     -211.055     -103.037       21.964      197.376      166.938       87.448    38957.329    27868.178     7647.122        6.505        3.724      234.864       96.191        0.168      342.737       18.353      861.562
03/24/2014  19:09:00     -363.154     -132.342      -18.048      156.769      163.851       73.216    24576.370    26847.012     5360.567       10.324        2.839      386.517       68.204        0.031      342.690       18.273      861.583
03/24/2014  19:10:00     -100.926      -70.860       31.484      149.906      107.440       80.723    22471.958    11543.250     6516.192        2.836        2.027      123.318       84.384        0.468      342.676       18.249      861.576
03/24/2014  19:11:00     -190.794     -104.490       -1.879      149.147      106.045       73.493    22244.952    11245.557     5401.239        4.310        1.945      217.533       82.450        0.144      342.645       18.196      861.566
03/24/2014  19:12:00     -377.041     -123.868       -7.722      198.113      129.007       91.888    39248.931    16642.837     8443.476       11.094        3.217      396.867       93.897        0.056      342.615       18.145      861.557
03/24/2014  19:13:00     -369.228     -101.094       -5.804      197.414      193.118       82.047    38972.417    37294.499     6731.707       11.478        4.150      382.817       87.896        0.053      342.611       18.138      861.574
03/24/2014  19:14:00     -199.210     -168.115       10.428      173.315      139.961       94.996    30038.076    19589.096     9024.308        6.334        2.933      260.667       99.000        0.144      342.568       18.066      861.561
03/24/2014  19:15:00     -441.874     -239.019      -28.558      199.402      190.949       86.271    39761.263    36461.573     7442.687       16.842        4.183      502.377       96.508        0.037      342.551       18.037      861.568
03/24/2014  19:16:00     -381.033     -143.260      -13.351      217.021      153.890       85.179    47098.316    23682.184     7255.495       12.195        3.902      407.074       92.036        0.051      342.529       18.000      861.583
03/24/2014  19:17:00     -283.956      -87.809       -9.919      191.366      116.190       77.741    36621.078    13500.112     6043.660        7.229        2.808      297.222       94.706        0.102      342.500       17.950      861.604
03/24/2014  19:18:00     -315.724      -93.690      -10.371      185.949      130.814       86.761    34576.846    17112.217     7527.426        8.388        2.961      329.332       98.921        0.090      342.487       17.929      861.600
03/24/2014  19:19:00     -275.073      -94.697       -5.652      126.620      114.770       56.320    16032.561    13172.112     3171.895        5.852        1.619      290.917       38.561        0.018      342.474       17.906      861.623
03/24/2014  19:20:00     -122.638      -46.475       11.329      130.640      143.920       78.879    17066.826    20712.888     6221.900        3.066        2.200      131.149       82.673        0.397      342.430       17.833      861.638
03/24/2014  19:21:00     -282.800      -46.923      -10.839      118.090      117.466       59.556    13945.210    13798.211     3546.923        5.679        1.565      286.666       56.407        0.039      342.417       17.810      861.631
03/24/2014  19:22:00     -249.429      -62.595       -1.398      136.529      119.249       67.695    18640.051    14220.248     4582.561        5.178        1.872      257.163       64.129        0.062      342.371       17.729      861.632
03/24/2014  19:23:00     -317.345     -113.681       -7.527      116.157      130.802       60.355    13492.459    17109.075     3642.673        7.396        1.712      337.093       56.340        0.028      342.331       17.663      861.634
03/24/2014  19:24:00     -269.209      -34.821       10.417      180.334      115.192       77.014    32520.376    13269.201     5931.194        6.275        2.586      271.452       85.022        0.098      342.284       17.583      861.627
03/24/2014  19:25:00     -267.219      -60.764       -2.426      172.701      126.658       67.621    29825.694    16042.135     4572.557        6.276        2.522      274.040       81.354        0.088      342.279       17.574      861.628
03/24/2014  19:26:00     -343.394      -84.205        1.273      188.717      160.675       86.416    35614.175    25816.577     7467.741        9.694        3.445      353.567       89.127        0.064      342.258       17.538      861.606
03/24/2014  19:27:00     -407.661       -5.574      -16.607      187.706      144.634       69.976    35233.424    20919.024     4896.705       11.376        3.052      407.699       77.743        0.036      342.252       17.527      861.604
03/24/2014  19:28:00     -328.137     -128.595       -6.764      178.446      134.248       66.679    31843.065    18022.647     4446.125        8.927        2.716      352.435       72.591        0.042      342.233       17.497      861.603
03/24/2014  19:29:00     -396.155     -262.471      -26.306      179.875      166.299       94.398    32355.079    27655.268     8911.055       14.771        3.446      475.215       87.708        0.034      342.214       17.464      861.581
03/24/2014  19:30:00     -338.446      -78.464      -20.670      206.742      144.534       78.245    42742.233    20890.205     6122.313        9.543        3.488      347.422       92.221        0.070      342.182       17.410      861.585
03/24/2014  19:31:00     -391.699      -65.318      -16.471      167.619      134.954       73.612    28096.249    18212.674     5418.723       10.484        2.586      397.107       82.976        0.044      342.149       17.354      861.575
03/24/2014  19:32:00     -208.565     -131.562       -8.221      171.128      146.785       81.646    29284.655    21545.983     6666.054        5.918        2.875      246.593       83.381        0.114      342.145       17.348      861.557
03/24/2014  19:33:00     -240.773      -95.020       -3.090      201.540      140.507       76.357    40618.216    19742.128     5830.326        6.659        3.310      258.844       80.567        0.097      342.137       17.334      861.561
03/24/2014  19:34:00     -360.293      -58.647      -24.231      143.070      196.813       58.298    20469.009    38735.506     3398.662        9.821        3.130      365.035       55.200        0.023      342.145       17.346      861.563
03/24/2014  19:35:00     -280.808      -99.436       -9.491      158.895      147.189       68.380    25247.746    21664.510     4675.810        7.020        2.579      297.893       54.475        0.033      342.110       17.287      861.560
03/24/2014  19:36:00     -255.609     -167.897      -15.236      137.548      122.474       65.281    18919.342    14999.888     4261.610        6.596        1.909      305.819       66.933        0.048      342.068       17.216      861.567
03/24/2014  19:37:00     -246.131      -89.384      -18.862      123.850      118.283       63.625    15338.834    13990.901     4048.187        5.115        1.669      261.859       57.003        0.047      342.099       17.270      861.548
03/24/2014  19:38:00     -247.269      -49.217       -6.873      130.180      103.781       64.156    16946.715    10770.581     4115.973        4.772        1.592      252.120       67.076        0.071      342.043       17.173      861.574
03/24/2014  19:39:00     -322.839     -102.939       -2.764      187.387      168.913       82.448    35113.760    28531.535     6797.689        9.262        3.522      338.853       87.168        0.066      342.047       17.181      861.572
03/24/2014  19:40:00     -394.017     -135.027      -32.156      177.790      150.155       70.122    31609.269    22546.577     4917.143       11.678        2.954      416.512       80.030        0.037      342.065       17.211      861.572
03/24/2014  19:41:00     -219.702     -164.333      -10.178      149.400      123.715       70.658    22320.394    15305.468     4992.611        5.899        2.131      274.362       72.825        0.070      342.029       17.151      861.570
03/24/2014  19:42:00     -259.602      -34.393        4.950      144.227      112.413       62.990    20801.511    12636.677     3967.774        5.300        1.870      261.870       55.072        0.044      342.036       17.162      861.575
03/24/2014  19:43:00     -283.859      -80.075        0.034      176.313      173.086       96.278    31086.385    29958.807     9269.400        7.864        3.516      294.937      105.269        0.127      342.008       17.114      861.567
03/24/2014  19:44:00     -403.727     -109.531      -25.657      172.873      186.143       88.261    29885.015    34649.348     7790.038       12.398        3.616      418.321       79.801        0.036      342.005       17.108      861.590
03/24/2014  19:45:00     -275.896     -137.015        7.296      209.425      131.386       90.058    43858.835    17262.192     8110.496        8.208        3.462      308.045      105.716        0.118      341.967       17.044      861.566
03/24/2014  19:46:00     -370.661     -141.184        0.872      208.532      166.381       83.475    43485.423    27682.510     6968.140       11.772        3.907      396.639       94.793        0.057      341.975       17.058      861.585
03/24/2014  19:47:00     -132.797     -118.155        6.510      156.831      120.277       67.157    24595.904    14466.487     4510.007        3.760        2.179      177.752       83.893        0.223      341.963       17.037      861.606
03/24/2014  19:48:00     -237.296     -112.272       -3.195      236.634      124.844       88.053    55995.674    15586.029     7753.347        7.412        3.967      262.516      105.391        0.161      341.952       17.019      861.604
03/24/2014  19:49:00     -452.637     -156.598      -14.349      212.287      142.014       87.385    45065.805    20168.079     7636.173       15.123        3.644      478.961       99.396        0.043      341.944       17.005      861.611
03/24/2014  19:50:00     -305.469     -175.318       -5.651      213.325      141.027       93.318    45507.431    19888.569     8708.330        9.908        3.705      352.204      111.364        0.100      341.934       16.989      861.609
03/24/2014  19:51:00     -277.094      -74.845      -11.851      164.486      132.163       73.463    27055.781    17467.102     5396.764        6.621        2.496      287.024       72.263        0.063      341.935       16.990      861.607
03/24/2014  19:52:00     -378.432     -105.986      -25.015      212.294      142.462       84.399    45068.595    20295.520     7123.241       11.377        3.624      392.993      100.577        0.065      341.891       16.916      861.620
03/24/2014  19:53:00     -262.448      -58.400       -8.599      159.048      106.344       70.753    25296.251    11309.017     5006.000        5.698        2.081      268.867       76.627        0.081      341.867       16.876      861.612
03/24/2014  19:54:00     -276.472      -50.816        6.951      214.011      149.010       79.383    45800.643    22203.942     6301.587        7.667        3.715      281.103      100.417        0.128      341.826       16.805      861.646
03/24/2014  19:55:00     -299.564     -105.865       -0.036      197.673      163.428       95.779    39074.538    26708.560     9173.678        8.794        3.748      317.720      100.604        0.100      341.830       16.813      861.618
03/24/2014  19:56:00     -395.678      -76.880      -13.159      179.987      132.776       83.776    32395.176    17629.516     7018.465       10.983        2.852      403.077       87.349        0.047      341.823       16.800      861.624
03/24/2014  19:57:00     -418.056      -72.123      -21.562      155.426      114.939       68.741    24157.113    13210.946     4725.293       11.126        2.105      424.232       61.450        0.021      341.818       16.791      861.646
03/24/2014  19:58:00     -383.195        5.170      -10.874      162.205      114.955       82.773    26310.460    13214.639     6851.293        9.667        2.319      383.230       69.839        0.033      341.807       16.772      861.644
03/24/2014  19:59:00     -395.135      -81.038       -4.694      275.818      163.972       96.901    76075.693    26886.779     9389.882       13.752        5.618      403.359      112.160        0.077      341.783       16.733      861.649
03/24/2014  20:00:00     -311.995      -39.125       -6.056      160.489       98.623       70.277    25756.562     9726.530     4938.813        6.966        2.021      314.439       77.230        0.060      341.765       16.700      861.657
03/24/2014  20:01:00     -355.055      -65.885       -7.504      267.867      132.824      101.069    71752.607    17642.320    10214.991       11.502        4.980      361.116      121.452        0.113      341.758       16.689      861.666
03/24/2014  20:02:00     -323.017      -41.441        0.050      178.838      105.263       67.607    31982.937    11080.229     4570.754        7.684        2.382      325.665       77.827        0.057      341.701       16.593      861.676
03/24/2014  20:03:00     -287.702      -92.596       -3.288      175.717      110.359       73.509    30876.546    12179.164     5403.598        6.990        2.423      302.235       68.015        0.051      341.721       16.627      861.675
03/24/2014  20:04:00     -419.840     -125.044       -4.600      182.639      161.764       83.634    33357.127    26167.636     6994.666       12.921        3.326      438.066       95.855        0.048      341.695       16.582      861.667
03/24/2014  20:05:00     -393.517     -122.854      -16.917      149.690      126.727       60.280    22406.958    16059.668     3633.623       10.616        2.105      412.249       70.912        0.030      341.665       16.532      861.677
03/24/2014  20:06:00     -475.639      -20.324       -8.411      216.883      150.724       76.548    47038.166    22717.861     5859.649       15.115        3.781      476.073       97.578        0.042      341.661       16.526      861.672
03/24/2014  20:07:00     -489.200     -134.876      -23.152      205.792      146.477       83.344    42350.265    21455.637     6946.253       16.439        3.538      507.452       95.292        0.035      341.648       16.503      861.673
03/24/2014  20:08:00     -463.779     -129.048      -30.176      171.730      138.569       85.127    29491.135    19201.280     7246.526       14.429        2.797      481.398       95.673        0.039      341.632       16.477      861.692
03/24/2014  20:09:00     -379.406      -22.567      -21.031      187.323      127.809       77.062    35089.771    16335.189     5938.575       10.112        2.868      380.076       86.293        0.052      341.677       16.554      861.681
03/24/2014  20:10:00     -280.244      -53.299       -2.736      173.959      122.362       84.466    30261.787    14972.468     7134.496        6.687        2.618      285.268       82.395        0.083      341.693       16.581      861.705
03/24/2014  20:11:00     -340.349      -54.275      -21.412      205.668      184.805       91.776    42299.446    34152.837     8422.745       10.204        4.244      344.649       89.835        0.068      341.695       16.583      861.707
03/24/2014  20:12:00     -446.739      -76.034      -31.289      188.973      146.784       86.377    35710.681    21545.564     7460.906       13.552        3.236      453.163       88.363        0.038      341.679       16.555      861.741
03/24/2014  20:13:00     -193.755      -45.701        0.305      163.177      122.695       71.303    26626.802    15054.029     5084.174        4.319        2.338      199.072       77.104        0.150      341.664       16.531      861.730
03/24/2014  20:14:00     -248.652      -76.220       14.187      260.030      148.216       97.749    67615.591    21967.914     9554.909        8.347        4.957      260.071      133.191        0.262      341.607       16.434      861.751
03/24/2014  20:15:00     -328.272     -130.936      -11.706      215.827      170.736       96.907    46581.341    29150.781     9391.004       10.507        4.256      353.421       99.976        0.080      341.651       16.510      861.739
03/24/2014  20:16:00     -152.185      -16.957       19.588      149.101      131.796       89.510    22231.087    17370.090     8011.958        3.571        2.381      153.126       89.327        0.340      341.669       16.540      861.762
03/24/2014  20:17:00     -201.607      -74.303        0.111      195.513      140.631       79.895    38225.147    19777.122     6383.222        5.527        3.219      214.863       81.340        0.143      341.643       16.495      861.772
03/24/2014  20:18:00     -415.503       -8.678       -7.864      159.394      144.839       91.907    25406.557    20978.384     8446.987       11.380        2.742      415.593       90.302        0.047      341.651       16.510      861.773
03/24/2014  20:19:00     -302.598      -87.321       11.703      233.971      156.560       96.460    54742.565    24511.022     9304.626        9.393        4.428      314.945      121.961        0.150      341.615       16.447      861.765
03/24/2014  20:20:00     -370.889     -137.600        2.658      270.513      177.353      110.146    73177.342    31454.008    12132.203       13.661        5.838      395.591      131.371        0.110      341.633       16.478      861.775
03/24/2014  20:21:00     -348.532      -70.894       -9.091      199.965      149.721       92.405    39986.016    22416.323     8538.752        9.875        3.547      355.669       94.139        0.070      341.632       16.476      861.786
03/24/2014  20:22:00     -296.616     -184.621      -31.998      163.378      136.431       75.071    26692.356    18613.349     5635.605        8.701        2.547      349.380       66.253        0.036      341.666       16.534      861.796
03/24/2014  20:23:00     -424.353     -195.665      -17.047      188.947      190.050       91.401    35700.841    36119.120     8354.063       14.940        4.009      467.290       98.932        0.045      341.614       16.445      861.814
03/24/2014  20:24:00     -432.768     -135.906      -17.140      225.611      160.797       80.495    50900.537    25855.806     6479.384       14.463        4.162      453.606       78.363        0.030      341.623       16.462      861.818
03/24/2014  20:25:00     -418.005      -75.086      -24.143      210.295      146.108       80.038    44224.103    21347.451     6406.114       12.645        3.599      424.696       94.892        0.050      341.611       16.441      861.855
03/24/2014  20:26:00     -441.708     -137.355      -20.951      266.551      186.825       83.608    71049.414    34903.585     6990.381       16.366        5.647      462.572      114.450        0.061      341.582       16.390      861.856
03/24/2014  20:27:00     -357.451      -43.331       -9.975      186.559      127.256       85.442    34804.302    16194.137     7300.410        9.401        2.915      360.067      104.130        0.084      341.564       16.361      861.870
03/24/2014  20:28:00     -277.062      -95.496        0.193      166.468      137.354       69.509    27711.482    18866.258     4831.462        6.864        2.570      293.058       66.440        0.051      341.552       16.340      861.872
03/24/2014  20:29:00     -255.892      -79.170       -9.553      161.177      144.956       79.776    25977.957    21012.362     6364.274        6.259        2.668      267.859       85.718        0.102      341.531       16.305      861.881
03/24/2014  20:30:00     -202.129      -54.952        6.527      144.380      114.091       71.858    20845.697    13016.825     5163.520        4.147        1.951      209.466       79.307        0.143      341.520       16.286      861.910
03/24/2014  20:31:00     -179.741     -139.562       11.308      176.489      129.020       88.938    31148.366    16646.119     7909.886        5.380        2.785      227.562       94.868        0.174      341.505       16.262      861.940
03/24/2014  20:32:00     -223.530      -33.836        3.593      192.844      139.331       75.952    37188.866    19413.076     5768.634        5.674        3.119      226.077       77.311        0.117      341.548       16.336      861.941
03/24/2014  20:33:00     -179.092      -66.121       15.468      162.868      138.002       69.110    26525.900    19044.471     4776.245        4.351        2.517      190.908       79.287        0.172      341.545       16.328      861.904
03/24/2014  20:34:00     -254.189     -170.564        7.139      197.441      178.881       89.060    38983.019    31998.430     7931.650        8.632        3.946      306.112       88.689        0.084      341.508       16.265      861.926
03/24/2014  20:35:00     -361.628     -143.167       -1.214      167.933      131.943      101.583    28201.618    17409.015    10319.066       10.359        2.796      388.936       97.580        0.063      341.499       16.251      861.922
03/24/2014  20:36:00     -387.104       -0.401        0.779      226.587      136.546       97.040    51341.468    18644.902     9416.845       11.461        3.970      387.104      118.222        0.093      341.480       16.217      861.906
03/24/2014  20:37:00     -396.412      -93.236      -20.665      165.812      141.881       78.877    27493.779    20130.215     6221.645       11.005        2.692      407.229       64.520        0.025      341.499       16.250      861.910
03/24/2014  20:38:00     -308.587     -107.256       -2.151      175.255      137.386       72.005    30714.216    18874.947     5184.665        8.074        2.739      326.695       73.552        0.051      341.468       16.199      861.918
03/24/2014  20:39:00     -142.420      -38.709       22.971      179.060      127.824       79.134    32062.424    16338.928     6262.251        3.848        2.733      147.587       89.743        0.370      341.468       16.198      861.907
03/24/2014  20:40:00     -432.899      -98.881      -10.558      239.100      137.766       91.845    57168.791    18979.342     8435.575       14.092        4.229      444.048      109.916        0.061      341.470       16.201      861.956
03/24/2014  20:41:00     -304.260      -65.378       -7.701      232.399      135.985       92.682    54009.443    18492.020     8590.024        8.899        4.055      311.205      107.627        0.120      341.470       16.202      861.937
03/24/2014  20:42:00     -333.922      -90.293      -20.305      208.312      156.262       82.802    43394.045    24417.843     6856.101        9.736        3.733      345.915       68.077        0.039      341.505       16.260      861.946
03/24/2014  20:43:00     -266.171     -153.196        8.009      186.265      167.388      101.244    34694.791    28018.736    10250.410        8.366        3.648      307.109       91.709        0.089      341.458       16.181      861.929
03/24/2014  20:44:00     -418.763      -76.859      -30.136      161.376      144.183       65.726    26042.347    20788.729     4319.895       11.666        2.558      425.758       58.784        0.019      341.471       16.203      861.932
03/24/2014  20:45:00     -106.457      -58.473       31.887      144.626      109.979       60.385    20916.694    12095.421     3646.368        2.621        1.833      121.458       65.143        0.288      341.427       16.130      861.922
03/24/2014  20:46:00     -353.475      -54.171       -4.388      217.868      159.734       82.645    47466.508    25514.833     6830.173       10.384        3.991      357.602       80.797        0.051      341.402       16.086      861.933
03/24/2014  20:47:00     -412.365     -100.250      -21.537      181.524      160.325       94.936    32951.107    25704.257     9012.862       12.410        3.383      424.376       89.741        0.045      341.405       16.090      861.930
03/24/2014  20:48:00     -321.237      -66.350      -13.973      169.056      137.080       80.676    28580.006    18790.978     6508.613        8.083        2.694      328.018       66.528        0.041      341.391       16.066      861.935
03/24/2014  20:49:00     -432.889      -63.116      -15.688      221.634      157.720       92.599    49121.416    24875.472     8574.565       13.708        4.129      437.466      108.173        0.061      341.352       16.002      861.927
03/24/2014  20:50:00     -261.851     -108.388      -22.513      162.406      125.783       73.830    26375.751    15821.279     5450.921        6.423        2.382      283.397       83.811        0.087      341.378       16.046      861.909
03/24/2014  20:51:00     -211.112      -65.828       -6.483      161.258       98.994       66.080    26004.163     9799.897     4366.615        4.455        2.009      221.137       77.162        0.122      341.350       15.998      861.926
03/24/2014  20:52:00     -262.750      -45.147        4.582      171.475      118.081       69.427    29403.565    13943.026     4820.120        5.962        2.408      266.601       78.774        0.087      341.306       15.925      861.904
03/24/2014  20:53:00     -309.941     -149.546       -3.467      181.030      123.804       84.900    32771.790    15327.536     7207.931        8.686        2.765      344.133       90.915        0.070      341.291       15.898      861.897
03/24/2014  20:54:00     -324.022     -143.149      -10.842      178.617      164.520       88.865    31903.936    27066.735     7896.931        9.622        3.343      354.235       77.496        0.048      341.293       15.903      861.916
03/24/2014  20:55:00     -237.149      -44.699       -9.216      143.949      137.549       69.050    20721.258    18919.775     4767.927        5.136        2.220      241.324       55.658        0.053      341.302       15.917      861.929
03/24/2014  20:56:00     -254.022     -121.290       -4.088      175.625      135.990       65.896    30844.186    18493.249     4342.334        6.646        2.684      281.494       72.571        0.066      341.252       15.834      861.939
03/24/2014  20:57:00     -170.597      -99.553        4.398      216.849      122.650       87.197    47023.300    15043.021     7603.390        5.434        3.483      197.520      109.669        0.308      341.273       15.870      861.943
03/24/2014  20:58:00     -404.177      -47.177      -21.099      215.933      134.579       76.633    46627.203    18111.546     5872.676       11.831        3.531      406.921       93.607        0.053      341.257       15.841      861.982
03/24/2014  20:59:00     -428.576      -25.791      -55.700      186.053      137.737       76.945    34615.711    18971.484     5920.608       12.347        2.975      429.351       84.425        0.039      341.266       15.857      861.981
03/24/2014  21:00:00     -220.950      -40.717      -12.596      175.494      155.892       63.830    30797.991    24302.216     4074.238        5.489        2.959      224.670       73.410        0.107      341.209       15.762      861.944
03/24/2014  21:01:00     -474.292     -136.684      -28.699      208.839      176.316       79.954    43613.731    31087.279     6392.664       16.276        4.055      493.594       89.264        0.033      341.191       15.729      861.964
03/24/2014  21:02:00     -456.088     -160.713      -17.164      241.551      158.866       91.378    58347.087    25238.294     8350.006       16.302        4.597      483.575      108.619        0.050      341.186       15.721      861.990
03/24/2014  21:03:00     -423.360      -14.844      -17.011      132.324      134.668       71.239    17509.762    18135.390     5075.058       11.022        2.036      423.620       55.781        0.017      341.219       15.776      862.036
03/24/2014  21:04:00     -297.240     -105.998       -3.538      176.350      130.611       70.788    31099.214    17059.118     5010.894        7.638        2.658      315.575       82.503        0.068      341.165       15.685      861.993
03/24/2014  21:05:00     -171.895      -36.634        5.935      113.787      106.468       60.531    12947.478    11335.394     3664.000        2.943        1.397      175.755       59.936        0.116      341.139       15.640      862.017
03/24/2014  21:06:00     -296.441     -122.151       -2.132      107.215      117.420       62.392    11495.040    13787.449     3892.708        6.598        1.459      320.621       59.521        0.034      341.112       15.594      862.016
03/24/2014  21:07:00     -190.986     -111.831       -2.018      156.238      112.613       67.741    24410.282    12681.646     4588.827        4.533        2.084      221.318       73.344        0.110      341.099       15.574      861.991
03/24/2014  21:08:00     -434.747     -124.994      -13.826      135.127      104.159       66.451    18259.344    10849.091     4415.677       11.917        1.676      452.359       57.688        0.016      341.041       15.476      861.986
03/24/2014  21:09:00     -179.727       -2.514        0.829      131.102      117.209       59.440    17187.614    13737.905     3533.159        3.338        1.723      179.745       52.955        0.087      341.033       15.464      862.006
03/24/2014  21:10:00     -276.689      -46.537       -8.915      116.803      106.167       63.954    13642.898    11271.361     4090.159        5.390        1.450      280.575       55.582        0.039      341.036       15.467      861.992
03/24/2014  21:11:00     -344.153        2.518      -15.845      209.597      106.372       54.493    43930.776    11314.971     2969.520        8.845        2.911      344.163       71.357        0.043      341.031       15.459      861.971
03/24/2014  21:12:00     -213.430      -84.173       -2.324      143.507      123.658       77.251    20594.354    15291.385     5967.763        4.724        2.093      229.428       78.058        0.116      341.024       15.448      861.983
03/24/2014  21:13:00     -239.119      -39.532       -3.127      121.390       98.361       60.099    14735.473     9674.903     3611.885        4.338        1.401      242.364       62.522        0.067      340.998       15.403      861.988
03/24/2014  21:14:00     -211.061      -71.073      -16.257       97.640       99.011       36.995     9533.493     9803.243     1368.618        3.528        1.035      222.707       38.926        0.031      341.006       15.416      862.005
03/24/2014  21:15:00     -253.236      -75.186       -6.348      121.743       97.779       54.423    14821.367     9560.797     2961.834        4.858        1.367      264.162       37.400        0.020      340.990       15.388      862.014
03/24/2014  21:16:00     -352.431      -60.326       -7.503      136.706      131.513       68.425    18688.427    17295.563     4681.959        8.428        2.033      357.557       63.987        0.032      340.965       15.346      862.024
03/24/2014  21:17:00     -414.183      -60.998      -11.463      195.508      160.770       81.105    38223.492    25846.988     6578.034       12.301        3.532      418.651       99.534        0.057      341.007       15.417      862.005
03/24/2014  21:18:00     -288.516     -133.440       -9.545      145.787      121.241       70.496    21253.935    14699.336     4969.718        7.102        2.046      317.879       69.285        0.048      341.054       15.497      862.031
03/24/2014  21:19:00     -248.682     -106.954      -15.195      103.415      129.871       50.541    10694.576    16866.402     2554.443        5.181        1.506      270.707       48.801        0.032      341.021       15.442      862.029
03/24/2014  21:20:00     -184.448      -34.825       -1.972       97.329       60.701       49.852     9472.913     3684.555     2485.214        2.544        0.782      187.707       54.375        0.084      340.946       15.316      862.015
03/24/2014  21:21:00      -92.713      -71.547       25.973       85.667       87.550       45.197     7338.751     7665.040     2042.797        1.572        0.852      117.110       44.291        0.143      340.946       15.317      862.019
03/24/2014  21:22:00     -291.392      -21.777      -14.088      120.679       85.827       65.057    14563.372     7366.251     4232.397        5.587        1.308      292.205       61.875        0.045      340.939       15.302      862.021
03/24/2014  21:23:00     -341.765      -87.092       -2.516      162.784      131.326       75.928    26498.520    17246.599     5765.088        8.694        2.476      352.688       80.142        0.052      340.970       15.355      862.023
03/24/2014  21:24:00     -217.330      -71.821        0.027       95.884      110.351       54.484     9193.675    12177.335     2968.510        3.836        1.217      228.890       51.782        0.051      340.909       15.252      862.033
03/24/2014  21:25:00     -392.066      -60.853      -13.182      139.716      114.191       64.404    19520.472    13039.626     4147.926        9.714        1.835      396.761       64.980        0.027      340.962       15.341      862.027
03/24/2014  21:26:00     -297.005     -123.899       -2.972      111.458      116.734       52.502    12422.918    13626.841     2756.419        6.618        1.440      321.812       48.050        0.022      341.033       15.463      862.062
03/24/2014  21:27:00      -92.484     -236.094        4.267       85.978      116.793       54.062     7392.233    13640.508     2922.666        4.413        1.198      253.562       46.558        0.034      341.151       15.660      862.075
03/24/2014  21:28:00     -106.433     -106.386       -3.612       57.008      110.987       43.395     3249.892    12318.039     1883.133        2.005        0.873      150.485       42.106        0.078      341.153       15.668      862.070
03/24/2014  21:29:00     -188.625     -166.666       -5.241      155.337      100.441       56.091    24129.718    10088.396     3146.145        5.037        1.868      251.708       55.061        0.048      341.072       15.528      862.071
03/24/2014  21:30:00     -243.192     -114.099        0.350      139.177       78.204       49.120    19370.292     6115.861     2412.759        5.003        1.395      268.628       54.058        0.040      340.958       15.335      862.067
03/24/2014  21:31:00     -144.454     -142.172       -8.302       94.312       58.625       34.872     8894.734     3436.923     1216.055        2.735        0.677      202.682       28.739        0.020      340.993       15.396      862.075
03/24/2014  21:32:00      -64.455     -115.174       12.254      101.610       85.066       38.683    10324.541     7236.154     1496.375        1.831        0.953      131.983       43.282        0.108      340.979       15.371      862.093
03/24/2014  21:33:00     -197.641      -58.418       -6.635      133.092       93.242       62.880    17713.585     8694.008     3953.899        3.644        1.518      206.094       54.180        0.069      340.935       15.297      862.137
03/24/2014  21:34:00     -168.934      -29.488       -0.192       82.030       78.020       49.357     6728.992     6087.072     2436.075        2.233        0.763      171.488       43.306        0.064      340.912       15.256      862.125
03/24/2014  21:35:00     -220.538     -113.216      -10.825      121.941       93.140       43.655    14869.497     8675.030     1905.757        4.351        1.273      247.901       30.974        0.016      340.938       15.301      862.140
03/24/2014  21:36:00     -218.994      -97.485        1.241       86.685      104.506       57.228     7514.315    10921.523     3275.075        3.958        1.086      239.712       52.223        0.047      340.891       15.221      862.132
03/24/2014  21:37:00     -262.466     -192.950       -6.781      121.422       91.715       62.835    14743.275     8411.684     3948.192        6.663        1.355      325.758       70.642        0.047      340.898       15.233      862.131
03/24/2014  21:38:00      -99.277     -170.802       -6.029       75.010       89.629       40.547     5626.569     8033.346     1644.095        2.718        0.765      197.559       32.258        0.027      340.907       15.249      862.134
03/24/2014  21:39:00     -158.349     -118.839        8.378       98.970       62.332       45.178     9795.094     3885.331     2041.018        2.749        0.786      197.982       41.689        0.044      340.885       15.213      862.129
03/24/2014  21:40:00      -63.148      -98.471        1.487       44.542       63.006       29.072     1983.998     3969.751      845.188        1.024        0.340      116.979       17.422        0.022      340.854       15.163      862.146
03/24/2014  21:41:00      -53.439     -103.936      -16.839       41.010       50.538       34.168     1681.782     2554.041     1167.445        0.967        0.270      116.869       22.950        0.039      340.856       15.166      862.113
03/24/2014  21:42:00      -86.123      -61.837        0.825       64.845       40.985       33.353     4204.924     1679.810     1112.411        0.912        0.350      106.023       21.620        0.042      340.822       15.108      862.127
03/24/2014  21:43:00     -129.912      -72.193        2.064       49.434       38.227       33.313     2443.702     1461.288     1109.755        1.355        0.251      148.624       24.102        0.026      340.770       15.019      862.133
03/24/2014  21:44:00      -70.230      -72.715       -4.257       45.148       32.013       23.424     2038.322     1024.844      548.668        0.692        0.181      101.093       21.988        0.047      340.795       15.062      862.128
03/24/2014  21:45:00     -107.421      -77.801        0.836       57.460       33.708       23.229     3301.704     1136.260      539.572        1.128        0.249      132.636       22.157        0.028      340.771       15.022      862.120
03/24/2014  21:46:00      -73.516     -105.674      -10.131       49.633       68.519       33.980     2463.456     4694.909     1154.632        1.249        0.416      128.730       36.503        0.080      340.856       15.164      862.121
03/24/2014  21:47:00      -70.448      -67.085       13.354       54.480       59.973       34.298     2968.124     3596.756     1176.339        0.869        0.387       97.280       28.174        0.084      340.838       15.136      862.124
03/24/2014  21:48:00     -165.061     -141.960       -1.821       69.410       60.940       31.918     4817.797     3713.700     1018.761        2.847        0.478      217.710       34.759        0.025      340.811       15.086      862.111
03/24/2014  21:49:00     -214.007      -89.466       -6.648       75.816       76.565       36.189     5748.103     5862.182     1309.628        3.338        0.646      231.955       37.475        0.026      340.800       15.068      862.093
03/24/2014  21:50:00     -279.086     -159.674       -3.807      154.923      107.480       64.781    24001.162    11551.906     4196.567        7.157        1.987      321.534       56.597        0.031      340.767       15.012      862.077
03/24/2014  21:51:00     -447.437     -131.554      -13.908      120.853       89.820       52.678    14605.566     8067.642     2774.994       12.157        1.272      466.376       56.097        0.014      340.848       15.149      862.084
03/24/2014  21:52:00     -272.880       14.305      -10.846      118.996       67.129       38.870    14160.036     4506.347     1510.850        4.748        1.009      273.254       49.721        0.033      340.945       15.313      862.093
03/24/2014  21:53:00     -164.680      -54.020       -6.517       74.483       91.575       43.387     5547.755     8386.023     1882.442        2.295        0.791      173.314       45.907        0.070      340.803       15.074      862.077
03/24/2014  21:54:00     -217.879      -14.341      -21.971       93.630       69.029       45.154     8766.506     4764.968     2038.892        3.186        0.779      218.351       35.980        0.027      340.880       15.203      862.074
03/24/2014  21:55:00      -69.761      -18.131       -0.750       52.077       45.336       26.575     2711.970     2055.393      706.228        0.533        0.274       72.078       29.411        0.166      340.777       15.033      862.062
03/24/2014  21:56:00     -138.594      -67.680        2.037       97.279       64.631       43.000     9463.263     4177.136     1849.034        1.964        0.774      154.237       48.177        0.098      340.692       14.886      862.065
03/24/2014  21:57:00     -197.645     -114.039       -9.408      125.162       79.311       54.592    15665.513     6290.202     2980.252        3.854        1.247      228.185       57.792        0.064      340.711       14.919      862.077
03/24/2014  21:58:00     -287.911     -162.196      -10.106       90.277       96.259       42.359     8149.989     9265.753     1794.298        6.425        0.961      330.455       29.931        0.008      340.839       15.132      862.091
03/24/2014  21:59:00     -209.603     -147.560        2.275      113.553      105.973       66.254    12894.278    11230.311     4389.646        4.711        1.426      256.334       61.221        0.057      340.811       15.086      862.098
03/24/2014  22:00:00     -183.801      -93.781       -2.225      100.463       64.942       39.861    10092.781     4217.408     1588.900        2.924        0.795      206.344       33.574        0.026      340.863       15.174      862.111
03/24/2014  22:01:00     -113.857      -59.419        1.831       77.230       60.886       31.364     5964.399     3707.153      983.715        1.357        0.533      128.429       27.056        0.044      340.811       15.087      862.115
03/24/2014  22:02:00     -106.088      -43.919        0.507       59.601       49.241       31.026     3552.333     2424.689      962.604        1.006        0.347      114.819       25.314        0.049      340.787       15.047      862.108
03/24/2014  22:03:00      -96.090      -54.179       -1.399       49.761       52.174       30.503     2476.158     2722.129      930.408        0.915        0.306      110.312       31.702        0.083      340.710       14.919      862.114
03/24/2014  22:04:00     -180.631     -138.576      -22.139       39.287       49.246       26.677     1543.460     2425.186      711.668        2.850        0.234      227.664       23.578        0.011      340.793       15.057      862.126
03/24/2014  22:05:00     -107.036     -102.017        2.484       66.897       62.241       29.730     4475.174     3873.901      883.889        1.555        0.462      147.866       30.356        0.042      340.742       14.970      862.126
03/24/2014  22:06:00     -109.242      -94.005       -2.673       59.421       78.538       31.825     3530.801     6168.241     1012.827        1.574        0.536      144.120       28.455        0.039      340.722       14.939      862.123
03/24/2014  22:07:00     -108.878      -65.477        7.257       63.990       57.255       27.321     4094.686     3278.108      746.455        1.216        0.406      127.050       27.324        0.046      340.700       14.901      862.113
03/24/2014  22:08:00     -163.574      -33.067       -0.668       67.272       61.183       34.423     4525.490     3743.303     1184.928        1.865        0.473      166.883       36.072        0.047      340.593       14.719      862.108
03/24/2014  22:09:00     -163.062      -34.754       -2.624       75.742       51.786       31.968     5736.877     2681.812     1021.974        1.862        0.472      166.724       37.691        0.051      340.484       14.536      862.104
03/24/2014  22:10:00     -118.783      -37.244       -8.611       52.713       50.945       24.257     2778.708     2595.444      588.410        1.077        0.298      124.485       24.883        0.040      340.473       14.518      862.097
03/24/2014  22:11:00     -107.755      -46.053       12.290       63.793       45.603       32.224     4069.598     2079.641     1038.393        1.053        0.359      117.184       29.729        0.064      340.440       14.462      862.098
03/24/2014  22:12:00     -122.806      -61.348        4.551       59.494       47.780       27.837     3539.582     2282.959      774.897        1.273        0.330      137.277       25.754        0.035      340.516       14.591      862.104
03/24/2014  22:13:00     -161.834      -53.583       -4.486       79.304       48.252       38.192     6289.141     2328.231     1458.633        1.958        0.504      170.474       40.514        0.056      340.575       14.689      862.117
03/24/2014  22:14:00     -128.957      -48.397       -1.835       58.304       52.679       29.752     3399.315     2775.056      885.211        1.302        0.353      137.740       29.064        0.045      340.544       14.638      862.123
03/24/2014  22:15:00     -145.608      -30.416       -4.985       35.249       27.995       22.353     1242.494      783.722      499.673        1.234        0.126      148.750       20.528        0.019      340.540       14.630      862.120
03/24/2014  22:16:00     -140.909      -48.561       -9.333       27.393       26.162       17.231      750.392      684.439      296.908        1.202        0.087      149.042       12.101        0.007      340.605       14.740      862.110
03/24/2014  22:17:00      -64.477      -39.529        6.551       38.106       27.153       20.105     1452.044      737.262      404.201        0.418        0.130       75.630       11.980        0.025      340.527       14.609      862.103
03/24/2014  22:18:00     -132.117      -84.268       -8.231       45.575       26.180       24.999     2077.092      685.392      624.972        1.401        0.169      156.704       23.482        0.022      340.535       14.622      862.100
03/24/2014  22:19:00     -113.026      -59.503       -3.316       58.973       39.646       28.785     3477.817     1571.773      828.556        1.110        0.294      127.732       28.571        0.050      340.471       14.513      862.101
03/24/2014  22:20:00     -136.372      -79.031      -10.031       63.738       48.605       34.055     4062.545     2362.412     1159.711        1.626        0.379      157.618       37.902        0.058      340.567       14.675      862.105
03/24/2014  22:21:00     -109.551      -92.759       -3.746       44.818       36.585       28.550     2008.629     1338.483      815.101        1.239        0.208      143.547       26.381        0.034      340.551       14.651      862.105
03/24/2014  22:22:00     -109.873      -84.776       -0.123       52.362       42.852       28.667     2741.782     1836.285      821.812        1.233        0.270      138.776       29.149        0.044      340.579       14.697      862.101
03/24/2014  22:23:00      -70.907      -94.605       -5.349       36.908       29.359       31.196     1362.172      861.947      973.184        0.860        0.160      118.228       26.789        0.051      340.584       14.707      862.110
03/24/2014  22:24:00      -94.661      -66.945        8.032       65.256       45.905       34.762     4258.295     2107.264     1208.425        1.054        0.379      115.940       29.999        0.067      340.520       14.598      862.105
03/24/2014  22:25:00      -50.351      -96.280        7.342       49.166       50.193       26.750     2417.256     2519.312      715.557        0.875        0.283      108.651       21.352        0.039      340.590       14.715      862.103
03/24/2014  22:26:00     -109.639      -66.813        6.384       67.331       42.363       28.959     4533.504     1794.641      838.647        1.184        0.358      128.393       33.895        0.070      340.529       14.613      862.102
03/24/2014  22:27:00      -84.224      -75.276        7.227       41.583       43.591       28.485     1729.175     1900.134      811.380        0.863        0.222      112.961       24.733        0.048      340.530       14.613      862.106
03/24/2014  22:28:00      -93.879      -24.150       -3.655       41.726       32.859       28.661     1741.098     1079.685      821.471        0.653        0.182       96.936       25.396        0.069      340.436       14.454      862.110
03/24/2014  22:29:00     -140.902      -51.116       -2.549       61.292       47.884       24.224     3756.689     2292.835      586.801        1.455        0.332      149.888       22.270        0.022      340.525       14.606      862.109
03/24/2014  22:30:00     -161.060      -88.169       -2.153       39.275       27.349       20.980     1542.507      747.971      440.159        1.822        0.137      183.614       12.771        0.005      340.486       14.539      862.111
03/24/2014  22:31:00     -104.163      -69.747       -0.302       77.716       40.799       27.979     6039.747     1664.530      782.813        1.210        0.424      125.358       40.612        0.105      340.450       14.478      862.114
03/24/2014  22:32:00      -68.651      -66.222        6.984       47.531       42.980       22.440     2259.164     1847.270      503.553        0.688        0.230       95.385       17.339        0.033      340.484       14.535      862.118
03/24/2014  22:33:00      -61.028      -55.553        7.762       73.223       34.665       28.010     5361.574     1201.687      784.568        0.711        0.367       82.526       32.277        0.153      340.508       14.579      862.120
03/24/2014  22:34:00     -142.264     -103.667       12.039      105.642       72.941       47.467    11160.131     5320.317     2253.158        2.493        0.937      176.028       52.008        0.087      340.489       14.542      862.112
03/24/2014  22:35:00     -108.818      -99.286       -0.376       60.046       60.861       28.103     3605.478     3704.091      789.779        1.490        0.405      147.306       23.489        0.025      340.471       14.512      862.109
03/24/2014  22:36:00      -77.409      -41.769       13.153       54.398       46.641       29.218     2959.184     2175.341      853.715        0.695        0.299       87.959       25.743        0.086      340.381       14.362      862.100
03/24/2014  22:37:00     -142.818     -107.084       -8.626       79.615       68.751       38.807     6338.622     4726.731     1505.986        2.225        0.629      178.505       38.185        0.046      340.475       14.518      862.080
03/24/2014  22:38:00      -57.408      -19.785        7.445       68.569       68.402       36.558     4701.654     4678.831     1336.452        0.723        0.536       60.722       32.577        0.288      340.350       14.310      862.060
03/24/2014  22:39:00     -150.835     -107.968       11.265      109.486       72.758       49.499    11987.279     5293.792     2450.140        2.713        0.987      185.494       59.226        0.102      340.436       14.453      862.053
03/24/2014  22:40:00     -152.242     -109.654        1.580       67.895       55.423       35.074     4609.762     3071.736     1230.198        2.206        0.446      187.621       37.660        0.040      340.446       14.470      862.049
03/24/2014  22:41:00      -97.767     -111.049       -9.899       76.143       69.221       36.784     5797.718     4791.582     1353.042        1.696        0.597      147.954       38.866        0.069      340.464       14.500      862.035
03/24/2014  22:42:00      -71.481      -55.139       17.435       79.174       67.224       42.096     6268.562     4519.077     1772.084        1.050        0.628       90.276       44.674        0.245      340.311       14.242      862.034
03/24/2014  22:43:00      -83.329      -64.652        0.393       62.452       63.725       40.190     3900.229     4060.887     1615.268        1.035        0.479      105.468       39.240        0.138      340.346       14.304      862.029
03/24/2014  22:44:00     -120.292      -70.013       -7.197       58.642       51.180       27.412     3438.907     2619.395      751.432        1.312        0.340      139.183       27.204        0.038      340.371       14.345      862.038
03/24/2014  22:45:00     -200.165      -80.002       -2.916       69.549       49.943       36.039     4836.996     2494.296     1298.802        2.755        0.432      215.561       41.030        0.036      340.393       14.379      862.041
03/24/2014  22:46:00     -143.405      -63.856       -1.222       84.326       88.889       46.117     7110.924     7901.276     2126.742        2.089        0.857      156.980       43.132        0.075      340.416       14.418      862.035
03/24/2014  22:47:00     -143.460      -59.990       -1.578       78.930       51.458       35.018     6230.005     2647.912     1226.268        1.714        0.505      155.498       32.514        0.044      340.355       14.317      862.029
03/24/2014  22:48:00     -117.279      -46.207       -4.947       79.299       45.031       27.810     6288.397     2027.812      773.417        1.250        0.454      126.053       38.080        0.091      340.372       14.346      862.009
03/24/2014  22:49:00      -37.297      -42.800        6.507       39.987       28.940       18.638     1598.995      837.506      347.369        0.302        0.139       56.771       22.334        0.155      340.380       14.358      861.996
03/24/2014  22:50:00      -79.236     -116.795       -4.281       42.781       41.776       29.895     1830.225     1745.259      893.728        1.220        0.223      141.136       28.206        0.040      340.429       14.443      861.992
03/24/2014  22:51:00     -114.055      -66.183       -7.407       66.998       61.092       43.999     4488.761     3732.278     1935.872        1.380        0.508      131.867       43.709        0.110      340.350       14.310      861.993
03/24/2014  22:52:00     -123.628      -73.354       -3.360       61.415       40.933       29.960     3771.835     1675.535      897.583        1.351        0.317      143.752       26.506        0.034      340.296       14.220      861.986
03/24/2014  22:53:00     -152.505      -90.789      -10.460       58.370       38.564       29.901     3407.039     1487.173      894.075        1.870        0.289      177.484       21.305        0.014      340.313       14.246      861.976
03/24/2014  22:54:00      -80.478     -100.949       -7.460       39.498       36.409       25.912     1560.055     1325.628      671.454        1.014        0.178      129.102       22.613        0.031      340.304       14.231      861.953
03/24/2014  22:55:00     -112.047      -96.148        0.364       55.326       47.986       26.857     3060.989     2302.687      721.294        1.394        0.304      147.645       28.093        0.036      340.338       14.289      861.947
03/24/2014  22:56:00     -131.222      -86.278       -1.142       49.273       46.429       27.127     2427.841     2155.635      735.897        1.499        0.266      157.045       28.399        0.033      340.301       14.226      861.938
03/24/2014  22:57:00     -114.909      -84.557        1.969       52.040       45.378       31.877     2708.168     2059.155     1016.166        1.307        0.289      142.667       33.690        0.056      340.341       14.295      861.927
03/24/2014  22:58:00     -120.337     -101.778       -3.607       60.559       39.682       31.219     3667.431     1574.630      974.601        1.553        0.311      157.606       30.878        0.038      340.423       14.432      861.914
03/24/2014  22:59:00     -107.442      -77.574       -0.236       51.355       37.845       22.677     2637.344     1432.269      514.237        1.107        0.229      132.520       16.658        0.016      340.421       14.429      861.904
03/24/2014  23:00:00     -105.486      -79.488        5.146       75.076       47.772       34.470     5636.431     2282.146     1188.184        1.329        0.455      132.082       37.913        0.082      340.230       14.107      861.912
03/24/2014  23:01:00     -131.352      -70.669       -3.241       55.316       57.105       31.395     3059.853     3261.009      985.656        1.478        0.365      149.156       24.669        0.027      340.148       13.967      861.897
03/24/2014  23:02:00     -124.609      -95.499       -5.364       44.937       43.816       29.564     2019.335     1919.835      874.038        1.474        0.241      156.995       27.016        0.030      340.174       14.013      861.887
03/24/2014  23:03:00     -107.889      -66.422       -6.636       39.306       36.745       22.462     1544.941     1350.182      504.544        0.975        0.170      126.696       18.691        0.022      340.388       14.374      861.870
03/24/2014  23:04:00     -134.144      -98.542       -3.185       91.977       67.286       33.491     8459.832     4527.362     1121.629        2.091        0.705      166.448       41.770        0.063      340.378       14.356      861.853
03/24/2014  23:05:00      -95.246     -103.463       19.033       74.184       98.230       36.033     5503.221     9649.179     1298.345        1.829        0.823      140.628       38.035        0.073      340.320       14.257      861.837
03/24/2014  23:06:00     -157.610      -55.290       -4.285       65.584       39.846       32.698     4301.250     1587.681     1069.146        1.744        0.348      167.027       28.275        0.029      340.306       14.233      861.838
03/24/2014  23:07:00     -138.266      -30.476        8.283       75.439       39.181       34.209     5691.100     1535.120     1170.241        1.425        0.420      141.585       34.115        0.058      340.254       14.146      861.834
03/24/2014  23:08:00     -110.499      -16.928        2.961       77.412       41.397       32.838     5992.581     1713.691     1078.358        1.064        0.439      111.788       34.322        0.094      340.200       14.054      861.840
03/24/2014  23:09:00     -174.205      -51.699       -0.947       69.990       48.213       34.212     4898.538     2324.484     1170.488        2.071        0.420      181.715       29.017        0.025      340.218       14.084      861.851
03/24/2014  23:10:00     -156.136      -46.731        5.495       65.371       42.876       30.975     4273.364     1838.336      959.427        1.683        0.354      162.979       38.654        0.056      340.168       14.002      861.856
03/24/2014  23:11:00      -63.952      -22.219       12.406       39.983       44.596       29.730     1598.612     1988.811      883.886        0.460        0.224       67.702       23.026        0.116      340.114       13.910      861.845
03/24/2014  23:12:00      -87.315      -63.360       -3.562       34.478       31.434       19.589     1188.746      988.079      383.715        0.711        0.128      107.881       19.347        0.032      340.140       13.957      861.841
03/24/2014  23:13:00      -80.845      -94.621       -9.899       46.273       42.182       26.511     2141.229     1779.333      702.817        1.010        0.231      124.455       21.579        0.030      340.072       13.841      861.835
03/24/2014  23:14:00      -79.405     -100.326       -9.344       39.887       40.063       21.582     1590.945     1605.073      465.796        1.006        0.183      127.947       15.777        0.015      340.016       13.746      861.825
03/24/2014  23:15:00     -121.901      -87.647       -8.439       33.851       38.468       22.531     1145.917     1479.823      507.633        1.287        0.157      150.139       20.125        0.018      339.953       13.639      861.819
03/24/2014  23:16:00      -95.033      -53.889       -2.275       36.322       29.259       16.895     1319.302      856.079      285.447        0.720        0.123      109.249       18.156        0.028      339.883       13.521      861.807
03/24/2014  23:17:00      -41.685      -48.602        7.465       41.306       28.822       21.810     1706.182      830.706      475.692        0.358        0.151       64.030       21.200        0.110      339.942       13.622      861.793
03/24/2014  23:18:00      -19.062      -48.527       10.145       37.847       28.976       22.835     1432.422      839.608      521.458        0.281        0.140       52.137       22.112        0.180      339.951       13.636      861.786
03/24/2014  23:19:00      -53.143      -53.032        4.550       50.324       31.171       26.338     2532.537      971.604      693.713        0.493        0.210       75.077       29.773        0.157      339.799       13.380      861.782
03/24/2014  23:20:00       -2.632      -27.004       18.175       24.805       19.232       16.454      615.268      369.865      270.722        0.116        0.063       27.132       16.325        0.362      339.857       13.479      861.768
03/24/2014  23:21:00      -11.521      -38.850        9.177       28.308       27.514       17.899      801.321      757.027      320.370        0.180        0.094       40.523       16.243        0.161      339.923       13.590      861.758
03/24/2014  23:22:00       -5.379      -50.285        2.200       24.101       21.492       12.788      580.837      461.924      163.533        0.188        0.060       50.572        6.159        0.015      339.922       13.587      861.745
03/24/2014  23:23:00      -30.749      -24.420        1.544       24.826       15.239       13.301      616.311      232.240      176.919        0.128        0.051       39.266        7.350        0.035      339.923       13.589      861.743
03/24/2014  23:24:00      -30.925      -27.035      -10.347       26.371       19.661       10.484      695.447      386.544      109.910        0.149        0.060       41.076        6.480        0.025      339.822       13.419      861.748
03/24/2014  23:25:00        2.109      -29.100        9.369       19.915       24.588       14.432      396.589      604.555      208.291        0.107        0.060       29.176       12.669        0.189      339.848       13.463      861.754
03/24/2014  23:26:00      -27.975      -11.832        4.275       25.595       13.610       11.748      655.106      185.239      138.004        0.096        0.049       30.374       11.253        0.137      339.753       13.303      861.748
03/24/2014  23:27:00      -25.507       -4.327        7.821       27.636       13.851       12.769      763.762      191.849      163.042        0.092        0.056       25.871       10.634        0.169      339.710       13.231      861.748
03/24/2014  23:28:00      -28.024      -40.861        0.485       46.261       18.590       17.123     2140.086      345.594      293.204        0.262        0.139       49.548       18.381        0.138      339.852       13.470      861.753
03/24/2014  23:29:00       11.199      -21.110       19.315       34.712       28.243       16.883     1204.952      797.683      285.033        0.162        0.114       23.897       15.656        0.429      339.538       12.939      861.754
03/24/2014  23:30:00       33.615        6.173        9.287       36.625       19.779       18.263     1341.354      391.219      333.525        0.166        0.103       34.177       10.087        0.087      339.412       12.727      861.767
03/24/2014  23:31:00       42.722       45.802       39.521       32.517       31.613       28.915     1057.336      999.384      836.049        0.419        0.145       62.634       29.743        0.226      339.188       12.352      861.772
03/24/2014  23:32:00       -7.031       68.139       93.872       27.723       36.547       20.173      768.575     1335.700      406.950        0.801        0.126       68.501       20.571        0.090      339.306       12.550      861.762
03/24/2014  23:33:00       13.865       60.086       75.970       37.775       35.772       27.799     1426.970     1279.645      772.776        0.653        0.174       61.665       23.206        0.142      339.344       12.614      861.749
03/24/2014  23:34:00        3.264       40.929       79.182       28.977       44.903       28.762      839.672     2016.322      827.272        0.582        0.184       41.059       28.632        0.486      339.424       12.747      861.746
03/24/2014  23:35:00        8.378      -12.492       27.250       26.060       39.570       26.307      679.138     1565.796      692.036        0.195        0.147       15.041       29.118        3.748      339.408       12.721      861.761
03/24/2014  23:36:00       38.407      -38.033       14.946       46.499       44.616       26.237     2162.137     1990.603      688.361        0.399        0.242       54.052       26.500        0.240      339.459       12.806      861.771
03/24/2014  23:37:00       71.967      -47.081       11.335       29.634       27.689       25.433      878.188      766.663      646.854        0.491        0.115       85.999       16.490        0.037      339.510       12.894      861.775
03/24/2014  23:38:00       20.580       -0.262       23.541       35.072       32.925       23.162     1230.025     1084.024      536.462        0.191        0.143       20.581       26.544        1.663      339.367       12.652      861.779
03/24/2014  23:39:00       42.833      -67.305       -7.831       21.682       17.776       13.623      470.099      315.985      185.589        0.370        0.049       79.779        6.986        0.008      339.457       12.803      861.784
03/24/2014  23:40:00       67.197      -78.682      -12.495       28.348       19.645       12.703      803.629      385.911      161.377        0.611        0.068      103.471        9.016        0.008      339.495       12.868      861.790
03/24/2014  23:41:00       24.322      -72.226        9.242       31.103       37.654       28.564      967.392     1417.847      815.887        0.455        0.160       76.211       16.401        0.046      339.624       13.085      861.787
03/24/2014  23:42:00       22.364      -43.503       17.238       31.693       33.216       31.080     1004.441     1103.291      965.987        0.288        0.154       48.914       22.009        0.202      339.549       12.959      861.788
03/24/2014  23:43:00        0.858       43.152       65.275       18.334       30.621       15.853      336.127      937.659      251.326        0.382        0.076       43.161       17.484        0.164      339.319       12.571      861.766
03/24/2014  23:44:00        3.733       57.630       76.908       21.767       35.176       24.058      473.801     1237.342      578.767        0.577        0.114       57.751       25.765        0.199      339.381       12.675      861.737
03/24/2014  23:45:00        9.138       39.601       38.741       17.074       23.326       23.402      291.514      544.125      547.663        0.227        0.069       40.642       19.927        0.240      339.158       12.298      861.715
03/24/2014  23:46:00       22.695       26.151       17.743       16.463        9.754       10.255      271.026       95.143      105.161        0.099        0.024       34.626        4.976        0.021      339.146       12.280      861.704
03/24/2014  23:47:00       55.099       26.093       11.582       14.276       17.811       11.783      203.804      317.223      138.836        0.226        0.033       60.965       10.319        0.029      339.119       12.235      861.697
03/24/2014  23:48:00       11.113       16.597       27.923       26.019       24.289       17.083      676.987      589.947      291.838        0.137        0.078       19.974       11.374        0.324      338.982       12.003      861.685
03/24/2014  23:49:00       -2.889       -0.700       14.997        7.021       16.215        9.367       49.296      262.918       87.732        0.032        0.020        2.972        6.921        5.422      338.956       11.960      861.683
03/24/2014  23:50:00       -7.003       -5.477        8.759       10.763       13.419        6.822      115.844      180.082       46.536        0.025        0.017        8.890        5.949        0.448      339.066       12.144      861.682
03/24/2014  23:51:00      -38.461      -11.367       -3.319       10.511        8.485        4.751      110.490       71.990       22.576        0.091        0.010       40.106        3.167        0.006      339.194       12.363      861.674
03/24/2014  23:52:00      -51.456      -25.223       -3.869       10.397       12.264        9.366      108.102      150.395       87.720        0.182        0.017       57.305        6.456        0.013      339.196       12.362      861.678
03/24/2014  23:53:00      -54.108      -24.804       -4.697       13.271        8.457        6.147      176.108       71.524       37.791        0.193        0.014       59.523        3.876        0.004      339.180       12.339      861.691
03/24/2014  23:54:00      -39.543      -25.369       -6.765        6.222        5.922        5.450       38.718       35.069       29.703        0.118        0.005       46.981        4.386        0.009      339.187       12.349      861.698
03/24/2014  23:55:00      -41.934      -20.292      -10.026        7.566        4.792        4.283       57.239       22.968       18.348        0.118        0.005       46.586        2.242        0.002      339.286       12.514      861.691
03/24/2014  23:56:00      -16.373      -21.080       -1.576       10.467        7.974        4.892      109.567       63.592       23.932        0.046        0.010       26.692        3.498        0.017      339.300       12.537      861.678
03/24/2014  23:57:00      -32.419      -15.656       -0.812       12.264        9.369        9.705      150.418       87.778       94.179        0.081        0.017       36.002        8.482        0.056      339.090       12.185      861.678
03/24/2014  23:58:00      -12.438       -8.764       -4.858       16.383       13.993        7.636      268.389      195.799       58.314        0.039        0.026       15.215        5.277        0.120      338.995       12.027      861.682
03/24/2014  23:59:00       18.696       12.701        3.597        8.702        7.491       12.588       75.731       56.109      158.470        0.041        0.015       22.602        9.430        0.174      339.089       12.185      861.670
